[[{"header":{"parameterUnit":"m.s-1","parameterCategory":1,"la1":30.6,"la2":29.2853,"lo1":-89.7004,"lo2":-87.6739,"dy":0.0162,"dx":0.0183,"nx":112,"ny":82,"refTime":"2024-05-29T12:00:00:Z","depth":0,"parameterNumber":2,"parameterNumberName":"U-component_of_WINDS"},"data":[0.0,0.0,0.0,0.0,0.0,0.0,0.0,0.0,0.0,0.0,0.0,0.0,0.0,0.0,0.0,0.0,0.0,0.0,0.0,0.0,0.0,0.0,0.0,0.0,0.0,0.0,0.0,0.0,0.0,0.0,0.0,0.0,0.0,0.0,0.0,0.0,0.0,0.0,0.0,0.0,0.0,0.0,0.0,0.0,0.0,0.0,0.0,0.0,0.0,0.0,0.0,0.0,0.0,0.0,0.0,0.0,0.0,0.0,0.0,0.0,0.0,0.0,0.0,0.0,0.0,0.0,0.0,0.0,0.0,0.0,0.0,0.0,0.0,0.0,0.0,0.0,0.0,0.0,0.0,0.0,0.0,0.0,0.0,0.0,0.0,0.0,0.0,0.0,0.0,0.0,0.0,-4.1601,-4.455,-4.6196,-4.5914,-4.5038,-4.2641,-3.8286,0.0,0.0,0.0,0.0,0.0,0.0,0.0,0.0,0.0,0.0,0.0,0.0,0.0,0.0,0.0,0.0,0.0,0.0,0.0,0.0,0.0,0.0,0.0,0.0,0.0,0.0,0.0,0.0,0.0,0.0,0.0,0.0,0.0,0.0,0.0,0.0,0.0,0.0,0.0,0.0,0.0,0.0,0.0,0.0,0.0,0.0,0.0,0.0,0.0,0.0,0.0,0.0,0.0,0.0,0.0,0.0,0.0,0.0,0.0,0.0,0.0,0.0,0.0,0.0,0.0,0.0,0.0,0.0,0.0,0.0,0.0,0.0,0.0,0.0,0.0,0.0,0.0,0.0,0.0,0.0,0.0,0.0,0.0,0.0,0.0,0.0,0.0,0.0,0.0,0.0,0.0,0.0,0.0,0.0,0.0,0.0,0.0,0.0,0.0,0.0,0.0,0.0,0.0,0.0,-3.8552,-4.4699,-4.5913,-4.6165,-4.5838,-4.4448,-4.2005,-3.8248,0.0,0.0,0.0,0.0,0.0,0.0,0.0,0.0,0.0,0.0,0.0,0.0,0.0,0.0,0.0,0.0,0.0,0.0,0.0,0.0,0.0,0.0,0.0,0.0,0.0,0.0,0.0,0.0,0.0,0.0,0.0,0.0,0.0,0.0,0.0,0.0,0.0,0.0,0.0,0.0,0.0,0.0,0.0,0.0,0.0,0.0,0.0,0.0,0.0,0.0,0.0,0.0,0.0,0.0,0.0,0.0,0.0,0.0,0.0,0.0,0.0,0.0,0.0,0.0,0.0,0.0,0.0,0.0,0.0,0.0,0.0,0.0,0.0,0.0,0.0,0.0,0.0,0.0,0.0,0.0,0.0,0.0,0.0,0.0,0.0,0.0,0.0,0.0,0.0,0.0,0.0,0.0,0.0,0.0,0.0,0.0,0.0,0.0,0.0,0.0,0.0,0.0,0.0,-3.7383,-4.0172,-4.5529,-4.6149,-4.6089,-4.5815,-4.4267,-4.1778,-3.8222,-3.5161,0.0,0.0,0.0,0.0,0.0,0.0,0.0,0.0,0.0,0.0,0.0,0.0,0.0,0.0,0.0,0.0,0.0,0.0,0.0,0.0,0.0,0.0,0.0,0.0,0.0,0.0,0.0,0.0,0.0,0.0,0.0,0.0,0.0,0.0,0.0,0.0,0.0,0.0,0.0,0.0,0.0,0.0,0.0,0.0,0.0,0.0,0.0,0.0,0.0,0.0,0.0,0.0,0.0,0.0,0.0,0.0,0.0,0.0,0.0,0.0,0.0,0.0,0.0,0.0,0.0,0.0,0.0,0.0,0.0,0.0,0.0,0.0,0.0,0.0,0.0,0.0,0.0,0.0,0.0,0.0,0.0,0.0,0.0,0.0,0.0,0.0,0.0,0.0,0.0,0.0,0.0,0.0,0.0,0.0,0.0,0.0,0.0,0.0,0.0,0.0,0.0,0.0,-4.0039,-4.2143,-4.5685,-4.608,-4.6001,-4.5769,-4.3634,-4.0978,-3.7887,-3.4103,0.0,0.0,0.0,0.0,0.0,0.0,0.0,0.0,0.0,0.0,0.0,0.0,0.0,0.0,0.0,0.0,0.0,0.0,0.0,0.0,0.0,0.0,0.0,0.0,0.0,0.0,0.0,0.0,0.0,0.0,0.0,0.0,0.0,0.0,0.0,0.0,0.0,0.0,0.0,0.0,0.0,0.0,0.0,0.0,0.0,0.0,0.0,0.0,0.0,0.0,0.0,0.0,0.0,0.0,0.0,0.0,0.0,0.0,0.0,0.0,0.0,0.0,0.0,0.0,0.0,0.0,0.0,0.0,0.0,0.0,0.0,0.0,0.0,0.0,0.0,0.0,0.0,0.0,0.0,0.0,0.0,0.0,0.0,0.0,0.0,0.0,0.0,0.0,0.0,0.0,0.0,0.0,0.0,0.0,0.0,0.0,0.0,0.0,0.0,0.0,0.0,0.0,-4.0469,-4.407,-4.5737,-4.603,-4.5975,-4.5632,-4.1963,-3.8843,-3.6899,-3.2122,0.0,0.0,0.0,0.0,0.0,0.0,0.0,0.0,0.0,0.0,0.0,0.0,0.0,0.0,0.0,0.0,0.0,0.0,0.0,0.0,0.0,0.0,0.0,0.0,0.0,0.0,0.0,0.0,0.0,0.0,0.0,0.0,0.0,0.0,0.0,0.0,0.0,0.0,0.0,0.0,0.0,0.0,0.0,0.0,0.0,0.0,0.0,0.0,0.0,0.0,0.0,0.0,0.0,0.0,0.0,0.0,0.0,0.0,0.0,0.0,0.0,0.0,0.0,0.0,0.0,0.0,0.0,0.0,0.0,0.0,0.0,0.0,0.0,0.0,0.0,0.0,0.0,0.0,0.0,0.0,0.0,0.0,0.0,0.0,0.0,0.0,0.0,0.0,0.0,0.0,0.0,0.0,0.0,0.0,0.0,0.0,0.0,0.0,0.0,0.0,0.0,0.0,-3.9121,-4.2533,0.0,-4.5992,-4.5691,-4.4974,-4.2449,-3.948,-3.6161,0.0,0.0,0.0,0.0,0.0,0.0,0.0,0.0,0.0,0.0,0.0,0.0,0.0,0.0,0.0,0.0,0.0,0.0,0.0,0.0,0.0,0.0,0.0,0.0,0.0,0.0,0.0,0.0,0.0,0.0,0.0,0.0,0.0,0.0,0.0,0.0,0.0,0.0,0.0,0.0,0.0,0.0,0.0,0.0,0.0,0.0,0.0,0.0,0.0,0.0,0.0,0.0,0.0,0.0,0.0,0.0,0.0,0.0,0.0,0.0,0.0,0.0,0.0,0.0,0.0,0.0,0.0,0.0,0.0,0.0,0.0,0.0,0.0,0.0,0.0,0.0,0.0,0.0,0.0,0.0,0.0,0.0,0.0,0.0,0.0,0.0,0.0,0.0,0.0,0.0,0.0,0.0,0.0,0.0,0.0,0.0,0.0,0.0,0.0,0.0,0.0,0.0,-3.5547,-3.8984,-4.2399,0.0,-4.5751,-4.523,-4.4556,-4.1842,-3.8712,-3.5295,0.0,0.0,0.0,0.0,0.0,0.0,0.0,0.0,0.0,0.0,0.0,0.0,0.0,0.0,0.0,0.0,0.0,0.0,0.0,0.0,0.0,0.0,0.0,0.0,0.0,0.0,0.0,0.0,0.0,0.0,0.0,0.0,0.0,0.0,0.0,0.0,0.0,0.0,0.0,0.0,0.0,0.0,0.0,0.0,0.0,0.0,0.0,0.0,0.0,0.0,0.0,0.0,0.0,0.0,0.0,0.0,0.0,0.0,0.0,0.0,0.0,0.0,0.0,0.0,0.0,0.0,0.0,0.0,0.0,0.0,0.0,0.0,0.0,0.0,0.0,0.0,0.0,0.0,0.0,0.0,0.0,0.0,0.0,0.0,0.0,0.0,0.0,0.0,0.0,0.0,0.0,0.0,0.0,0.0,0.0,0.0,0.0,0.0,0.0,0.0,0.0,0.0,-3.5762,-4.0508,-4.4294,-4.592,-4.5267,-4.4637,-4.4485,-3.9714,-3.5995,0.0,0.0,0.0,0.0,0.0,0.0,0.0,0.0,0.0,0.0,0.0,0.0,0.0,0.0,0.0,0.0,0.0,0.0,0.0,0.0,0.0,0.0,0.0,0.0,0.0,0.0,0.0,0.0,0.0,0.0,0.0,0.0,0.0,0.0,0.0,0.0,0.0,0.0,0.0,0.0,0.0,0.0,0.0,0.0,0.0,0.0,0.0,0.0,0.0,0.0,0.0,0.0,0.0,0.0,0.0,0.0,0.0,0.0,0.0,0.0,0.0,0.0,0.0,0.0,0.0,0.0,0.0,0.0,0.0,0.0,0.0,0.0,0.0,0.0,0.0,0.0,0.0,0.0,0.0,0.0,0.0,0.0,0.0,0.0,0.0,0.0,0.0,0.0,0.0,0.0,0.0,0.0,0.0,0.0,0.0,0.0,0.0,0.0,0.0,0.0,0.0,0.0,0.0,-3.5703,-3.9961,-4.3437,-4.5133,-4.4985,-4.4276,-4.3043,-4.036,-3.7235,-3.3727,0.0,0.0,0.0,0.0,0.0,0.0,0.0,0.0,0.0,0.0,0.0,0.0,0.0,0.0,0.0,0.0,0.0,0.0,0.0,0.0,0.0,0.0,0.0,0.0,0.0,0.0,0.0,0.0,0.0,0.0,0.0,0.0,0.0,0.0,0.0,0.0,0.0,0.0,0.0,0.0,0.0,0.0,0.0,0.0,0.0,0.0,0.0,0.0,0.0,0.0,0.0,0.0,0.0,0.0,0.0,0.0,0.0,0.0,0.0,0.0,0.0,0.0,0.0,0.0,0.0,0.0,0.0,0.0,0.0,0.0,0.0,0.0,0.0,0.0,0.0,0.0,0.0,0.0,0.0,0.0,0.0,0.0,0.0,0.0,0.0,0.0,0.0,0.0,0.0,0.0,0.0,0.0,0.0,0.0,0.0,0.0,0.0,0.0,0.0,0.0,0.0,0.0,-3.5195,-3.9258,-4.2578,-4.4297,-4.4067,-4.3396,-4.2383,-4.0312,-3.7393,-3.3446,0.0,0.0,0.0,0.0,0.0,0.0,0.0,0.0,0.0,0.0,0.0,0.0,0.0,0.0,0.0,0.0,0.0,0.0,0.0,0.0,0.0,0.0,0.0,0.0,0.0,0.0,0.0,0.0,0.0,0.0,0.0,0.0,0.0,0.0,0.0,0.0,0.0,0.0,0.0,0.0,0.0,0.0,0.0,0.0,0.0,0.0,0.0,0.0,0.0,0.0,0.0,0.0,0.0,0.0,0.0,0.0,0.0,0.0,0.0,0.0,0.0,0.0,0.0,0.0,0.0,0.0,0.0,0.0,0.0,0.0,0.0,0.0,0.0,0.0,0.0,0.0,0.0,0.0,0.0,0.0,0.0,0.0,0.0,0.0,0.0,0.0,0.0,0.0,0.0,0.0,0.0,0.0,0.0,0.0,0.0,0.0,0.0,0.0,0.0,0.0,0.0,0.0,-3.4473,-3.8437,-4.1719,-4.3398,-4.2821,-4.2274,-4.2196,-3.9825,-3.6898,-3.3549,0.0,0.0,0.0,0.0,0.0,0.0,0.0,0.0,0.0,0.0,0.0,0.0,0.0,0.0,0.0,0.0,0.0,0.0,0.0,0.0,0.0,0.0,0.0,0.0,0.0,0.0,0.0,0.0,0.0,0.0,0.0,0.0,0.0,0.0,0.0,0.0,0.0,0.0,0.0,0.0,0.0,0.0,0.0,0.0,0.0,0.0,0.0,0.0,0.0,0.0,0.0,0.0,0.0,0.0,0.0,0.0,0.0,0.0,0.0,0.0,-3.4453,0.0,0.0,0.0,0.0,0.0,0.0,0.0,0.0,0.0,0.0,0.0,0.0,0.0,0.0,0.0,0.0,0.0,0.0,0.0,0.0,0.0,0.0,0.0,0.0,0.0,0.0,0.0,0.0,0.0,0.0,0.0,0.0,0.0,0.0,0.0,0.0,0.0,0.0,0.0,0.0,0.0,-3.4394,-3.791,-4.082,-4.25,-4.2499,-4.2127,-4.1483,-3.9644,-3.7357,-3.4564,-3.1467,0.0,0.0,0.0,0.0,0.0,0.0,0.0,0.0,0.0,0.0,0.0,0.0,0.0,0.0,0.0,0.0,0.0,0.0,0.0,0.0,0.0,0.0,0.0,0.0,0.0,0.0,0.0,0.0,0.0,0.0,0.0,0.0,0.0,0.0,0.0,0.0,0.0,0.0,0.0,0.0,0.0,0.0,0.0,0.0,0.0,0.0,0.0,0.0,0.0,0.0,0.0,0.0,0.0,0.0,0.0,0.0,0.0,0.0,0.0,0.0,-3.7012,0.0,0.0,0.0,0.0,0.0,0.0,0.0,0.0,0.0,0.0,0.0,0.0,0.0,0.0,0.0,0.0,0.0,0.0,0.0,0.0,0.0,0.0,0.0,0.0,0.0,0.0,0.0,0.0,0.0,0.0,0.0,0.0,0.0,0.0,0.0,0.0,0.0,0.0,0.0,0.0,-3.4375,-3.7383,-3.9922,-4.1641,-4.1816,-4.1641,-4.123,-3.9609,-3.7656,-3.5469,-3.2479,0.0,0.0,0.0,0.0,0.0,0.0,0.0,0.0,0.0,0.0,0.0,0.0,0.0,0.0,0.0,0.0,0.0,0.0,0.0,0.0,0.0,0.0,0.0,0.0,0.0,0.0,0.0,0.0,0.0,0.0,0.0,0.0,0.0,0.0,0.0,0.0,0.0,0.0,0.0,0.0,0.0,0.0,0.0,0.0,0.0,0.0,0.0,0.0,0.0,0.0,0.0,0.0,0.0,-4.4933,-4.5371,-4.56,-4.56,-4.5635,-4.5527,-4.2695,-4.1523,-4.1445,0.0,0.0,0.0,0.0,0.0,0.0,0.0,0.0,0.0,0.0,0.0,0.0,0.0,0.0,0.0,0.0,0.0,0.0,0.0,0.0,0.0,0.0,0.0,0.0,0.0,-3.7676,-3.7383,0.0,0.0,0.0,0.0,0.0,0.0,0.0,0.0,0.0,0.0,0.0,0.0,-3.4629,-3.7207,-3.9434,-4.1035,-4.1191,-4.1191,-4.1191,-3.9609,-3.793,-3.6328,-3.3828,-3.0996,0.0,0.0,0.0,0.0,0.0,0.0,0.0,0.0,0.0,0.0,0.0,0.0,0.0,0.0,0.0,0.0,0.0,0.0,0.0,0.0,0.0,0.0,0.0,0.0,0.0,0.0,0.0,0.0,0.0,0.0,0.0,0.0,-3.5942,-3.6173,0.0,0.0,0.0,0.0,0.0,0.0,0.0,0.0,0.0,0.0,0.0,0.0,0.0,-4.4699,-4.6216,-4.6512,-4.7103,-4.7994,-4.8207,-4.8336,-4.8378,-4.8378,-4.8379,-4.8359,-4.791,0.0,-4.3223,-4.1426,0.0,0.0,0.0,0.0,0.0,0.0,0.0,0.0,0.0,0.0,0.0,0.0,0.0,0.0,0.0,0.0,0.0,0.0,0.0,0.0,0.0,0.0,-4.1562,-4.1562,-4.1641,-4.1406,0.0,-3.5898,-3.2109,-3.1758,0.0,0.0,0.0,0.0,0.0,0.0,0.0,0.0,-3.5586,-3.8105,-4.0117,-4.1094,-4.1191,-4.1191,-4.1191,-3.9609,-3.8184,-3.7187,-3.4687,-3.2383,-3.0469,-2.8926,0.0,0.0,0.0,0.0,0.0,0.0,0.0,0.0,0.0,0.0,0.0,0.0,0.0,0.0,0.0,0.0,0.0,0.0,0.0,0.0,0.0,0.0,0.0,0.0,0.0,0.0,0.0,0.0,0.0,-3.543,-3.7777,-3.8719,-3.8834,-3.8527,0.0,0.0,0.0,0.0,0.0,0.0,0.0,0.0,0.0,-4.5855,-4.6786,-4.7866,-4.9109,-4.973,-5.028,-5.0731,-5.1351,-5.1693,-5.1758,-5.1269,-5.1035,-5.0976,-5.0039,-4.8769,-4.7148,-4.4453,-4.2305,-4.0605,0.0,0.0,0.0,0.0,-3.8848,-3.8984,-4.0527,-4.0742,0.0,0.0,0.0,0.0,0.0,0.0,0.0,0.0,0.0,0.0,0.0,0.0,0.0,-4.373,-4.3867,-4.3769,-4.3418,-4.0137,-3.668,0.0,-3.4101,-3.3164,-3.0742,0.0,0.0,0.0,0.0,0.0,-3.6504,-3.8594,-4.0234,-4.1113,-4.1191,-4.0996,-4.0508,-3.9316,-3.8223,-3.7363,-3.5312,-3.3574,-3.2363,-3.0664,-2.8711,0.0,0.0,0.0,0.0,0.0,0.0,0.0,0.0,0.0,0.0,0.0,0.0,0.0,0.0,0.0,0.0,0.0,0.0,0.0,0.0,0.0,0.0,0.0,0.0,0.0,0.0,0.0,0.0,-3.7969,-3.9835,-4.1304,-4.167,-4.1477,0.0,0.0,0.0,0.0,0.0,0.0,-4.4662,-4.6297,-4.7778,-4.9029,-4.996,-5.0844,-5.1721,-5.2229,-5.2665,-5.3013,-5.3559,-5.3867,-5.3984,-5.332,-5.291,-5.2637,-5.1387,-5.0605,-4.998,-4.7168,-4.4961,-4.3262,-4.2012,-4.0879,-4.0059,-4.1367,-4.1562,-4.1562,-4.4121,-4.457,-4.3867,-4.2832,0.0,-4.0059,-3.7461,0.0,0.0,0.0,0.0,-3.9961,-4.1719,-4.3105,-4.4258,-4.5137,-4.5332,-4.5273,-4.5058,-4.3516,-4.1211,0.0,-3.7305,-3.6289,-3.3086,0.0,0.0,0.0,0.0,-3.625,-3.7773,-3.9297,-4.0488,-4.1133,-4.0996,-4.0605,-3.9961,-3.8906,-3.7988,-3.7344,-3.5664,-3.4316,-3.3437,-3.1992,-3.0117,-2.7715,0.0,0.0,0.0,0.0,0.0,0.0,0.0,0.0,0.0,0.0,0.0,0.0,0.0,0.0,0.0,0.0,0.0,0.0,0.0,0.0,0.0,0.0,0.0,0.0,0.0,0.0,0.0,0.0,0.0,-4.4008,-4.4844,0.0,0.0,0.0,0.0,-4.5229,-4.6836,-4.8163,-4.9048,-5.0683,-5.1615,-5.1712,-5.2677,-5.3623,-5.4491,-5.3857,-5.4017,-5.4959,-5.4178,-5.3863,-5.4004,-5.3945,-5.3476,-5.2695,-5.2617,-5.168,-5.0117,-4.9121,-4.7676,-4.6094,-4.6016,-4.4941,-4.3457,-4.3535,-4.4062,-4.4766,-4.4941,-4.4961,-4.5058,-4.5801,-4.4336,-4.2246,-4.207,-4.0898,0.0,0.0,-4.1543,-4.2617,-4.4355,-4.4863,-4.5156,-4.6035,-4.623,-4.6016,-4.5176,-4.4902,-4.4043,0.0,-3.8965,-3.7226,-3.7012,0.0,-3.6074,-3.6855,-3.7793,-3.873,-3.9648,-4.0566,-4.1152,-4.1191,-4.0469,-3.9941,-3.9902,-3.834,-3.7344,-3.7305,-3.5664,-3.4316,-3.3437,-3.2598,-3.1289,-2.9492,-2.7793,0.0,0.0,0.0,0.0,0.0,0.0,0.0,0.0,0.0,0.0,0.0,0.0,0.0,0.0,0.0,0.0,0.0,0.0,0.0,0.0,0.0,0.0,0.0,0.0,0.0,0.0,0.0,0.0,-4.7355,-4.8346,0.0,-4.8461,-4.8422,-4.8557,-4.8865,-4.9913,-5.0923,-5.1798,-5.3433,-5.4607,-5.5164,-5.6056,-5.6704,-5.7004,-5.6283,-5.6142,-5.6567,-5.5835,-5.5542,-5.5644,-5.5098,-5.4668,-5.4316,-5.3183,-5.2363,-5.1738,-5.0879,-4.9512,-4.793,-4.7363,-4.6758,-4.6133,-4.5586,-4.5566,-4.584,-4.584,-4.584,-4.5801,-4.5547,-4.4824,-4.3965,-4.3418,-4.2812,-4.2539,-4.3398,-4.3848,-4.4355,-4.5527,-4.584,-4.5918,-4.623,-4.6308,-4.6211,-4.5898,-4.5391,-4.4726,-4.3828,-4.1992,-4.0234,-3.916,-3.8711,-3.8223,-3.7422,-3.8516,-3.9551,-3.9863,-4.0664,-4.1191,-4.1191,-4.043,-3.9668,-3.9101,-3.7988,-3.6816,-3.5703,-3.5039,-3.4316,-3.3437,-3.2637,-3.1387,-2.9629,-2.8437,-2.6543,0.0,0.0,0.0,0.0,0.0,0.0,0.0,0.0,0.0,0.0,0.0,0.0,0.0,0.0,0.0,0.0,0.0,0.0,0.0,0.0,0.0,0.0,0.0,0.0,0.0,0.0,-4.7509,-4.9202,-5.0933,-5.1856,-5.1568,-5.2049,-5.252,-5.2809,-5.3318,-5.4,-5.4876,-5.5972,-5.6838,-5.7415,-5.7992,-5.83,-5.83,-5.7824,-5.7484,-5.7334,-5.6937,-5.6665,-5.6518,-5.5976,-5.5586,-5.5234,-5.4082,-5.3242,-5.2656,-5.207,-5.1016,-4.9668,-4.8808,-4.8125,-4.7539,-4.6953,-4.6543,-4.6308,-4.6308,-4.6308,-4.6191,-4.5625,-4.5449,-4.5332,-4.4746,-4.457,-4.4707,-4.5273,-4.5449,-4.5566,-4.6152,-4.6308,-4.6308,-4.6308,-4.6308,-4.6308,-4.6308,-4.5859,-4.5449,-4.5449,-4.3789,-4.2051,-4.0937,-4.0527,-3.9941,-3.8789,-3.9609,-4.0332,-4.0332,-4.084,-4.1191,-4.1191,-4.0156,-3.9238,-3.8652,-3.7266,-3.6055,-3.5195,-3.4336,-3.3711,-3.3418,-3.2051,-3.0781,-2.9629,-2.8457,-2.6855,-2.4824,0.0,0.0,0.0,0.0,0.0,0.0,0.0,0.0,0.0,0.0,0.0,0.0,0.0,0.0,0.0,0.0,0.0,0.0,0.0,0.0,0.0,0.0,0.0,-4.4355,-4.7355,-4.951,-4.9586,-5.2529,-5.426,-5.3433,-5.4838,-5.6126,-5.6983,-5.7049,-5.7423,-5.83,-5.8338,-5.8357,-5.8377,-5.8377,-5.8377,-5.8377,-5.8357,-5.7977,-5.7232,-5.7347,-5.705,-5.6408,-5.6536,-5.6133,-5.5332,-5.5312,-5.4316,-5.2734,-5.2715,-5.2187,-5.1328,-5.0508,-4.918,-4.7676,-4.7617,-4.7051,-4.6308,-4.6308,-4.6308,-4.6308,-4.6308,-4.6308,-4.6308,-4.6308,-4.6308,-4.6308,-4.6308,-4.6308,-4.6308,-4.6308,-4.6308,-4.6308,-4.6308,-4.6308,-4.6308,-4.6308,-4.6308,-4.6308,-4.6308,-4.4238,-4.2461,-4.2441,-4.1758,-4.1191,-4.1191,-4.1191,0.0,-4.1191,-4.1191,-4.1191,-4.1191,-3.9668,-3.8633,-3.8594,-3.625,-3.5117,-3.5879,-3.3594,-3.2578,-3.332,-3.0996,-2.9668,-2.9648,-2.793,-2.6602,-2.5742,0.0,0.0,0.0,0.0,0.0,0.0,0.0,0.0,0.0,0.0,0.0,0.0,0.0,0.0,0.0,0.0,0.0,0.0,0.0,0.0,0.0,0.0,-4.774,-4.7971,-4.9856,-5.1895,-5.3741,-5.5367,-5.6472,-5.6857,-5.7319,-5.7684,-5.7915,-5.7934,-5.83,-5.9127,-5.9165,-5.9454,-6.0089,-6.0108,-6.0108,-6.0108,-5.9492,-5.8825,-5.8142,-5.754,-5.6894,-5.6251,-5.6386,-5.6317,-5.6064,-5.5439,-5.4578,-5.3593,-5.2854,-5.2098,-5.1328,-5.0508,-4.9902,-4.9336,-4.8066,-4.7051,-4.6308,-4.6308,-4.6308,-4.6308,-4.6308,-4.6308,-4.6308,-4.6308,-4.6308,-4.6308,-4.6308,-4.6308,-4.6308,-4.6308,-4.6308,-4.6308,-4.6308,-4.6308,-4.6308,-4.6308,-4.6308,-4.6308,-4.6308,-4.5215,-4.4082,-4.3457,-4.2148,-4.1191,-4.1191,-4.1191,0.0,-4.1191,-4.1191,-4.1191,-4.1191,-4.0215,-3.9297,-3.8652,-3.7363,-3.5879,-3.4219,-3.3457,-3.291,-3.2539,-3.1855,-3.1191,-3.0547,-2.8828,-2.7519,0.0,0.0,0.0,0.0,0.0,0.0,0.0,0.0,0.0,0.0,0.0,0.0,0.0,0.0,0.0,0.0,0.0,0.0,0.0,0.0,0.0,0.0,-4.8452,-5.0702,-5.1433,-5.2375,-5.3664,-5.5472,-5.678,-5.7877,-5.8723,-5.9127,-5.9358,-5.9358,-5.9358,-5.955,-6.0012,-6.0031,-6.0281,-6.0781,-6.08,-6.08,-6.08,-6.03,-5.9667,-5.8916,-5.811,-5.7354,-5.6622,-5.6402,-5.6317,0.0,-5.5786,-5.4902,-5.3791,-5.3269,-5.2368,0.0,0.0,0.0,0.0,0.0,-4.7051,-4.6308,-4.6308,-4.6308,-4.6308,-4.6308,-4.6308,-4.6308,-4.6308,-4.6308,-4.6308,-4.6308,-4.6308,-4.6308,-4.6308,-4.6308,-4.6308,-4.6308,-4.6308,-4.6308,-4.6308,-4.6308,-4.6308,-4.6308,0.0,0.0,-4.4336,-4.2832,-4.1699,-4.1699,-4.1426,-4.1191,-4.1191,-4.1191,-4.1191,-4.1191,-4.043,-3.9551,-3.8672,-3.7461,0.0,0.0,0.0,-3.2871,-3.1699,-3.166,0.0,0.0,0.0,0.0,0.0,0.0,0.0,0.0,-2.7988,-2.8104,0.0,0.0,0.0,0.0,0.0,0.0,0.0,0.0,0.0,0.0,0.0,0.0,0.0,0.0,0.0,0.0,-5.0731,-5.2914,-5.4549,-5.4876,-5.5184,-5.5915,-5.7434,-5.8761,-5.9569,-6.0339,-6.08,-6.08,-6.08,-6.08,-6.08,0.0,0.0,0.0,0.0,-6.08,-6.08,-6.08,-6.0358,-5.9492,-5.881,-5.8022,-5.7149,-5.6479,-5.6169,-5.6169,-5.6169,-5.5183,-5.3609,-5.3717,-5.2743,-5.1208,-5.1344,-5.0859,-4.9863,-4.832,-4.7129,0.0,-4.6308,0.0,0.0,-4.6308,-4.6308,-4.6308,-4.6308,-4.6308,-4.6308,-4.6308,-4.6308,-4.6308,-4.6308,-4.6308,-4.6308,-4.6308,-4.6308,-4.6308,-4.6308,-4.6308,-4.6308,-4.6308,-4.5683,-4.5156,-4.5156,-4.3691,-4.2519,-4.2402,-4.1797,-4.1308,-4.1211,-4.1191,-4.1191,-4.1191,0.0,0.0,-3.8828,-3.7246,-3.6211,-3.6016,-3.4453,-3.2871,-3.1387,-3.1328,-3.0957,-3.0195,-3.084,-3.1562,-3.2344,-3.3047,-3.3457,-3.3476,-3.0332,-3.0117,0.0,0.0,0.0,0.0,0.0,0.0,0.0,0.0,0.0,0.0,0.0,0.0,0.0,0.0,0.0,-5.1798,-5.376,-5.5318,-5.6368,-5.7126,-5.7627,-5.778,-5.8665,-5.9608,-6.0473,-6.0704,-6.08,-6.08,-6.08,-6.08,-6.08,-6.08,0.0,-6.08,-6.08,-6.08,-6.08,-6.08,-6.0358,-5.9492,0.0,0.0,-5.7011,-5.6289,-5.5959,-5.5959,-5.5959,-5.5055,-5.3593,-5.3514,-5.2572,-5.1208,-5.1344,-5.0488,-4.9101,-4.8769,-4.7656,-4.6308,-4.6308,-4.6308,-4.6308,-4.6308,-4.6308,-4.6308,-4.6308,-4.6308,0.0,-4.6308,-4.6308,-4.6308,-4.6308,-4.6308,-4.6308,-4.6308,-4.6308,-4.6308,-4.6308,-4.6308,-4.6308,-4.6308,-4.6152,-4.6055,-4.6055,-4.4609,-4.3203,-4.2519,-4.2266,-4.1933,-4.1289,-4.1191,-4.1191,-4.1191,-4.1055,-4.0605,-3.9726,-3.8691,-3.75,-3.6094,-3.5019,-3.4297,-3.3984,-3.3965,-3.3887,-3.3711,-3.3184,-3.3008,-3.3164,-3.332,-3.3769,-3.4414,-3.3047,-3.2654,0.0,0.0,0.0,0.0,0.0,0.0,0.0,0.0,0.0,0.0,0.0,-4.574,0.0,0.0,-5.2491,-5.4184,-5.5895,-5.7146,-5.7588,-5.8377,-5.8896,-5.8896,-5.9261,-5.9838,-6.0723,-6.08,-6.08,-6.08,-6.08,-6.08,-6.08,-6.08,-6.08,-6.08,-6.08,-6.08,-6.08,-6.08,-6.0569,-6.0146,-5.8896,-5.8069,-5.7618,-5.6367,-5.5808,-5.5808,-5.5808,-5.5137,-5.3979,-5.3108,-5.2129,-5.1163,-5.1227,-5.0549,-4.9492,-4.9062,-4.8066,-4.6894,-4.6445,-4.6308,-4.6308,-4.6308,-4.6308,-4.6308,-4.6308,-4.6308,-4.6308,-4.6308,-4.6308,-4.6308,-4.6308,-4.6308,-4.6308,-4.6308,-4.6308,-4.6308,-4.6308,-4.6308,-4.6308,-4.6308,-4.6308,-4.6308,-4.6308,-4.5586,-4.4551,-4.3242,-4.2676,-4.2109,-4.1308,-4.1191,-4.1191,-4.1191,-4.1191,-4.0859,-3.9961,-3.8691,-3.7383,-3.6074,-3.5586,-3.5156,-3.4726,-3.4707,-3.4492,-3.4062,-3.4043,-3.4043,-3.4043,-3.4492,-3.4922,-3.5332,-3.4902,-3.4687,0.0,0.0,0.0,0.0,0.0,0.0,0.0,0.0,-4.3662,-4.5883,-4.7663,-4.9519,-5.1731,-5.3568,-5.4991,-5.5818,-5.7396,-5.8531,-5.8531,-5.9242,-5.9742,-5.9742,-5.9742,-6.0031,-6.0723,-6.08,-6.08,-6.08,-6.08,-6.08,-6.08,-6.08,-6.08,-6.08,-6.08,-6.08,-6.08,-6.08,-6.08,-6.0781,-5.9108,-5.83,-5.8242,-5.6492,-5.5703,-5.5684,-5.5357,-5.4857,-5.4127,-5.2536,-5.1554,-5.1053,-5.1079,-5.081,-5.0247,-4.9235,-4.8318,-4.744,-4.6582,-4.6308,-4.6308,-4.6308,-4.6308,-4.6308,-4.6308,-4.6308,-4.6308,-4.6308,-4.6308,-4.6308,-4.6308,-4.6308,-4.6308,-4.6308,-4.6308,-4.6308,-4.6308,-4.6308,-4.6308,-4.6308,-4.6308,-4.6308,-4.6308,-4.6308,-4.5703,-4.3965,-4.3105,-4.2305,-4.1328,-4.1191,-4.1191,-4.1191,-4.1191,-4.0781,-3.9746,-3.8359,-3.7109,-3.6074,-3.5996,-3.5684,-3.498,-3.4941,-3.4629,-3.3926,-3.459,-3.4941,-3.4941,-3.5664,-3.5996,-3.5996,-3.6172,-3.625,-3.7615,-3.8269,-3.9185,-4.0008,-4.1373,-4.3143,0.0,0.0,-4.7702,-4.8759,-5.0317,-5.1788,-5.2856,-5.4434,-5.5838,-5.6714,-5.8261,-5.9377,-5.9377,-6.0108,-6.0646,-6.0646,-6.0646,-6.0685,-6.0781,-6.08,-6.08,-6.08,-6.08,-6.08,-6.08,-6.08,-6.08,-6.08,-6.08,-6.08,-6.08,-6.08,-6.08,-6.0781,-5.9108,-5.83,-5.8242,-5.6492,-5.5703,-5.5607,-5.4126,-5.3433,-5.3242,-5.1667,-5.1,-5.0939,-5.1042,-5.1069,-5.0813,-4.9293,-4.8164,-4.7311,-4.656,-4.6308,-4.6308,-4.6308,-4.6308,-4.6308,-4.6308,-4.6308,-4.6308,-4.6308,-4.6308,-4.6308,-4.6308,-4.6308,-4.6308,-4.6308,-4.6308,-4.6308,-4.6308,-4.6308,-4.6308,-4.6308,-4.6308,-4.6308,-4.6308,-4.6308,-4.5703,-4.3965,-4.3613,-4.2988,-4.1406,-4.1191,-4.1191,-4.1191,-4.1191,-4.0527,-3.8887,-3.8574,-3.7754,-3.6094,-3.5996,-3.5957,-3.5859,-3.5859,-3.5801,-3.5703,-3.5801,-3.5859,-3.5859,-3.5957,-3.5996,-3.6016,-3.6797,-3.7148,-4.1258,-4.1585,-4.195,-4.3778,-4.4778,-4.5855,-4.7894,-4.9009,-4.999,-5.1337,-5.2568,-5.3664,-5.4491,-5.6069,-5.7338,0.0,-5.9165,-6.0262,-6.0262,-6.0127,-6.0031,-6.0031,-5.9627,-5.9723,-6.0704,-6.08,-6.08,-6.08,-6.08,-6.08,-6.08,-6.08,-6.08,-6.08,-6.08,-6.08,-6.08,-6.08,-6.08,-6.0781,-5.9108,-5.83,-5.8242,-5.6492,-5.5703,-5.5665,-5.4953,-5.4107,-5.3155,-5.2502,-5.1661,-5.0791,-5.0844,-5.0883,-5.0739,-4.9727,-4.8834,-4.804,-4.7222,-4.6655,-4.6308,-4.6308,-4.6308,-4.6308,-4.6308,-4.6308,-4.6308,-4.6308,-4.6308,-4.6308,-4.6308,-4.6308,-4.6308,-4.6308,-4.6308,-4.6308,-4.6308,-4.6308,-4.6308,-4.6308,-4.6308,-4.6308,-4.6308,-4.6308,-4.5703,-4.3965,-4.3691,-4.3086,-4.1426,-4.1191,-4.1191,-4.1191,-4.1191,-4.0703,-3.9453,-3.8887,-3.8066,-3.6836,-3.6289,-3.5996,-3.5996,-3.5996,-3.5996,-3.5996,-3.5996,-3.5996,-3.5996,-3.5996,-3.6269,-3.6777,-3.7129,-3.7832,-4.3797,-4.422,-4.4586,-4.6442,-4.7259,-4.7913,-4.9125,-5.024,-5.1375,-5.2587,-5.353,-5.4395,-5.5222,-5.6588,-5.7742,-5.8223,-5.9492,-6.0531,-6.0762,-6.005,-5.9492,-5.9492,-5.88,-5.8858,-6.03,-6.0435,-6.0531,-6.0781,-6.08,-6.08,-6.08,-6.08,-6.08,-6.08,-6.08,-6.08,-6.08,-6.08,-6.08,-6.0781,-5.9108,-5.83,-5.8242,-5.6492,-5.5703,-5.5684,-5.5472,-5.4549,-5.3183,-5.2953,-5.1991,-5.0712,-5.0712,-5.0712,-5.0654,-5.0206,-4.9575,-4.8791,-4.7723,-4.7006,-4.6509,-4.6276,-4.6203,-4.6247,-4.6247,-4.6268,-4.6308,-4.6308,-4.6308,-4.6308,-4.6308,-4.6308,-4.6308,-4.6308,-4.6308,-4.6308,-4.6308,-4.6308,-4.6308,-4.6308,-4.6308,-4.6308,-4.6308,-4.6308,-4.5781,-4.4277,-4.3848,-4.3086,-4.1426,-4.1191,-4.1191,-4.1191,-4.1191,-4.0859,-3.9961,-3.9316,-3.8594,-3.7715,-3.6836,-3.6367,-3.6367,-3.6133,-3.5996,-3.5996,-3.5996,-3.6113,-3.6367,-3.6367,-3.6816,-3.7656,-3.791,-3.8691,-4.4278,-4.5528,-4.6788,-4.6885,-4.8125,-4.9336,-4.9394,-5.0683,-5.1885,-5.1923,-5.2635,-5.351,-5.4376,-5.5222,-5.6319,-5.803,-5.9011,-5.9838,-6.0685,-6.005,-5.9492,-5.9492,-5.88,-5.8627,0.0,-5.955,-5.9896,-6.0742,-6.08,-6.08,-6.08,-6.08,-6.08,-6.08,-6.08,-6.08,-6.08,-6.08,-6.08,-6.0781,-5.9108,-5.83,-5.8242,-5.6492,-5.5703,-5.5665,-5.4876,-5.403,-5.3126,-5.2288,-5.1452,-5.0712,-5.0712,-5.0712,-5.0693,-5.0683,-5.0212,-4.9341,-4.7757,-4.7183,-4.7032,-4.618,-4.5995,-4.611,-4.611,-4.62,-4.6308,-4.6308,-4.6308,-4.6308,-4.6308,-4.6308,-4.6308,-4.6308,-4.6308,-4.6308,-4.6308,-4.6308,-4.6308,-4.6308,-4.6308,-4.6308,-4.6308,-4.6308,-4.5996,-4.5098,-4.4238,-4.3086,-4.1426,-4.1191,-4.1191,-4.1191,-4.1191,-4.0859,-3.9961,-3.9883,-3.9492,-3.8613,-3.7734,-3.7266,-3.7266,-3.6445,-3.5996,-3.5996,-3.5996,-3.6426,-3.7266,-3.7266,-3.7715,-3.8574,-3.9434,-3.9844,-4.5566,-4.6451,-4.7182,-4.8279,-4.8971,-4.9683,-5.0818,-5.15,-5.2058,-5.2635,-5.2538,-5.2596,-5.3491,-5.4337,-5.5453,-5.7146,-5.8607,-5.98,-6.0685,-6.005,-5.93,-5.8781,-5.8473,0.0,0.0,0.0,0.0,-6.0685,-6.0262,-6.0185,-6.0762,-6.08,-6.08,-6.08,-6.08,-6.08,-6.08,-6.08,-6.08,-6.0781,-5.9108,-5.7684,-5.6549,-5.5972,-5.5703,-5.5684,-5.5415,-5.4491,-5.3183,-5.2876,-5.1952,-5.0712,-5.0712,-5.0712,-5.0712,-5.0712,-5.0182,-4.9326,-4.8288,-4.7603,-4.7062,-4.6171,-4.5924,-4.5974,-4.5974,-4.5995,-4.6036,-4.6036,-4.6108,-4.6173,-4.6173,-4.6226,-4.6308,-4.6308,-4.6308,-4.6308,-4.6308,-4.6308,-4.6308,-4.6308,-4.6308,-4.6308,-4.6308,-4.6308,-4.5801,-4.4355,-4.3398,-4.2441,-4.1348,-4.1191,-4.1191,-4.1191,-4.1191,-4.1074,-4.0781,-4.0234,-3.9766,-3.9473,-3.8633,-3.8164,-3.8164,-3.7871,-3.7734,-3.7734,-3.7734,-3.7871,-3.8164,-3.8164,-3.8613,-3.9473,-3.9766,-4.0215,-4.6817,-4.7778,-4.8586,-4.9952,-5.0298,-5.0587,-5.1654,-5.1442,-5.1183,-5.1741,-5.1144,-5.0808,-5.1683,-5.2299,-5.351,-5.6118,-5.7434,-5.8761,-6.055,-6.005,-5.9319,-5.88,-5.8492,-5.8415,0.0,0.0,0.0,-6.0666,-6.0281,-6.0204,-6.0762,-6.08,-6.08,-6.08,-6.08,-6.08,-6.08,-6.08,-6.0492,-5.9896,-5.8819,-5.7396,-5.5703,-5.5703,-5.5703,-5.5703,-5.5703,-5.4934,-5.3645,-5.3337,-5.2375,-5.1106,-5.0808,-5.0712,-5.0712,-5.0712,-5.0144,-4.9278,-4.8494,-4.7736,-4.6945,-4.6078,-4.5828,-4.5852,-4.5852,-4.5886,-4.5899,-4.5899,-4.5971,-4.6033,-4.6033,-4.612,-4.6225,-4.6225,-4.6268,-4.6308,-4.6308,-4.6308,-4.6308,-4.6308,-4.6308,-4.6308,-4.6308,-4.6308,-4.5801,-4.4375,-4.3418,-4.2461,-4.1348,-4.1191,-4.1191,-4.1191,-4.1191,-4.1191,-4.1191,-4.0684,-4.0351,-4.0351,-3.9551,-3.9062,-3.9062,-3.8769,-3.8594,-3.8594,-3.8594,-3.875,-3.9062,-3.9062,-3.9512,-4.0351,-4.0351,-4.0664,-4.799,-4.9471,-5.0952,-5.175,-5.1923,-5.1885,-5.1846,-5.0567,-4.9394,-4.9336,-4.8644,-4.8298,0.0,0.0,-5.076,-5.4953,-5.5703,-5.6934,-6.0319,-6.0089,-5.955,0.0,0.0,0.0,0.0,0.0,0.0,-6.0685,0.0,-6.0742,-6.08,-6.08,-6.08,-6.08,-6.08,-6.08,-6.08,-6.08,-5.9954,-5.83,-5.83,-5.7396,-5.5703,-5.5703,-5.5703,-5.5703,-5.5703,-5.5222,-5.4376,-5.3549,-5.2664,-5.175,-5.0991,-5.0712,-5.0693,-5.0654,-5.0067,-4.9202,-4.8336,-4.7548,-4.6759,-4.5874,-4.5696,-4.579,-4.579,-4.5836,-4.5881,-4.5881,-4.5885,-4.589,-4.589,-4.5988,-4.6084,-4.6084,-4.6198,-4.6289,-4.6289,-4.6289,-4.6289,-4.6289,-4.6308,-4.6308,-4.6308,-4.6308,-4.5996,-4.5137,-4.4258,-4.3105,-4.1465,-4.123,-4.1191,-4.1191,-4.1191,-4.1191,-4.1191,-4.1191,-4.1191,-4.1191,-4.043,-3.9961,-3.9961,-3.918,-3.873,-3.873,-3.873,-3.9141,-3.9961,-3.9961,-4.0391,-4.1191,-4.1191,-4.1191,-4.9471,-5.0798,-5.1798,-5.2664,-5.2385,-5.1731,-5.1144,-5.0164,-4.9221,-4.8567,-4.7778,-4.7471,0.0,0.0,0.0,-5.4222,-5.5838,0.0,-6.0416,-6.0608,0.0,-5.9588,0.0,-5.9992,-5.955,-5.9896,0.0,0.0,-6.0204,-6.0108,-6.0762,-6.08,-6.08,-6.08,-6.08,-6.08,-6.08,-6.08,-5.9954,-5.83,-5.83,-5.7396,-5.5703,-5.5703,-5.5703,-5.5703,-5.5703,-5.4876,-5.351,-5.3299,-5.2337,-5.0991,-5.0789,-5.0712,-5.0616,-4.9971,-4.9183,-4.8317,-4.749,-4.7058,-4.6759,-4.5874,-4.561,-4.566,-4.566,-4.5661,-4.5681,-4.5681,-4.5743,-4.5826,-4.5826,-4.5891,-4.5944,-4.5944,-4.5981,-4.5998,-4.5998,-4.608,-4.6147,-4.6147,-4.6225,-4.6308,-4.6308,-4.6308,-4.5996,-4.5137,-4.4258,-4.3301,-4.2226,-4.1562,-4.1191,-4.1191,-4.1191,-4.1191,-4.1191,-4.1191,-4.1191,-4.1191,-4.0996,-4.0879,-4.0879,-4.0664,-4.0547,-4.0547,-4.0547,-4.0644,-4.0879,-4.0879,-4.0976,-4.1191,-4.1191,-4.1191,-5.0308,-5.1856,-5.3068,-5.3164,-5.2837,-5.2164,-5.0971,-4.9721,-4.8471,-4.7259,-4.6644,-4.624,-4.597,-4.7221,0.0,0.0,0.0,0.0,-5.9819,-6.055,-6.0608,0.0,-6.0492,0.0,-6.0127,-6.0512,-6.08,0.0,-6.0339,-6.0281,-6.0762,-6.08,-6.08,-6.08,-6.08,-6.08,-6.08,-6.0416,-5.9588,-5.83,-5.7915,-5.7011,-5.5703,-5.5703,-5.5703,-5.5703,0.0,-5.4972,-5.3741,-5.3356,-5.2414,-5.1183,-5.0846,-5.0712,-5.0635,-5.0144,-4.9183,-4.8048,-4.7586,-4.6951,-4.624,-4.5768,-4.5594,-4.5594,-4.5594,-4.5594,-4.5594,-4.5594,-4.5648,-4.5715,-4.5715,-4.5777,-4.5855,-4.5855,-4.5881,-4.5899,-4.5899,-4.5967,-4.6005,-4.6005,-4.6117,-4.6203,-4.6203,-4.6268,-4.6133,-4.5644,-4.4824,-4.3965,-4.3086,-4.1933,-4.1191,-4.1191,-4.1191,-4.1191,-4.1191,-4.1191,-4.1191,-4.1191,-4.1191,-4.1191,-4.1191,-4.1191,-4.1191,-4.1191,-4.1191,-4.1191,-4.1191,-4.1191,-4.1191,-4.1191,-4.1191,-4.1191,-5.0943,-5.2645,-5.4164,-5.353,-5.3203,-5.2587,-5.0914,-4.9106,-4.7317,-4.5748,-4.5344,-4.4825,-4.3374,-4.5086,-4.7605,-5.0269,0.0,-5.553,-5.9011,-6.0146,-6.0666,-6.0781,-6.08,-6.08,-6.08,-6.08,-6.08,-6.08,-6.08,-6.08,-6.08,-6.08,-6.08,-6.08,-6.08,-6.08,-6.08,-5.9935,-5.9108,-5.83,-5.7415,-5.6541,-5.5703,-5.5703,-5.5703,-5.5703,0.0,0.0,-5.426,-5.351,-5.2626,-5.1673,-5.0971,-5.0712,-5.0693,-5.0577,-4.949,-4.8086,-4.799,-4.6913,-4.5594,-4.5594,-4.5594,-4.5594,-4.5594,-4.5594,-4.5594,-4.5594,-4.5594,-4.5594,-4.5594,-4.5696,-4.5763,-4.5763,-4.5819,-4.5852,-4.5852,-4.5867,-4.5881,-4.5899,-4.5992,-4.608,-4.6108,-4.6199,-4.6289,-4.6308,-4.5547,-4.4667,-4.3808,-4.2324,-4.1328,-4.1211,-4.1191,-4.1191,-4.1191,-4.1191,-4.1191,-4.1191,-4.1191,-4.1191,-4.1191,-4.1191,-4.1191,-4.1191,-4.1191,-4.1191,-4.1191,-4.1191,-4.1191,-4.1191,-4.1191,-4.1191,-5.2183,-5.3087,-5.3568,-5.4126,-5.3203,-5.1692,-5.001,-4.7759,0.0,-4.472,-4.3989,-4.3431,-4.3143,-4.4586,-4.6903,-5.0173,-5.2222,-5.4857,-5.8934,-5.9627,-5.9992,0.0,-6.08,-6.08,0.0,0.0,0.0,0.0,0.0,-6.08,-6.08,-6.08,-6.08,-6.08,-6.08,-6.08,-6.08,-5.9935,-5.9108,-5.83,-5.7415,-5.6541,-5.5703,-5.5703,-5.5703,-5.5703,0.0,0.0,-5.3414,-5.326,-5.2299,-5.0894,-5.075,-5.0712,-5.0616,-4.9894,-4.8971,-4.8009,-4.7336,-4.6451,-4.5594,-4.5594,-4.5594,-4.5594,-4.5594,-4.5594,-4.5594,-4.5594,-4.5594,-4.5594,-4.5594,-4.562,-4.5635,-4.5635,-4.564,-4.5653,-4.5653,-4.5742,-4.5825,-4.5881,-4.5916,-4.5974,-4.608,-4.6117,-4.6174,-4.6289,-4.5459,-4.4541,-4.3725,-4.2789,-4.1933,-4.1269,-4.1191,-4.1191,-4.1191,-4.1191,-4.1191,-4.1191,-4.1191,-4.1191,-4.1191,-4.1191,-4.1191,-4.1191,-4.1191,-4.1191,-4.1191,-4.1191,-4.1191,-4.1191,-4.1191,-4.1191,-5.2626,-5.353,-5.3876,-5.3837,-5.2856,-5.1231,-4.8682,0.0,0.0,-4.3355,-4.3047,-4.2816,-4.1912,-4.3863,-4.6133,-4.7788,-5.0202,-5.3222,-5.6992,-5.7915,0.0,-6.0589,-6.08,0.0,0.0,0.0,0.0,0.0,0.0,-6.08,-6.08,-6.08,-6.08,-6.08,-6.08,-6.08,-6.08,-5.9511,-5.8684,-5.828,-5.6953,-5.6088,-5.5703,-5.5703,-5.5703,-5.5703,-5.5703,0.0,-5.3203,-5.3203,-5.2202,-5.0712,-5.0712,-5.0712,-5.0654,-5.0231,-4.924,-4.8048,-4.7663,-4.6682,-4.5594,-4.5594,-4.5594,-4.5594,-4.5594,-4.5594,-4.5594,-4.5594,-4.5594,-4.5594,-4.5594,-4.5594,-4.5594,-4.5594,-4.5594,-4.5594,-4.5594,-4.566,-4.5703,-4.5731,-4.5801,-4.588,-4.5924,-4.5959,-4.6027,-4.6082,-4.5685,-4.5076,-4.4277,-4.3431,-4.2446,-4.1238,-4.1102,-4.1127,-4.1191,-4.1191,-4.1191,-4.1191,-4.1191,-4.1191,-4.1191,-4.1191,-4.1191,-4.1191,-4.1191,-4.1191,-4.1191,-4.1191,-4.1191,-4.1191,-4.1191,-4.1191,-5.226,-5.3299,-5.378,-5.3087,-5.2135,-5.0577,-4.7577,-4.5951,0.0,-4.2258,-4.22,-4.2124,-4.0746,-4.2843,-4.496,0.0,-4.8018,-5.1183,-5.4914,-5.6175,-5.7676,0.0,0.0,0.0,0.0,0.0,0.0,0.0,0.0,0.0,-6.08,-6.08,-6.08,-6.08,-6.08,-6.08,-6.08,-5.9146,-5.83,-5.828,-5.653,-5.5703,-5.5703,-5.5703,-5.5703,-5.5703,-5.5703,0.0,0.0,-5.3203,-5.2202,-5.0712,-5.0712,-5.0712,-5.0712,-5.0712,-4.9606,-4.8105,-4.8105,-4.699,-4.5594,-4.5594,-4.5594,-4.5594,-4.5594,-4.5594,-4.5594,-4.5594,-4.5594,-4.5594,-4.5594,-4.5594,-4.5594,-4.5594,-4.5594,-4.5594,-4.5594,-4.5594,-4.5594,-4.5594,-4.5696,-4.5775,-4.5796,-4.5847,-4.5872,-4.5894,-4.5896,-4.5585,-4.4764,-4.3889,-4.279,-4.1373,-4.1098,-4.1054,-4.1191,-4.1191,-4.1191,-4.1191,-4.1191,-4.1191,-4.1191,-4.1191,-4.1191,-4.1191,-4.1191,-4.1191,-4.1191,-4.1191,-4.1191,-4.1191,-4.1191,-4.1191,-5.0673,-5.1529,-5.2115,-5.2038,-5.0818,-4.9144,-4.7317,0.0,-4.3047,-4.2,-4.1219,-4.0689,-4.0535,-4.1393,-4.2912,-4.5229,-4.6528,-4.8971,-5.3914,-5.5299,-5.6761,0.0,0.0,0.0,0.0,0.0,0.0,0.0,0.0,0.0,0.0,-6.08,-6.08,-6.08,-6.08,-6.08,-6.08,-5.9146,-5.83,-5.828,-5.653,-5.5703,-5.5703,-5.5703,-5.5703,-5.5703,0.0,0.0,0.0,-5.3203,-5.2202,-5.0712,-5.0712,-5.0712,-5.0712,-5.0712,-4.9606,-4.8105,-4.8105,-4.699,-4.5594,-4.5594,-4.5594,-4.5594,-4.5594,-4.5594,-4.5594,-4.5594,-4.5594,-4.5594,-4.5594,-4.5594,-4.5594,-4.5594,-4.5594,-4.5594,-4.5594,-4.5594,-4.5594,-4.5594,-4.5612,-4.5668,-4.5769,-4.5816,-4.5832,-4.5885,-4.5859,-4.5493,-4.4627,-4.3706,-4.2814,-4.1999,-4.1363,-4.1054,-4.1191,-4.1191,-4.1191,-4.1191,-4.1191,-4.1191,-4.1191,-4.1191,-4.1191,-4.1191,-4.1191,-4.1191,-4.1191,-4.1191,-4.1191,-4.1191,-4.1191,-4.1191,-5.0192,-5.1298,-5.1769,-5.1298,-5.0279,-4.8682,-4.5951,-4.4182,-4.2701,-4.1316,-4.0746,-4.0496,-4.0496,-4.12,-4.2297,-4.3855,-4.4797,-4.6759,-5.0856,-5.2164,0.0,0.0,0.0,0.0,0.0,0.0,0.0,0.0,0.0,0.0,0.0,-6.08,-6.08,-6.08,-6.08,-6.08,-6.08,-5.9146,-5.83,-5.828,-5.653,-5.5703,-5.5703,-5.5703,-5.5703,-5.5703,0.0,0.0,0.0,-5.3203,-5.2202,-5.0712,-5.0712,-5.0712,-5.0712,-5.0712,-4.9606,-4.8105,-4.8105,-4.699,-4.5594,-4.5594,-4.5594,-4.5594,-4.5594,-4.5594,-4.5594,-4.5594,-4.5594,-4.5594,-4.5594,-4.5594,-4.5594,-4.5594,-4.5594,-4.5594,-4.5594,-4.5594,-4.5594,-4.5594,-4.5594,-4.562,-4.5673,-4.5688,-4.5692,-4.5715,-4.5696,-4.5553,-4.5206,-4.3951,-4.3011,-4.2744,-4.1577,-4.0893,-4.1055,-4.108,-4.1106,-4.1191,-4.1191,-4.1191,-4.1191,-4.1191,-4.1191,-4.1191,-4.1191,-4.1191,-4.1191,-4.1191,-4.1191,-4.1191,-4.1191,-4.1191,-4.9009,-5.0164,-5.0635,-5.0067,-4.9279,-4.7894,-4.497,-4.3682,-4.2604,-4.0862,-4.0496,-4.0496,-4.0496,-4.0989,-4.1797,-4.2912,-4.3585,-4.522,-4.8894,-5.0144,0.0,0.0,0.0,0.0,0.0,0.0,0.0,0.0,0.0,0.0,0.0,-6.08,-6.08,-6.08,-6.08,-6.0685,-6.0416,-5.9011,-5.8165,-5.7896,-5.6415,-5.5703,-5.5703,-5.5703,-5.5703,-5.5684,0.0,0.0,0.0,-5.2933,-5.1972,-5.0712,-5.0712,-5.0712,-5.0712,-5.0712,-4.9606,-4.8105,-4.8105,-4.699,-4.5594,-4.5594,-4.5594,-4.5594,-4.5594,-4.5594,-4.5594,-4.5594,-4.5594,-4.5594,-4.5594,-4.5594,-4.5594,-4.5594,-4.5594,-4.5594,-4.5594,-4.5594,-4.5594,-4.5594,-4.5594,-4.5594,-4.5594,-4.5594,-4.5594,-4.5594,-4.5594,-4.5594,-4.5594,-4.4143,-4.3123,-4.318,-4.1648,-4.0715,-4.0917,-4.095,-4.0988,-4.1078,-4.1126,-4.1149,-4.1149,-4.1171,-4.1191,-4.1191,-4.1191,-4.1191,-4.1191,-4.1191,-4.1191,-4.1191,-4.1191,-4.1191,-4.6701,-4.7528,-4.8144,-4.8125,-4.7528,-4.6471,-4.4701,-4.3682,-4.2604,-4.0862,-4.0496,-4.0496,-4.0496,-4.0516,-4.1073,-4.2816,-4.3104,-4.4586,-4.8817,-5.0144,0.0,0.0,0.0,0.0,0.0,0.0,0.0,0.0,0.0,0.0,0.0,-6.08,-6.08,-6.08,-6.08,-6.0396,-5.9511,-5.8704,-5.7877,-5.7003,-5.6107,-5.5703,-5.5703,-5.5703,-5.5703,0.0,0.0,0.0,0.0,-5.2269,-5.1433,-5.0712,-5.0712,-5.0712,-5.0712,-5.0712,-4.9606,-4.8105,-4.8105,-4.699,-4.5594,-4.5594,-4.5594,-4.5594,-4.5594,-4.5594,-4.5594,-4.5594,-4.5594,-4.5594,-4.5594,-4.5594,-4.5594,-4.5594,-4.5594,-4.5594,-4.5594,-4.5594,-4.5594,-4.5594,-4.5594,-4.5594,-4.5594,-4.5594,-4.5594,-4.5594,-4.5594,-4.5594,-4.5594,-4.4143,-4.3104,-4.3104,-4.1535,-4.0578,-4.0781,-4.0801,-4.0801,-4.0801,-4.0922,-4.0996,-4.0996,-4.1128,-4.1191,-4.1191,-4.1191,-4.1191,-4.1191,-4.1191,-4.1191,-4.1191,-4.1191,-4.1191,-4.4893,-4.6182,-4.699,-4.5797,-4.5316,-4.4682,-4.2989,-4.2393,-4.1893,-4.0746,-4.0496,-4.0496,-4.0496,-4.0496,-4.1247,-4.3547,-4.3912,-4.5009,0.0,0.0,0.0,0.0,0.0,0.0,0.0,0.0,0.0,0.0,0.0,0.0,0.0,-6.0242,-6.0185,-6.0781,-6.0223,-5.9781,-5.9492,-5.8107,-5.7272,-5.6983,-5.6107,-5.5703,-5.5703,-5.5703,0.0,0.0,0.0,0.0,0.0,-5.2,-5.1433,-5.0712,-5.0712,-5.0712,-5.0712,-5.0712,-4.9971,-4.8894,-4.8317,-4.7394,-4.6394,-4.5787,-4.5594,-4.5594,-4.5594,-4.5594,-4.5594,-4.5594,-4.5594,-4.5594,-4.5594,-4.5594,-4.5594,-4.5594,-4.5594,-4.5594,-4.5594,-4.5594,-4.5594,-4.5594,-4.5594,-4.5594,-4.5594,-4.5594,-4.5594,-4.5594,-4.5594,-4.5594,-4.5594,-4.4624,-4.3701,-4.3162,-4.2066,-4.121,-4.0773,-4.0731,-4.0752,-4.0793,-4.0847,-4.0908,-4.0994,-4.1049,-4.1104,-4.1191,-4.1191,-4.1191,-4.1191,-4.1191,-4.1191,-4.1191,-4.1191,-4.1191,-4.297,-4.4393,-4.522,-4.4124,-4.3855,-4.3489,-4.2115,-4.1788,-4.1546,-4.0689,-4.0496,-4.0496,-4.0496,-4.0496,-4.1227,-4.347,-4.3855,0.0,0.0,0.0,0.0,0.0,0.0,0.0,0.0,0.0,0.0,0.0,0.0,0.0,0.0,0.0,-5.93,-5.9838,-5.9338,-5.8896,-5.855,-5.7522,-5.683,-5.6503,-5.5953,-5.5703,-5.5684,-5.5395,0.0,0.0,0.0,0.0,0.0,-5.1568,-5.1144,-5.0712,-5.0712,-5.0712,-5.0712,-5.0712,-5.0144,-4.9279,-4.8394,-4.7567,-4.6759,-4.5874,-4.5594,-4.5594,-4.5594,-4.5594,-4.5594,-4.5594,-4.5594,-4.5594,-4.5594,-4.5594,-4.5594,-4.5594,-4.5594,-4.5594,-4.5594,-4.5594,-4.5594,-4.5594,-4.5594,-4.5594,-4.5594,-4.5594,-4.5594,-4.5594,-4.5594,-4.5594,-4.5594,-4.4836,-4.3989,-4.3181,-4.2316,-4.1478,-4.0694,-4.063,-4.0636,-4.0676,-4.0728,-4.0807,-4.0873,-4.0905,-4.099,-4.1126,-4.1127,-4.115,-4.1191,-4.1191,-4.1191,-4.1191,-4.1191,-4.1191,0.0,-4.2124,-4.2816,-4.2758,-4.2739,-4.2527,-4.1712,-4.1519,0.0,-4.0573,-4.0419,-4.0458,-4.0573,-4.0593,-4.1189,-4.2989,-4.3278,0.0,0.0,0.0,0.0,0.0,0.0,0.0,0.0,0.0,0.0,0.0,0.0,0.0,0.0,0.0,-5.8204,-5.8204,-5.8146,-5.7761,-5.7003,-5.6945,-5.6503,-5.5703,-5.5703,-5.5665,-5.5588,-5.4838,0.0,0.0,0.0,0.0,0.0,-5.101,-5.0712,-5.0712,-5.0712,-5.0712,-5.0712,-5.0712,-5.0192,-4.9356,-4.8413,-4.7605,-4.6836,-4.5893,-4.5594,-4.5594,-4.5594,-4.5594,-4.5594,-4.5594,-4.5594,-4.5594,-4.5594,-4.5594,-4.5594,-4.5594,-4.5594,-4.5594,-4.5594,-4.5594,-4.5594,-4.5594,-4.5594,-4.5594,-4.5594,-4.5594,-4.5594,-4.5594,-4.5594,-4.5594,-4.5594,-4.4836,-4.3989,-4.3181,-4.2316,-4.145,-4.0573,-4.0496,-4.0496,-4.0496,-4.0616,-4.0686,-4.0697,-4.0767,-4.0854,-4.0988,-4.099,-4.1052,-4.1191,-4.1191,-4.1191,-4.1191,-4.1191,-4.1191,-3.7731,0.0,-4.0027,-3.9373,-3.92,-3.9142,0.0,-3.8892,-3.9027,-3.9496,-3.9573,-3.9977,-4.1258,-4.1489,-4.2277,-4.4633,0.0,0.0,0.0,0.0,0.0,0.0,0.0,0.0,0.0,0.0,0.0,0.0,0.0,0.0,0.0,0.0,-5.7311,-5.7311,-5.6665,-5.653,-5.7003,-5.6349,-5.5895,-5.5703,-5.5703,-5.5376,-5.478,-5.4587,0.0,0.0,0.0,0.0,-5.0971,-5.0789,-5.0712,-5.0712,-5.0712,-5.0712,-5.0712,-5.0712,-5.0577,-5.0164,-4.8625,-4.799,-4.7567,-4.6075,-4.5594,-4.5594,-4.5594,-4.5594,-4.5594,-4.5594,-4.5594,-4.5594,-4.5594,-4.5594,-4.5594,-4.5594,-4.5594,-4.5594,-4.5594,-4.5594,-4.5594,-4.5594,-4.5594,-4.5594,-4.5594,-4.5594,-4.5594,-4.5594,-4.5594,-4.5594,-4.5594,-4.4836,-4.3989,-4.3181,-4.2316,-4.145,-4.0573,-4.0496,-4.0496,-4.0496,-4.0542,-4.0589,-4.0692,-4.0713,-4.0757,-4.085,-4.0854,-4.0914,-4.1051,-4.1051,-4.1103,-4.1191,-4.1191,-4.1191,-3.6154,-3.7969,-3.9746,-3.9258,-3.9142,-3.9142,-3.9142,-3.8546,-3.8123,-3.8604,-3.9015,-3.9688,-4.0969,-4.1527,-4.2508,0.0,-4.5344,0.0,0.0,0.0,0.0,0.0,0.0,0.0,0.0,0.0,0.0,0.0,0.0,0.0,0.0,0.0,-5.6406,-5.6406,-5.5953,-5.5934,-5.6406,-5.5934,-5.5703,-5.5703,-5.5318,-5.4914,-5.4472,-5.3664,0.0,0.0,0.0,0.0,-5.0712,-5.0712,-5.0712,-5.0712,-5.0712,-5.0712,-5.0712,-5.0712,-5.0462,-4.9913,-4.8567,-4.7605,-4.6797,-4.5902,-4.5594,-4.5594,-4.5594,-4.5594,-4.5594,-4.5594,-4.5594,-4.5594,-4.5594,-4.5594,-4.5594,-4.5594,-4.5594,-4.5594,-4.5594,-4.5594,-4.5594,-4.5594,-4.5594,-4.5594,-4.5594,-4.5594,-4.5594,-4.5594,-4.5594,-4.5594,-4.5594,-4.519,-4.4586,-4.3739,-4.3239,-4.2604,-4.1758,-4.1681,-4.1362,-4.0554,-4.0873,-4.1131,-4.1195,-4.1201,-4.1067,-4.0752,-4.0773,-4.0847,-4.0911,-4.0964,-4.1048,-4.1105,-4.1171,-4.1191,-3.5808,-3.8142,-4.0419,-4.0015,-4.0131,-4.0285,-4.015,-3.9008,-3.8046,-3.8161,-3.8796,-3.9631,-4.0708,-4.1508,0.0,0.0,0.0,0.0,0.0,0.0,0.0,0.0,0.0,0.0,0.0,0.0,0.0,0.0,0.0,0.0,0.0,0.0,0.0,-5.5703,-5.5703,-5.5703,-5.5703,-5.5703,-5.5703,-5.5684,-5.4876,-5.4434,-5.4241,-5.2635,-5.1827,0.0,0.0,0.0,-5.0712,-5.0712,-5.0712,-5.0712,-5.0712,-5.0712,-5.0693,-5.0558,-5.0029,-4.926,-4.8259,-4.6894,-4.5594,-4.5594,-4.5594,-4.5594,-4.5594,-4.5594,-4.5594,-4.5594,-4.5594,-4.5594,-4.5594,-4.5594,-4.5594,-4.5594,-4.5594,-4.5594,-4.5594,-4.5594,-4.5594,-4.5594,-4.5594,-4.5594,-4.5594,-4.5594,-4.5594,-4.5594,-4.5594,-4.5594,-4.5594,-4.5479,-4.5133,-4.4374,-4.4182,-4.3835,-4.3162,-4.3104,-4.247,-4.0997,-4.1585,-4.2,-4.2,-4.2,-4.1701,-4.1081,-4.0999,-4.0969,-4.0987,-4.0955,-4.0955,-4.0964,-4.1104,-4.1171,-3.7238,-3.9027,-3.9977,-3.7815,-3.8392,-3.9284,-3.8546,-3.818,-3.82,-3.8957,-3.9207,-3.9996,-4.2277,-4.2816,-4.3701,0.0,0.0,0.0,0.0,0.0,0.0,0.0,0.0,0.0,0.0,0.0,0.0,0.0,0.0,0.0,0.0,0.0,0.0,-5.5703,-5.5703,-5.5703,-5.5703,-5.5703,-5.5703,-5.5684,-5.4876,-5.4107,-5.3376,-5.2365,-5.1529,0.0,0.0,-5.0712,-5.0712,-5.0712,-5.0712,-5.0712,-5.0712,-5.0712,-5.0616,-4.9875,-4.951,-4.9183,-4.7625,-4.6432,-4.5594,-4.5594,-4.5594,-4.5594,-4.5594,-4.5594,-4.5594,-4.5594,-4.5594,-4.5594,-4.5594,-4.5594,-4.5594,-4.5594,-4.5594,-4.5594,-4.5594,-4.5594,-4.5594,-4.5594,-4.5594,-4.5594,-4.5594,-4.5594,-4.5594,-4.5594,-4.5594,-4.5594,-4.5594,-4.496,-4.4451,-4.4316,-4.3682,-4.3239,-4.3104,-4.3104,-4.2989,-4.272,-4.2835,-4.2893,-4.2893,-4.2893,-4.2852,-4.273,-4.2021,-4.1691,-4.1817,-4.1103,-4.0786,-4.0824,-4.0962,-4.1026,-3.6442,-3.8219,-3.9573,-3.8392,-3.9738,-4.1239,-4.0854,-4.0027,-3.9457,-3.9881,-4.0315,-4.1143,0.0,0.0,-4.4739,-4.7759,0.0,0.0,0.0,0.0,0.0,0.0,0.0,0.0,0.0,0.0,0.0,0.0,0.0,0.0,0.0,0.0,0.0,0.0,-5.5703,-5.5703,-5.5703,-5.5059,-5.4848,-5.503,-5.4203,-5.3337,-5.2462,-5.1625,-5.1048,-5.0712,0.0,-5.0712,-5.0712,-5.0712,-5.0712,-5.0712,-5.0712,-5.0423,-4.9837,-4.8529,-4.8048,-4.7875,-4.6624,-4.5932,-4.5594,-4.5594,-4.5594,-4.5594,-4.5594,-4.5594,-4.5594,-4.5594,-4.5594,-4.5594,-4.5594,-4.5594,-4.5594,-4.5594,-4.5594,-4.5594,-4.5594,-4.5594,-4.5594,-4.5594,-4.5594,-4.5594,-4.5594,-4.5594,-4.5594,-4.5594,-4.5594,-4.5594,-4.5594,-4.5248,-4.4998,-4.4998,-4.4662,-4.4451,-4.4451,-4.4451,-4.4239,-4.3778,-4.3739,-4.3739,-4.3739,-4.3335,-4.3104,-4.3104,-4.2239,-4.2048,-4.2582,-4.1796,-4.1643,-4.2077,-4.1268,-4.1133,-3.5923,-3.7353,-3.8834,-3.9438,-4.1046,-4.2604,-4.3008,-4.1912,-4.0862,-4.1073,-4.1797,-4.2585,0.0,-4.4374,0.0,0.0,0.0,0.0,0.0,0.0,0.0,0.0,0.0,0.0,0.0,0.0,0.0,0.0,0.0,0.0,0.0,0.0,0.0,0.0,-5.5015,-5.4981,-5.4981,-5.3957,-5.3754,-5.4356,-5.3195,-5.2299,-5.1617,-5.0793,-5.0472,-5.0554,-5.0554,-5.0614,-5.0693,-5.0481,-5.0404,-5.0385,-5.0164,-4.9567,-4.8663,-4.7375,-4.6778,-4.6509,-4.5825,-4.5594,-4.5594,-4.5594,-4.5594,-4.5594,-4.5594,-4.5594,-4.5594,-4.5594,-4.5594,-4.5594,-4.5594,-4.5594,-4.5594,-4.5594,-4.5594,-4.5594,-4.5594,-4.5594,-4.5594,-4.5594,-4.5594,-4.5594,-4.5594,-4.5594,-4.5594,-4.5594,-4.5594,-4.5594,-4.5594,-4.5594,-4.5594,-4.5594,-4.5594,-4.5594,-4.5594,-4.5594,-4.5325,-4.4643,-4.4605,-4.4605,-4.4605,-4.4008,-4.3682,-4.3682,-4.2835,-4.272,-4.3374,-4.2616,-4.2569,-4.313,-4.1742,-4.1436,-3.718,-3.7353,-3.745,-3.9823,-4.0554,-4.1112,-4.272,-4.2374,-4.195,-4.2758,-4.3566,-4.4143,0.0,-4.6182,0.0,0.0,0.0,0.0,0.0,0.0,0.0,0.0,0.0,0.0,0.0,0.0,0.0,0.0,0.0,0.0,0.0,0.0,0.0,0.0,0.0,-5.2806,-5.2806,-5.238,-5.2741,-5.3913,-5.1925,-5.0941,-5.0851,-4.9986,-4.9787,-5.0147,-5.0147,-5.0358,-5.0635,-4.9817,-4.949,-4.9413,-4.8606,-4.7798,-4.7067,-4.6942,-4.6394,-4.5691,-4.5614,-4.5594,-4.5594,-4.5594,-4.5594,-4.5594,-4.5594,-4.5594,-4.5594,-4.5594,-4.5594,-4.5594,-4.5594,-4.5594,-4.5594,-4.5594,-4.5594,-4.5594,-4.5594,-4.5594,-4.5594,-4.5594,-4.5594,-4.5594,-4.5594,-4.5594,-4.5594,-4.5594,-4.5594,-4.5594,-4.5594,-4.5594,-4.5594,-4.5594,-4.5594,-4.5594,-4.5594,-4.5594,-4.5575,-4.5518,-4.5518,-4.5518,-4.5518,-4.546,-4.5421,-4.5421,-4.4566,-4.4143,-4.4201,-4.341,-4.3052,-4.3091,-4.2299,-4.1949,-3.5379,-3.6546,-3.7738,-3.87,-4.0142,-4.1623,-4.2835,-4.3643,-4.4412,-4.5278,-4.6105,-4.6509,-4.6009,0.0,0.0,0.0,0.0,0.0,0.0,0.0,0.0,0.0,0.0,0.0,0.0,0.0,0.0,0.0,0.0,0.0,0.0,0.0,0.0,0.0,0.0,-5.2609,-5.2609,-5.1466,-5.1107,-5.1585,-5.1054,-5.0518,-4.9975,-4.9655,-4.9575,-4.9709,-4.9423,-4.9369,-4.9475,-4.8846,-4.8586,-4.8509,-4.7682,-4.7173,-4.6827,-4.6297,-4.5874,-4.5594,-4.5594,-4.5594,-4.5594,-4.5594,-4.5594,-4.5594,-4.5594,-4.5594,-4.5594,-4.5594,-4.5594,-4.5594,-4.5594,-4.5594,-4.5594,-4.5594,-4.5594,-4.5594,-4.5594,-4.5594,-4.5594,-4.5594,-4.5594,-4.5594,-4.5594,-4.5594,-4.5594,-4.5594,-4.5594,-4.5594,-4.5594,-4.5594,-4.5594,-4.5594,-4.5594,-4.5594,-4.5594,-4.5594,-4.5594,-4.5594,-4.5594,-4.5594,-4.5594,-4.5075,-4.5056,-4.5594,-4.4739,-4.4566,-4.5114,-4.4259,-4.4124,-4.4613,-4.2742,-4.2174,-3.4603,-3.5872,-3.7411,-3.82,-3.9719,-4.1373,-4.2777,-4.4393,-4.5845,-4.6721,-4.7336,-4.7625,-4.7336,0.0,0.0,0.0,0.0,0.0,0.0,0.0,0.0,0.0,0.0,0.0,0.0,0.0,0.0,0.0,0.0,0.0,0.0,0.0,0.0,0.0,0.0,-5.157,-5.1442,-5.0198,-4.9599,-4.9599,-4.9872,-4.9701,-4.9126,-4.9126,-4.9056,-4.8927,-4.871,-4.8535,-4.838,-4.7914,-4.7501,-4.7108,-4.6655,-4.6425,-4.6263,-4.5771,-4.5594,-4.5594,-4.5594,-4.5594,-4.5594,-4.5594,-4.5594,-4.5594,-4.5594,-4.5594,-4.5594,-4.5594,-4.5594,-4.5594,-4.5594,-4.5594,-4.5594,-4.5594,-4.5594,-4.5594,-4.5594,-4.5594,-4.5594,-4.5594,-4.5594,-4.5594,-4.5594,-4.5594,-4.5594,-4.5594,-4.5594,-4.5594,-4.5594,-4.5594,-4.5594,-4.5594,-4.5594,-4.5594,-4.5594,-4.5594,-4.5594,-4.5594,-4.5594,-4.5594,-4.5594,-4.5037,-4.4998,-4.5594,-4.5017,-4.4998,-4.5594,-4.4998,-4.5017,-4.5556,-4.3528,-4.2777,-3.5481,-3.5481,-3.6115,-3.8661,-3.9323,-4.0015,-4.2547,-4.4412,-4.5864,-4.6759,-4.6923,-4.7173,-4.7971,-4.8105,0.0,0.0,0.0,0.0,0.0,0.0,0.0,0.0,0.0,0.0,0.0,0.0,0.0,0.0,0.0,0.0,0.0,0.0,0.0,0.0,0.0,0.0,-4.8897,-4.8495,-4.8306,-4.8306,-4.8306,-4.8306,-4.8306,-4.8306,-4.8071,-4.7718,-4.8033,-4.7952,-4.7544,-4.7079,-4.6186,-4.5129,-4.5457,-4.54,-4.5129,-4.5457,-4.5594,-4.5594,-4.5594,-4.5594,-4.5594,-4.5594,-4.5594,-4.5594,-4.5594,-4.5594,-4.5594,-4.5594,-4.5594,-4.5594,-4.5594,-4.5594,-4.5594,-4.5594,-4.5594,-4.5594,-4.5594,-4.5594,-4.5594,-4.5594,-4.5594,-4.5594,-4.5594,-4.5594,-4.5594,-4.5594,-4.5594,-4.5594,-4.5594,-4.5594,-4.5594,-4.5594,-4.5594,-4.5594,-4.5594,-4.5594,-4.5594,-4.5594,-4.5594,-4.5594,-4.5594,-4.5594,-4.5594,-4.5594,-4.5594,-4.5594,-4.5594,-4.5594,-4.5594,-4.5575,-4.4701,-4.3874,-3.3833,-3.4981,-3.6673,-3.8046,-4.0623,-4.3008,-4.3778,-4.5278,-4.7105,-4.9144,-4.9086,-4.8721,-4.8971,0.0,0.0,0.0,0.0,0.0,0.0,0.0,0.0,0.0,0.0,0.0,0.0,0.0,0.0,0.0,0.0,0.0,0.0,0.0,0.0,0.0,0.0,0.0,-4.8897,-4.8495,-4.8306,-4.8306,-4.7718,-4.7736,-4.8288,-4.77,-4.739,-4.7241,-4.644,-4.6177,-4.6297,-4.5832,-4.542,-4.5085,-4.4954,-4.4977,-4.5107,-4.5211,-4.54,-4.5594,-4.5594,-4.5594,-4.5594,-4.5594,-4.5594,-4.5594,-4.5594,-4.5594,-4.5594,-4.5594,-4.5594,-4.5594,-4.5594,-4.5594,-4.5594,-4.5594,-4.5594,-4.5594,-4.5594,-4.5594,-4.5594,-4.5594,-4.5594,-4.5594,-4.5594,-4.5594,-4.5594,-4.5594,-4.5594,-4.5594,-4.5594,-4.5594,-4.5594,-4.5594,-4.5594,-4.5594,-4.5594,-4.5594,-4.5594,-4.5594,-4.5594,-4.5594,-4.5594,-4.5594,-4.5594,-4.5594,-4.5594,-4.5594,-4.5594,-4.5594,-4.5594,-4.5575,-4.4701,-4.3874,-3.4968,-3.6526,-3.8507,-3.9719,-4.1931,-4.4085,-4.5105,-4.6144,-4.7432,0.0,-4.924,-4.899,-4.9336,0.0,0.0,0.0,0.0,0.0,0.0,0.0,0.0,0.0,0.0,0.0,0.0,0.0,0.0,0.0,0.0,0.0,0.0,0.0,0.0,0.0,0.0,0.0,-4.8657,-4.8421,-4.8141,-4.781,-4.7333,-4.7186,-4.7333,-4.6837,-4.6434,-4.6103,-4.5131,-4.4953,-4.5297,-4.5021,-4.4806,-4.4663,-4.4618,-4.4631,-4.4701,-4.4988,-4.5222,-4.5419,-4.5559,-4.5594,-4.5594,-4.5594,-4.5594,-4.5594,-4.5594,-4.5594,-4.5577,-4.5438,-4.541,-4.541,-4.541,-4.5293,-4.5273,-4.555,-4.5594,-4.5594,-4.5594,-4.5594,-4.5594,-4.5594,-4.5594,-4.5594,-4.5594,-4.5594,-4.5594,-4.5594,-4.5594,-4.5594,-4.5594,-4.5594,-4.5594,-4.5594,-4.5594,-4.5594,-4.5594,-4.5594,-4.5594,-4.5594,-4.5594,-4.5594,-4.5594,-4.5594,-4.5594,-4.5594,-4.5594,-4.5594,-4.5594,-4.5594,-4.5421,-4.5075,-4.4528,-4.3682,-3.7546,-3.8988,-4.0727,-4.2624,-4.3201,-4.3932,-4.6259,-4.6778,-4.7028,-4.7932,0.0,-4.8336,0.0,0.0,0.0,0.0,0.0,0.0,0.0,0.0,0.0,0.0,0.0,0.0,0.0,0.0,0.0,0.0,0.0,0.0,0.0,0.0,0.0,0.0,0.0,0.0,-4.8086,-4.8086,-4.77,0.0,-4.6911,-4.6489,-4.5792,-4.5792,-4.5351,-4.458,-4.4183,-4.4204,-4.454,-4.454,-4.4318,-4.4028,-4.4378,-4.4308,-4.4073,-4.475,-4.5033,-4.5129,-4.5419,-4.5559,-4.5586,-4.5568,-4.5577,-4.5594,-4.5594,-4.5577,-4.5495,-4.5191,-4.5074,-4.5052,-4.5052,-4.4837,-4.4745,-4.5362,-4.5522,-4.554,-4.554,-4.5577,-4.5594,-4.5594,-4.5594,-4.5594,-4.5594,-4.5594,-4.5594,-4.5594,-4.5594,-4.5594,-4.5594,-4.5594,-4.5594,-4.5594,-4.5594,-4.5594,-4.5594,-4.5594,-4.5594,-4.5594,-4.5594,-4.5594,-4.5594,-4.5594,-4.5594,-4.5594,-4.5594,-4.5594,-4.5594,-4.5594,-4.519,-4.4412,-4.4335,-4.3431,-3.5788,-3.7257,-3.9277,-4.2335,-4.4085,-4.521,-4.574,-4.5874,-4.6297,-4.7798,-4.8105,0.0,0.0,0.0,0.0,0.0,0.0,0.0,0.0,0.0,0.0,0.0,0.0,0.0,0.0,0.0,0.0,0.0,0.0,0.0,0.0,0.0,0.0,0.0,0.0,-4.7466,-4.6416,-4.6416,-4.6324,0.0,-4.5535,-4.5131,-4.4966,-4.4966,-4.4525,-4.3771,-4.3923,-4.4061,-4.4117,-4.4117,-4.4073,-4.3986,-4.3823,-4.3852,-4.4013,-4.419,-4.4612,-4.5074,-4.4884,-4.5161,-4.5559,-4.5283,-4.539,-4.5594,-4.5594,-4.5419,-4.5201,-4.5118,-4.4908,-4.4714,-4.4714,-4.4644,-4.465,-4.4781,-4.503,-4.5211,-4.5211,-4.5419,-4.5594,-4.5594,-4.5594,-4.5594,-4.5594,-4.5594,-4.5594,-4.5594,-4.5594,-4.5594,-4.5594,-4.5594,-4.5594,-4.5594,-4.5594,-4.5594,-4.5594,-4.5594,-4.5594,-4.5594,-4.5594,-4.5594,-4.5594,-4.5594,-4.5594,-4.5594,-4.5594,-4.5594,-4.5594,-4.5594,-4.5498,-4.5306,-4.4624,-4.3778,-3.5615,-3.7603,-4.0008,-4.3431,0.0,-4.5594,-4.5594,-4.5594,-4.5845,-4.6721,0.0,0.0,0.0,0.0,0.0,0.0,0.0,0.0,0.0,0.0,0.0,0.0,0.0,0.0,0.0,0.0,0.0,0.0,0.0,0.0,0.0,0.0,0.0,0.0,-4.6724,-4.6538,-4.5902,-4.5902,-4.5718,-4.5333,-4.4911,-4.4507,-4.4121,-4.4121,-4.3901,-4.3496,-4.3677,-4.3756,-4.3756,-4.3756,-4.3756,-4.3742,-4.3563,-4.3614,-4.3772,-4.394,-4.4228,-4.4574,-4.4593,-4.4837,-4.5096,-4.4919,-4.4977,-4.5129,-4.5129,-4.5,-4.4818,-4.4625,-4.4455,-4.4304,-4.4304,-4.4194,-4.4106,-4.4261,-4.4587,-4.4861,-4.4861,-4.5118,-4.5352,-4.5352,-4.5352,-4.5352,-4.5352,-4.5352,-4.5419,-4.5577,-4.5594,-4.5594,-4.5594,-4.5594,-4.5594,-4.5594,-4.5594,-4.5594,-4.5594,-4.5594,-4.5594,-4.5594,-4.5594,-4.5594,-4.5594,-4.5594,-4.5594,-4.5594,-4.5594,-4.5594,-4.5594,-4.519,-4.4778,-4.4374,-4.3508,-4.2643,-3.5173,-3.8123,-4.1285,-4.4556,-4.5498,0.0,-4.5594,-4.5594,-4.5594,0.0,0.0,0.0,0.0,0.0,0.0,0.0,0.0,0.0,0.0,0.0,0.0,0.0,0.0,0.0,0.0,0.0,0.0,0.0,0.0,0.0,0.0,0.0,-4.5847,-4.57,-4.5681,-4.5626,-4.548,-4.548,-4.5149,-4.4488,-4.4488,-4.414,-4.3515,-4.3515,-4.3515,-4.3515,-4.3515,-4.3515,-4.3515,-4.3515,-4.3515,-4.3515,-4.3515,-4.3515,-4.3531,-4.382,-4.3955,-4.4028,-4.4323,-4.4487,-4.458,-4.4514,-4.454,-4.4593,-4.4593,-4.4553,-4.4433,-4.4087,-4.3955,-4.3909,-4.3909,-4.371,-4.3563,-4.3849,-4.4165,-4.4419,-4.4487,-4.4769,-4.5,-4.5,-4.5,-4.5,-4.5,-4.5,-4.5118,-4.5457,-4.5513,-4.5522,-4.5586,-4.5594,-4.5594,-4.5594,-4.5594,-4.5594,-4.5594,-4.5594,-4.5594,-4.5594,-4.5594,-4.5594,-4.5594,-4.5594,-4.5594,-4.5594,-4.5594,-4.5594,-4.5594,-4.4874,-4.4105,-4.3297,-4.2431,-4.1566,-3.1852,0.0,-4.115,0.0,-4.5037,-4.5594,0.0,0.0,0.0,0.0,0.0,0.0,0.0,0.0,0.0,0.0,0.0,0.0,0.0,0.0,0.0,0.0,0.0,0.0,0.0,0.0,0.0,0.0,0.0,0.0,0.0,-4.6131,-4.5571,-4.4892,-4.4874,-4.4525,-4.3845,-4.3827,-4.3772,-4.3644,-4.3644,-4.3606,-4.3515,-4.3515,-4.3515,-4.3515,-4.3515,-4.3515,-4.3515,-4.3515,-4.3515,-4.3515,-4.3515,-4.3515,-4.3515,-4.3548,-4.3758,-4.3971,-4.3726,-4.4065,-4.454,-4.419,-4.4323,-4.4593,-4.4593,-4.4364,-4.4058,-4.4031,-4.3788,-4.3582,-4.3582,-4.3531,-4.3496,-4.3565,-4.3614,-4.3728,-4.4016,-4.4387,-4.4676,-4.4676,-4.4676,-4.4676,-4.4676,-4.4676,-4.4769,-4.5107,-4.5169,-4.5263,-4.5568,-4.5594,-4.5594,-4.5594,-4.5594,-4.5594,-4.5594,-4.5594,-4.5594,-4.5594,-4.5594,-4.5594,-4.5594,-4.5594,-4.5594,-4.5594,-4.5594,-4.5594,-4.5594,-4.5479,-4.4979,-4.4124,-4.3316,-4.247,-3.2852,-3.6411,-3.9931,0.0,-4.4586,-4.4998,-4.5498,0.0,0.0,0.0,0.0,0.0,0.0,0.0,0.0,0.0,0.0,0.0,0.0,0.0,0.0,0.0,0.0,0.0,0.0,0.0,0.0,0.0,0.0,0.0,-4.4846,-4.4648,-4.4378,-4.403,-4.403,-4.3864,-4.3515,-4.3515,-4.3515,-4.3515,-4.3515,-4.3515,-4.3515,-4.3515,-4.3515,-4.3515,-4.3515,-4.3515,-4.3515,-4.3515,-4.3515,-4.3515,-4.3515,-4.3515,-4.3515,-4.3515,-4.3597,-4.3693,-4.3548,-4.3712,-4.3943,-4.3791,-4.3836,-4.3992,-4.3992,-4.3852,-4.3726,-4.3726,-4.3595,-4.3515,-4.3515,-4.3515,-4.3515,-4.3515,-4.3515,-4.3548,-4.3695,-4.402,-4.4261,-4.4261,-4.4261,-4.4261,-4.4261,-4.4261,-4.4387,-4.4757,-4.4825,-4.4943,-4.5292,-4.5322,-4.54,-4.5577,-4.5594,-4.5594,-4.5594,-4.5594,-4.5594,-4.5594,-4.5594,-4.5594,-4.5594,-4.5594,-4.5594,-4.5594,-4.5594,-4.5594,-4.5594,-4.4671,-4.3989,-4.3605,-4.2258,-4.17,0.0,0.0,-3.7353,-4.1373,-4.2854,-4.3624,0.0,0.0,0.0,0.0,0.0,0.0,0.0,0.0,0.0,0.0,0.0,0.0,0.0,0.0,0.0,0.0,0.0,0.0,0.0,0.0,0.0,0.0,0.0,0.0,-4.3531,-4.3515,-4.3515,-4.3515,-4.3515,-4.3515,-4.3515,-4.3515,-4.3515,-4.3515,-4.3515,-4.3515,-4.3515,-4.3515,-4.3515,-4.3515,-4.3515,-4.3515,-4.3515,-4.3515,-4.3515,-4.3515,-4.3515,-4.3515,-4.3515,-4.3515,-4.3515,-4.3515,-4.3515,-4.3515,-4.3515,-4.3515,-4.3515,-4.3515,-4.3515,-4.3515,-4.3515,-4.3515,-4.3515,-4.3515,-4.3515,-4.3515,-4.3515,-4.3515,-4.3515,-4.3515,-4.3515,-4.3693,-4.3881,-4.3881,-4.3881,-4.3881,-4.3881,-4.3881,-4.4001,-4.4392,-4.4447,-4.4561,-4.4931,-4.4966,-4.5096,-4.5438,-4.5457,-4.5457,-4.5457,-4.5457,-4.5438,-4.5352,-4.5352,-4.5352,-4.5352,-4.5429,-4.5457,-4.5457,-4.5559,-4.5498,-4.5267,-4.4008,-4.3181,-4.2739,-4.1662,-4.1393,0.0,-3.0698,0.0,-3.625,-3.8911,0.0,0.0,0.0,0.0,0.0,0.0,0.0,0.0,0.0,0.0,0.0,0.0,0.0,0.0,0.0,0.0,0.0,0.0,0.0,0.0,0.0,0.0,0.0,0.0,0.0,-4.3531,-4.3515,-4.3515,-4.3515,-4.3515,-4.3515,-4.3515,-4.3515,-4.3515,-4.3515,-4.3515,-4.3515,-4.3515,-4.3515,-4.3515,-4.3515,-4.3515,-4.3515,-4.3515,-4.3515,-4.3515,-4.3515,-4.3515,-4.3515,-4.3515,-4.3515,-4.3515,-4.3515,-4.3515,-4.3515,-4.3515,-4.3515,-4.3515,-4.3515,-4.3515,-4.3515,-4.3515,-4.3515,-4.3515,-4.3515,-4.3515,-4.3515,-4.3515,-4.3515,-4.3515,-4.3515,-4.3515,-4.3513,-4.3531,-4.3531,-4.3531,-4.3531,-4.3531,-4.3531,-4.3629,-4.3986,-4.4028,-4.4175,-4.4567,-4.4637,-4.4745,-4.5085,-4.5137,-4.5137,-4.5137,-4.5137,-4.4988,-4.467,-4.4644,-4.4644,-4.4644,-4.4954,-4.5137,-4.5137,-4.5438,-4.519,-4.4374,-4.4278,-4.3412,-4.1885,-4.2624,-4.2547,0.0,0.0,0.0,-3.5077,-3.743,-3.9335,0.0,0.0,0.0,0.0,0.0,0.0,0.0,0.0,0.0,0.0,0.0,0.0,0.0,0.0,0.0,0.0,0.0,0.0,0.0,0.0,0.0,0.0,0.0,0.0,-4.3513,-4.3515,-4.3515,-4.3515,-4.3515,-4.3515,-4.3515,-4.3515,-4.3515,-4.3515,-4.3515,-4.3515,-4.3515,-4.3515,-4.3515,-4.3515,-4.3515,-4.3515,-4.3515,-4.3515,-4.3515,-4.3515,-4.3515,-4.3515,-4.3515,-4.3515,-4.3515,-4.3515,-4.3515,-4.3515,-4.3515,-4.3515,-4.3515,-4.3515,-4.3515,-4.3515,-4.3515,-4.3515,-4.3515,-4.3515,-4.3515,-4.3515,-4.3515,-4.3515,-4.3515,-4.3515,-4.3515,-4.3515,-4.3515,-4.3515,-4.3515,-4.3515,-4.3515,-4.3515,-4.3548,-4.3662,-4.3695,-4.3804,-4.418,-4.4204,-4.4359,-4.4732,-4.4788,-4.4788,-4.4788,-4.4788,-4.4739,-4.4624,-4.4593,-4.4593,-4.4593,-4.4726,-4.4788,-4.4788,-4.4908,-4.5008,-4.5133,-4.4047,-4.322,-4.2624,-4.2374,-4.2251,-2.7525,0.0,0.0,0.0,0.0,0.0,0.0,0.0,0.0,0.0,0.0,0.0,0.0,0.0,0.0,0.0,0.0,0.0,0.0,0.0,0.0,0.0,0.0,0.0,0.0,0.0,0.0,0.0,0.0,0.0,-4.3513,-4.3515,-4.3515,-4.3515,-4.3515,-4.3515,-4.3515,-4.3515,-4.3515,-4.3515,-4.3515,-4.3515,-4.3515,-4.3515,-4.3515,-4.3515,-4.3515,-4.3515,-4.3515,-4.3515,-4.3515,-4.3515,-4.3515,-4.3515,-4.3515,-4.3515,-4.3515,-4.3515,-4.3515,-4.3515,-4.3515,-4.3515,-4.3515,-4.3515,-4.3515,-4.3515,-4.3515,-4.3515,-4.3515,-4.3515,-4.3515,-4.3515,-4.3515,-4.3515,-4.3515,-4.3515,-4.3515,-4.3515,-4.3515,-4.3515,-4.3515,-4.3515,-4.3515,-4.3515,-4.3515,-4.3515,-4.3515,-4.358,-4.3804,-4.3818,-4.3989,-4.4364,-4.4406,-4.4406,-4.4406,-4.4406,-4.435,-4.4237,-4.4223,-4.4223,-4.4223,-4.4337,-4.4406,-4.4406,-4.4527,-4.4806,-4.5263,-4.3963,-4.3258,-4.3085,-4.2777,-4.2898,0.0,0.0,0.0,0.0,0.0,0.0,0.0,0.0,0.0,0.0,0.0,0.0,0.0,0.0,0.0,0.0,0.0,0.0,0.0,0.0,0.0,0.0,0.0,0.0,0.0,0.0,0.0,0.0,0.0,-4.3833,-4.3513,-4.3515,-4.3515,-4.3515,-4.3515,-4.3515,-4.3515,-4.3515,-4.3515,-4.3515,-4.3515,-4.3515,-4.3515,-4.3515,-4.3515,-4.3515,-4.3515,-4.3515,-4.3515,-4.3515,-4.3515,-4.3515,-4.3515,-4.3515,-4.3515,-4.3515,-4.3515,-4.3515,-4.3515,-4.3515,-4.3515,-4.3515,-4.3515,-4.3515,-4.3515,-4.3515,-4.3515,-4.3515,-4.3515,-4.3515,-4.3515,-4.3515,-4.3515,-4.3515,-4.3515,-4.3515,-4.3515,-4.3515,-4.3515,-4.3515,-4.3515,-4.3515,-4.3515,-4.3515,-4.3515,-4.3515,-4.3515,-4.3515,-4.3515,-4.3515,-4.3612,-4.3955,-4.3986,-4.3986,-4.3986,-4.3986,-4.3849,-4.3513,-4.3515,-4.3515,-4.3515,-4.382,-4.3986,-4.3986,-4.4378,-4.4567,-4.458,-4.4053,-4.355,-4.3118,-4.3906,-4.4547,-2.5432,0.0,0.0,0.0,0.0,0.0,0.0,0.0,0.0,0.0,0.0,0.0,0.0,0.0,0.0,0.0,0.0,0.0,0.0,0.0,0.0,0.0,0.0,0.0,0.0,0.0,0.0,0.0,-4.4004,-4.3597,-4.3496,-4.3515,-4.3515,-4.3515,-4.3515,-4.3515,-4.3515,-4.3515,-4.3515,-4.3515,-4.3515,-4.3515,-4.3515,-4.3515,-4.3515,-4.3515,-4.3515,-4.3515,-4.3515,-4.3515,-4.3515,-4.3515,-4.3515,-4.3515,-4.3515,-4.3515,-4.3515,-4.3515,-4.3515,-4.3515,-4.3515,-4.3515,-4.3515,-4.3515,-4.3515,-4.3515,-4.3515,-4.3515,-4.3515,-4.3515,-4.3515,-4.3515,-4.3515,-4.3515,-4.3515,-4.3515,-4.3515,-4.3515,-4.3515,-4.3515,-4.3515,-4.3515,-4.3515,-4.3515,-4.3515,-4.3515,-4.3515,-4.3515,-4.3515,-4.3515,-4.3531,-4.3629,-4.3629,-4.3629,-4.3629,-4.3629,-4.3597,-4.3515,-4.3515,-4.3515,-4.3515,-4.3597,-4.3629,-4.3629,-4.3761,-4.3912,-4.4161,-4.3692,-4.3362,-4.3236,-4.3221,-4.3762,-2.6276,-2.6738,-2.7733,0.0,0.0,0.0,0.0,0.0,0.0,0.0,0.0,0.0,0.0,0.0,0.0,0.0,0.0,0.0,0.0,0.0,0.0,0.0,0.0,0.0,0.0,0.0,0.0,0.0,-4.3804,-4.3515,-4.3515,-4.3515,-4.3515,-4.3515,-4.3515,-4.3515,-4.3515,-4.3515,-4.3515,-4.3515,-4.3515,-4.3515,-4.3515,-4.3515,-4.3515,-4.3515,-4.3515,-4.3515,-4.3515,-4.3515,-4.3515,-4.3515,-4.3515,-4.3515,-4.3515,-4.3515,-4.3515,-4.3515,-4.3515,-4.3515,-4.3515,-4.3515,-4.3515,-4.3515,-4.3515,-4.3515,-4.3515,-4.3515,-4.3515,-4.3515,-4.3515,-4.3515,-4.3515,-4.3515,-4.3515,-4.3515,-4.3515,-4.3515,-4.3515,-4.3515,-4.3515,-4.3515,-4.3515,-4.3515,-4.3515,-4.3515,-4.3515,-4.3515,-4.3515,-4.3515,-4.3515,-4.3515,-4.3515,-4.3515,-4.3515,-4.3515,-4.3515,-4.3515,-4.3515,-4.3515,-4.3515,-4.3515,-4.3515,-4.3515,-4.3515,-4.3597,-4.3788,-4.3665,-4.3686,-4.3831,-4.3469,-4.3673,-2.7698,-2.7527,-2.8106,0.0,0.0,0.0,-3.2275,-3.2249,0.0,0.0,0.0,0.0,0.0,0.0,0.0,0.0,0.0,0.0,0.0,0.0,0.0,0.0,0.0,0.0,0.0,0.0,-4.4433,-4.4028,-4.3677,-4.3515,-4.3515,-4.3515,-4.3515,-4.3515,-4.3515,-4.3515,-4.3515,-4.3515,-4.3515,-4.3515,-4.3515,-4.3515,-4.3515,-4.3515,-4.3515,-4.3515,-4.3515,-4.3515,-4.3515,-4.3515,-4.3515,-4.3515,-4.3515,-4.3515,-4.3515,-4.3515,-4.3515,-4.3515,-4.3515,-4.3515,-4.3515,-4.3515,-4.3515,-4.3515,-4.3515,-4.3515,-4.3515,-4.3515,-4.3515,-4.3515,-4.3515,-4.3515,-4.3515,-4.3515,-4.3515,-4.3515,-4.3515,-4.3515,-4.3515,-4.3515,-4.3515,-4.3515,-4.3515,-4.3515,-4.3515,-4.3515,-4.3515,-4.3515,-4.3515,-4.3515,-4.3515,-4.3515,-4.3515,-4.3515,-4.3515,-4.3515,-4.3515,-4.3515,-4.3515,-4.3515,-4.3515,-4.3515,-4.3515,-4.3515,-4.3515,-4.3515,-4.3515,-4.3804,-4.4136,-4.446,-4.4027,-4.381,-2.9361,-2.9514,0.0,0.0,0.0,0.0,0.0,-2.9288,0.0,0.0,0.0,0.0,0.0,0.0,0.0,0.0,0.0,0.0,0.0,0.0,0.0,0.0,0.0,0.0,0.0,0.0,-4.4433,-4.4028,-4.3677,-4.3515,-4.3515,-4.3515,-4.3515,-4.3515,-4.3515,-4.3515,-4.3515,-4.3515,-4.3515,-4.3515,-4.3515,-4.3515,-4.3515,-4.3515,-4.3515,-4.3515,-4.3515,-4.3515,-4.3515,-4.3515,-4.3515,-4.3515,-4.3515,-4.3515,-4.3515,-4.3515,-4.3515,-4.3515,-4.3515,-4.3515,-4.3515,-4.3515,-4.3515,-4.3515,-4.3515,-4.3515,-4.3515,-4.3515,-4.3515,-4.3515,-4.3515,-4.3515,-4.3515,-4.3515,-4.3515,-4.3515,-4.3515,-4.3515,-4.3515,-4.3515,-4.3515,-4.3515,-4.3515,-4.3515,-4.3515,-4.3515,-4.3515,-4.3515,-4.3515,-4.3515,-4.3515,-4.3515,-4.3515,-4.3515,-4.3515,-4.3515,-4.3515,-4.3515,-4.3515,-4.3515,-4.3515,-4.3515,-4.3515,-4.3515,-4.3515,-4.3515,-4.3515,-4.3582,-4.3647,-4.3693,-4.2967,-4.264,-3.0824,0.0,0.0,-3.0612,0.0,0.0,0.0,0.0,0.0,0.0,0.0,0.0,0.0,0.0,0.0,0.0,0.0,0.0,0.0,0.0,0.0,0.0,0.0,0.0,0.0,0.0,-4.3716,-4.3754,-4.3597,-4.3515,-4.3515,-4.3515,-4.3515,-4.3515,-4.3515,-4.3515,-4.3515,-4.3515,-4.3313,-4.2892,-4.2892,-4.269,-4.2323,-4.2708,-4.2892,-4.291,-4.3331,-4.3515,-4.3515,-4.3515,-4.3515,-4.3515,-4.3515,-4.3515,-4.3515,-4.3515,-4.3515,-4.3515,-4.3515,-4.3515,-4.3515,-4.3515,-4.3515,-4.3515,-4.3515,-4.3515,-4.3515,-4.3515,-4.3515,-4.3515,-4.3515,-4.3515,-4.3515,-4.3515,-4.3515,-4.3515,-4.3515,-4.3515,-4.3515,-4.3515,-4.3515,-4.3515,-4.3515,-4.3515,-4.3515,-4.3515,-4.3515,-4.3515,-4.3515,-4.3515,-4.3515,-4.3515,-4.3515,-4.3515,-4.3515,-4.3515,-4.3515,-4.3515,-4.3515,-4.3515,-4.3515,-4.3515,-4.3515,-4.3515,-4.3515,-4.3515,-4.3515,-4.3515,-4.3515,-4.3478,-4.2671,-4.2304,0.0,0.0,0.0,0.0,0.0,-3.0509,0.0,0.0,0.0,-3.0997,0.0,0.0,0.0,0.0,0.0,0.0,0.0,0.0,0.0,0.0,0.0,0.0,0.0,0.0,0.0,0.0,-4.2301,-4.2981,-4.2745,-4.2782,-4.3239,-4.3276,-4.3332,-4.3515,-4.3515,-4.3441,-4.3276,-4.3276,-4.2873,-4.2066,-4.2066,-4.1735,-4.1113,-4.1772,-4.2066,-4.2121,-4.2763,-4.313,-4.3276,-4.3276,-4.3368,-4.3515,-4.3515,-4.3515,-4.3515,-4.3515,-4.3515,-4.3515,-4.3515,-4.3515,-4.3515,-4.3515,-4.3515,-4.3515,-4.3515,-4.3515,-4.3515,-4.3515,-4.3515,-4.3515,-4.3515,-4.3515,-4.3515,-4.3515,-4.3515,-4.3515,-4.3515,-4.3515,-4.3515,-4.3515,-4.3515,-4.3515,-4.3515,-4.3515,-4.3515,-4.3515,-4.3515,-4.3515,-4.3515,-4.3515,-4.3515,-4.3515,-4.3515,-4.3515,-4.3515,-4.3515,-4.3515,-4.3515,-4.3515,-4.3515,-4.3515,-4.3515,-4.3515,-4.3515,-4.3515,-4.3515,-4.3515,-4.3515,-4.3515,-4.3478,-4.2525,-4.2066,0.0,0.0,0.0,0.0,-3.349,0.0,0.0,0.0,-2.966,-2.8522,0.0,0.0,0.0,0.0,0.0,0.0,0.0,0.0,0.0,0.0,0.0,0.0,0.0,0.0,0.0,0.0,0.0,-4.1258,-4.0065,-4.0175,-4.2323,-4.2433,-4.2763,-4.3478,-4.3515,-4.3149,-4.2433,-4.2433,-4.2029,-4.1242,-4.1242,-4.1187,-4.1095,-4.1187,-4.1242,-4.1242,-4.1334,-4.1791,-4.2433,-4.2433,-4.2855,-4.3515,-4.3515,-4.3515,-4.3515,-4.3515,-4.3515,-4.3515,-4.3515,-4.3515,-4.3515,-4.3515,-4.3515,-4.3515,-4.3515,-4.3515,-4.3515,-4.3515,-4.3515,-4.3515,-4.3515,-4.3515,-4.3515,-4.3515,-4.3515,-4.3515,-4.3515,-4.3515,-4.3515,-4.3515,-4.3515,-4.3515,-4.3515,-4.3515,-4.3515,-4.3515,-4.3515,-4.3515,-4.3515,-4.3515,-4.3515,-4.3515,-4.3515,-4.3515,-4.3515,-4.3515,-4.3515,-4.3515,-4.3515,-4.3515,-4.3515,-4.3515,-4.3515,-4.3515,-4.3515,-4.3515,-4.3515,-4.3515,-4.3515,-4.346,-4.1937,-4.1242,0.0,0.0,0.0,0.0,0.0,0.0,-3.0448,0.0,-2.9427,0.0,0.0,0.0,0.0,0.0,0.0,0.0,0.0,0.0,0.0,0.0,0.0,0.0,0.0,0.0,0.0,0.0,0.0,0.0,0.0,-3.935,-4.0818,-4.135,-4.1772,-4.2103,-4.2121,-4.1956,-4.1625,-4.159,-4.1203,-4.0396,-4.0396,-4.0157,-3.9735,-4.0194,-4.0396,-4.0432,-4.0893,-4.1279,-4.1644,-4.2121,-4.2506,-4.2837,-4.3331,-4.3515,-4.3515,-4.3515,-4.3515,-4.3515,-4.3515,-4.3515,-4.3515,-4.3515,-4.3515,-4.3515,-4.3515,-4.3515,-4.3515,-4.3515,-4.3515,-4.3515,-4.3515,-4.3515,-4.3515,-4.3515,-4.3515,-4.3515,-4.3515,-4.3515,-4.3515,-4.3515,-4.3515,-4.3515,-4.3515,-4.3515,-4.3515,-4.3515,-4.3515,-4.3515,-4.3515,-4.3515,-4.3515,-4.3515,-4.3515,-4.3515,-4.3515,-4.3515,-4.3515,-4.3515,-4.3515,-4.3515,-4.3515,-4.3515,-4.3515,-4.3515,-4.3515,-4.3515,-4.3515,-4.3515,-4.3515,-4.346,-4.1864,-4.1095,-3.711,0.0,0.0,0.0,0.0,0.0,0.0,0.0,0.0,0.0,0.0,0.0,0.0,0.0,0.0,0.0,0.0,0.0,0.0,0.0,0.0,0.0,0.0,0.0,0.0,0.0,0.0,0.0,0.0,0.0,-3.9478,-4.012,-4.0636,-4.1077,-4.1095,-4.0985,-4.0781,-4.0781,-4.0377,-3.957,-3.957,-3.9276,-3.8726,-3.9294,-3.957,-3.9588,-4.0194,-4.0563,-4.0836,-4.1405,-4.1772,-4.2029,-4.2598,-4.2837,-4.2892,-4.3332,-4.3515,-4.3515,-4.3515,-4.3515,-4.3515,-4.3515,-4.3515,-4.3515,-4.3515,-4.3515,-4.3515,-4.3515,-4.3515,-4.3515,-4.3515,-4.3515,-4.3515,-4.3515,-4.3515,-4.3515,-4.3515,-4.3515,-4.3515,-4.3515,-4.3515,-4.3515,-4.3515,-4.3515,-4.3515,-4.3515,-4.3515,-4.3515,-4.3515,-4.3515,-4.3515,-4.3515,-4.3515,-4.3515,-4.3515,-4.3515,-4.3515,-4.3515,-4.3515,-4.3515,-4.3515,-4.3515,-4.3515,-4.3515,-4.3515,-4.3515,-4.3515,-4.3515,-4.3515,-4.3478,-4.2084,-4.1297,0.0,0.0,0.0,-3.4633,0.0,0.0,0.0,0.0,-3.1121,0.0,0.0,0.0,0.0,0.0,0.0,-3.0118,0.0,0.0,0.0,0.0,0.0,0.0,0.0,0.0,0.0,0.0,0.0,0.0,0.0,0.0,-3.8542,-3.8762,-3.9481,-4.104,-4.1095,-4.0726,-3.9937,-3.9937,-3.9533,-3.8744,-3.8744,-3.8726,-3.8707,-3.8726,-3.8744,-3.8744,-3.8781,-3.9221,-3.9937,-3.9955,-4.0432,-4.1132,-4.1168,-4.1168,-4.137,-4.2928,-4.3515,-4.3515,-4.3515,-4.3515,-4.3515,-4.3515,-4.3515,-4.3515,-4.3515,-4.3515,-4.3515,-4.3515,-4.3515,-4.3515,-4.3515,-4.3515,-4.3515,-4.3515,-4.3515,-4.3515,-4.3515,-4.3515,-4.3515,-4.3515,-4.3515,-4.3515,-4.3515,-4.3515,-4.3515,-4.3515,-4.3515,-4.3515,-4.3515,-4.3515,-4.3515,-4.3515,-4.3515,-4.3515,-4.3515,-4.3515,-4.3515,-4.3515,-4.3515,-4.3515,-4.3515,-4.3515,-4.3515,-4.3515,-4.3515,-4.3515,-4.3515,-4.3515,-4.3515,-4.3478,-4.2653,-4.1846,0.0,0.0,-3.8193,-3.5991,0.0,0.0,0.0,0.0,0.0,0.0,0.0,0.0,0.0,0.0,-3.0815,-3.0283,-2.9971,0.0,0.0,0.0,0.0,0.0,0.0,0.0,0.0,0.0,0.0,0.0,0.0,0.0,0.0,-3.7294,-3.8172,-3.8689,-3.9239,-3.9386,-3.9111,-3.9111,-3.8964,-3.8707,-3.8707,-3.8707,-3.8707,-3.8707,-3.8707,-3.8707,-3.8707,-3.8854,-3.9148,-3.968,-4.0065,-4.0359,-4.0875,-4.1095,-4.1224,-4.2304,-4.2708,-4.2782,-4.3331,-4.3515,-4.3515,-4.3515,-4.3515,-4.3515,-4.3515,-4.3515,-4.3515,-4.3515,-4.3515,-4.3515,-4.3515,-4.3515,-4.3515,-4.3515,-4.3515,-4.3515,-4.3515,-4.3515,-4.3515,-4.3515,-4.3515,-4.3515,-4.3515,-4.3515,-4.3515,-4.3515,-4.3515,-4.3515,-4.3515,-4.3515,-4.3515,-4.3515,-4.3515,-4.3515,-4.3515,-4.3515,-4.3515,-4.3515,-4.3515,-4.3515,-4.3515,-4.3515,-4.3515,-4.3515,-4.3515,-4.3515,-4.3515,-4.3515,-4.3515,-4.3496,-4.3222,-4.2378,-3.8707,-3.8707,0.0,-3.6688,-3.5495,0.0,-3.2265,0.0,0.0,0.0,0.0,0.0,0.0,0.0,0.0,-3.1146,-3.0577,0.0,0.0,0.0,0.0,0.0,0.0,0.0,0.0,0.0,-3.0008,-3.1641,0.0,0.0,0.0,0.0,-3.7199,-3.7492,-3.8285,-3.8707,-3.8707,-3.8707,-3.8707,-3.8707,-3.8707,-3.8707,-3.8707,-3.8707,-3.8707,-3.8707,-3.8707,-3.8707,-3.8744,-3.9258,-3.946,-3.9515,-4.0031,-4.0416,-4.0818,-4.1901,-4.2488,-4.28,-4.3331,-4.3515,-4.3515,-4.3515,-4.3515,-4.3515,-4.3515,-4.3515,-4.3515,-4.3515,-4.3515,-4.3515,-4.3515,-4.3515,-4.3515,-4.3515,-4.3515,-4.3515,-4.3515,-4.3515,-4.3515,-4.3515,-4.3515,-4.3515,-4.3515,-4.3515,-4.3515,-4.3515,-4.3515,-4.3515,-4.3515,-4.3515,-4.3515,-4.3515,-4.3515,-4.3515,-4.3515,-4.3515,-4.3515,-4.3515,-4.3515,-4.3515,-4.3515,-4.3515,-4.3515,-4.3515,-4.3515,-4.3515,-4.3515,-4.3515,-4.3515,-4.3515,-4.3515,-4.2782]},{"header":{"parameterUnit":"m.s-1","parameterCategory":1,"la1":30.6,"la2":29.2853,"lo1":-89.7004,"lo2":-87.6739,"dy":0.0162,"dx":0.0183,"nx":112,"ny":82,"refTime":"2024-05-29T12:00:00:Z","depth":0,"parameterNumber":3,"parameterNumberName":"V-component_of_WINDS"},"data":[0.0,0.0,0.0,0.0,0.0,0.0,0.0,0.0,0.0,0.0,0.0,0.0,0.0,0.0,0.0,0.0,0.0,0.0,0.0,0.0,0.0,0.0,0.0,0.0,0.0,0.0,0.0,0.0,0.0,0.0,0.0,0.0,0.0,0.0,0.0,0.0,0.0,0.0,0.0,0.0,0.0,0.0,0.0,0.0,0.0,0.0,0.0,0.0,0.0,0.0,0.0,0.0,0.0,0.0,0.0,0.0,0.0,0.0,0.0,0.0,0.0,0.0,0.0,0.0,0.0,0.0,0.0,0.0,0.0,0.0,0.0,0.0,0.0,0.0,0.0,0.0,0.0,0.0,0.0,0.0,0.0,0.0,0.0,0.0,0.0,0.0,0.0,0.0,0.0,0.0,0.0,-0.0272,-0.0146,-0.1159,-0.4067,-0.399,-0.4623,-0.6579,0.0,0.0,0.0,0.0,0.0,0.0,0.0,0.0,0.0,0.0,0.0,0.0,0.0,0.0,0.0,0.0,0.0,0.0,0.0,0.0,0.0,0.0,0.0,0.0,0.0,0.0,0.0,0.0,0.0,0.0,0.0,0.0,0.0,0.0,0.0,0.0,0.0,0.0,0.0,0.0,0.0,0.0,0.0,0.0,0.0,0.0,0.0,0.0,0.0,0.0,0.0,0.0,0.0,0.0,0.0,0.0,0.0,0.0,0.0,0.0,0.0,0.0,0.0,0.0,0.0,0.0,0.0,0.0,0.0,0.0,0.0,0.0,0.0,0.0,0.0,0.0,0.0,0.0,0.0,0.0,0.0,0.0,0.0,0.0,0.0,0.0,0.0,0.0,0.0,0.0,0.0,0.0,0.0,0.0,0.0,0.0,0.0,0.0,0.0,0.0,0.0,0.0,0.0,0.0,-0.0421,-0.1561,-0.0701,-0.1562,-0.5375,-0.4427,-0.4508,-0.6572,0.0,0.0,0.0,0.0,0.0,0.0,0.0,0.0,0.0,0.0,0.0,0.0,0.0,0.0,0.0,0.0,0.0,0.0,0.0,0.0,0.0,0.0,0.0,0.0,0.0,0.0,0.0,0.0,0.0,0.0,0.0,0.0,0.0,0.0,0.0,0.0,0.0,0.0,0.0,0.0,0.0,0.0,0.0,0.0,0.0,0.0,0.0,0.0,0.0,0.0,0.0,0.0,0.0,0.0,0.0,0.0,0.0,0.0,0.0,0.0,0.0,0.0,0.0,0.0,0.0,0.0,0.0,0.0,0.0,0.0,0.0,0.0,0.0,0.0,0.0,0.0,0.0,0.0,0.0,0.0,0.0,0.0,0.0,0.0,0.0,0.0,0.0,0.0,0.0,0.0,0.0,0.0,0.0,0.0,0.0,0.0,0.0,0.0,0.0,0.0,0.0,0.0,0.0,0.0,-0.0526,-0.1839,-0.146,-0.2415,-0.5727,-0.519,-0.5269,-0.6611,-0.62,0.0,0.0,0.0,0.0,0.0,0.0,0.0,0.0,0.0,0.0,0.0,0.0,0.0,0.0,0.0,0.0,0.0,0.0,0.0,0.0,0.0,0.0,0.0,0.0,0.0,0.0,0.0,0.0,0.0,0.0,0.0,0.0,0.0,0.0,0.0,0.0,0.0,0.0,0.0,0.0,0.0,0.0,0.0,0.0,0.0,0.0,0.0,0.0,0.0,0.0,0.0,0.0,0.0,0.0,0.0,0.0,0.0,0.0,0.0,0.0,0.0,0.0,0.0,0.0,0.0,0.0,0.0,0.0,0.0,0.0,0.0,0.0,0.0,0.0,0.0,0.0,0.0,0.0,0.0,0.0,0.0,0.0,0.0,0.0,0.0,0.0,0.0,0.0,0.0,0.0,0.0,0.0,0.0,0.0,0.0,0.0,0.0,0.0,0.0,0.0,0.0,0.0,0.0,-0.0644,-0.2294,-0.2213,-0.3217,-0.6229,-0.5841,-0.5805,-0.6595,-0.6013,0.0,0.0,0.0,0.0,0.0,0.0,0.0,0.0,0.0,0.0,0.0,0.0,0.0,0.0,0.0,0.0,0.0,0.0,0.0,0.0,0.0,0.0,0.0,0.0,0.0,0.0,0.0,0.0,0.0,0.0,0.0,0.0,0.0,0.0,0.0,0.0,0.0,0.0,0.0,0.0,0.0,0.0,0.0,0.0,0.0,0.0,0.0,0.0,0.0,0.0,0.0,0.0,0.0,0.0,0.0,0.0,0.0,0.0,0.0,0.0,0.0,0.0,0.0,0.0,0.0,0.0,0.0,0.0,0.0,0.0,0.0,0.0,0.0,0.0,0.0,0.0,0.0,0.0,0.0,0.0,0.0,0.0,0.0,0.0,0.0,0.0,0.0,0.0,0.0,0.0,0.0,0.0,0.0,0.0,0.0,0.0,0.0,0.0,0.0,0.0,0.0,0.0,0.0,-0.101,-0.36,-0.2765,-0.3568,-0.7534,-0.6084,-0.5416,-0.6465,-0.5664,0.0,0.0,0.0,0.0,0.0,0.0,0.0,0.0,0.0,0.0,0.0,0.0,0.0,0.0,0.0,0.0,0.0,0.0,0.0,0.0,0.0,0.0,0.0,0.0,0.0,0.0,0.0,0.0,0.0,0.0,0.0,0.0,0.0,0.0,0.0,0.0,0.0,0.0,0.0,0.0,0.0,0.0,0.0,0.0,0.0,0.0,0.0,0.0,0.0,0.0,0.0,0.0,0.0,0.0,0.0,0.0,0.0,0.0,0.0,0.0,0.0,0.0,0.0,0.0,0.0,0.0,0.0,0.0,0.0,0.0,0.0,0.0,0.0,0.0,0.0,0.0,0.0,0.0,0.0,0.0,0.0,0.0,0.0,0.0,0.0,0.0,0.0,0.0,0.0,0.0,0.0,0.0,0.0,0.0,0.0,0.0,0.0,0.0,0.0,0.0,0.0,0.0,0.0,-0.0696,0.0,-0.3065,-0.4148,-0.6421,-0.6534,-0.643,-0.6376,0.0,0.0,0.0,0.0,0.0,0.0,0.0,0.0,0.0,0.0,0.0,0.0,0.0,0.0,0.0,0.0,0.0,0.0,0.0,0.0,0.0,0.0,0.0,0.0,0.0,0.0,0.0,0.0,0.0,0.0,0.0,0.0,0.0,0.0,0.0,0.0,0.0,0.0,0.0,0.0,0.0,0.0,0.0,0.0,0.0,0.0,0.0,0.0,0.0,0.0,0.0,0.0,0.0,0.0,0.0,0.0,0.0,0.0,0.0,0.0,0.0,0.0,0.0,0.0,0.0,0.0,0.0,0.0,0.0,0.0,0.0,0.0,0.0,0.0,0.0,0.0,0.0,0.0,0.0,0.0,0.0,0.0,0.0,0.0,0.0,0.0,0.0,0.0,0.0,0.0,0.0,0.0,0.0,0.0,0.0,0.0,0.0,0.0,0.0,0.0,0.0,0.0,0.0,0.0,-0.0509,0.0,-0.3149,-0.4455,-0.5718,-0.6627,-0.6869,-0.6224,0.0,0.0,0.0,0.0,0.0,0.0,0.0,0.0,0.0,0.0,0.0,0.0,0.0,0.0,0.0,0.0,0.0,0.0,0.0,0.0,0.0,0.0,0.0,0.0,0.0,0.0,0.0,0.0,0.0,0.0,0.0,0.0,0.0,0.0,0.0,0.0,0.0,0.0,0.0,0.0,0.0,0.0,0.0,0.0,0.0,0.0,0.0,0.0,0.0,0.0,0.0,0.0,0.0,0.0,0.0,0.0,0.0,0.0,0.0,0.0,0.0,0.0,0.0,0.0,0.0,0.0,0.0,0.0,0.0,0.0,0.0,0.0,0.0,0.0,0.0,0.0,0.0,0.0,0.0,0.0,0.0,0.0,0.0,0.0,0.0,0.0,0.0,0.0,0.0,0.0,0.0,0.0,0.0,0.0,0.0,0.0,0.0,0.0,0.0,0.0,0.0,0.0,0.0,0.0,-0.0532,-0.1854,-0.3066,-0.4298,-0.5659,-0.6201,-0.6306,0.0,0.0,0.0,0.0,0.0,0.0,0.0,0.0,0.0,0.0,0.0,0.0,0.0,0.0,0.0,0.0,0.0,0.0,0.0,0.0,0.0,0.0,0.0,0.0,0.0,0.0,0.0,0.0,0.0,0.0,0.0,0.0,0.0,0.0,0.0,0.0,0.0,0.0,0.0,0.0,0.0,0.0,0.0,0.0,0.0,0.0,0.0,0.0,0.0,0.0,0.0,0.0,0.0,0.0,0.0,0.0,0.0,0.0,0.0,0.0,0.0,0.0,0.0,0.0,0.0,0.0,0.0,0.0,0.0,0.0,0.0,0.0,0.0,0.0,0.0,0.0,0.0,0.0,0.0,0.0,0.0,0.0,0.0,0.0,0.0,0.0,0.0,0.0,0.0,0.0,0.0,0.0,0.0,0.0,0.0,0.0,0.0,0.0,0.0,0.0,0.0,0.0,0.0,0.0,0.0,-0.0142,-0.0542,-0.1767,-0.266,-0.2963,-0.3886,-0.4284,-0.3843,0.0,0.0,0.0,0.0,0.0,0.0,0.0,0.0,0.0,0.0,0.0,0.0,0.0,0.0,0.0,0.0,0.0,0.0,0.0,0.0,0.0,0.0,0.0,0.0,0.0,0.0,0.0,0.0,0.0,0.0,0.0,0.0,0.0,0.0,0.0,0.0,0.0,0.0,0.0,0.0,0.0,0.0,0.0,0.0,0.0,0.0,0.0,0.0,0.0,0.0,0.0,0.0,0.0,0.0,0.0,0.0,0.0,0.0,0.0,0.0,0.0,0.0,0.0,0.0,0.0,0.0,0.0,0.0,0.0,0.0,0.0,0.0,0.0,0.0,0.0,0.0,0.0,0.0,0.0,0.0,0.0,0.0,0.0,0.0,0.0,0.0,0.0,0.0,0.0,0.0,0.0,0.0,0.0,0.0,0.0,0.0,0.0,0.0,0.0,0.0,0.0,0.0,0.0,0.0,0.0,0.0,-0.1154,-0.1895,-0.1804,-0.2819,-0.3313,-0.2926,0.0,0.0,0.0,0.0,0.0,0.0,0.0,0.0,0.0,0.0,0.0,0.0,0.0,0.0,0.0,0.0,0.0,0.0,0.0,0.0,0.0,0.0,0.0,0.0,0.0,0.0,0.0,0.0,0.0,0.0,0.0,0.0,0.0,0.0,0.0,0.0,0.0,0.0,0.0,0.0,0.0,0.0,0.0,0.0,0.0,0.0,0.0,0.0,0.0,0.0,0.0,0.0,0.0,0.0,0.0,0.0,0.0,0.0,0.0,0.0,0.0,0.0,0.0,0.0,0.0,0.0,0.0,0.0,0.0,0.0,0.0,0.0,0.0,0.0,0.0,0.0,0.0,0.0,0.0,0.0,0.0,0.0,0.0,0.0,0.0,0.0,0.0,0.0,0.0,0.0,0.0,0.0,0.0,0.0,0.0,0.0,0.0,0.0,0.0,0.0,0.0,0.0,0.0,0.0,0.0,0.0,-0.0981,-0.1615,-0.1612,-0.2479,-0.2904,-0.264,0.0,0.0,0.0,0.0,0.0,0.0,0.0,0.0,0.0,0.0,0.0,0.0,0.0,0.0,0.0,0.0,0.0,0.0,0.0,0.0,0.0,0.0,0.0,0.0,0.0,0.0,0.0,0.0,0.0,0.0,0.0,0.0,0.0,0.0,0.0,0.0,0.0,0.0,0.0,0.0,0.0,0.0,0.0,0.0,0.0,0.0,0.0,0.0,0.0,0.0,0.0,0.0,0.0,0.0,0.0,0.0,0.0,0.0,0.0,0.0,0.0,0.0,0.0,0.0,0.0,0.0,0.0,0.0,0.0,0.0,0.0,0.0,0.0,0.0,0.0,0.0,0.0,0.0,0.0,0.0,0.0,0.0,0.0,0.0,0.0,0.0,0.0,0.0,0.0,0.0,0.0,0.0,0.0,0.0,0.0,0.0,0.0,0.0,0.0,0.0,0.0,0.0,0.0,0.0,0.0,0.0,-0.0232,-0.0368,-0.0362,-0.0562,-0.0693,-0.0641,-0.103,0.0,0.0,0.0,0.0,0.0,0.0,0.0,0.0,0.0,0.0,0.0,0.0,0.0,0.0,0.0,0.0,0.0,0.0,0.0,0.0,0.0,0.0,0.0,0.0,0.0,0.0,0.0,0.0,0.0,0.0,0.0,0.0,0.0,0.0,0.0,0.0,0.0,0.0,0.0,0.0,0.0,0.0,0.0,0.0,0.0,0.0,0.0,0.0,0.0,0.0,0.0,0.0,0.0,0.0,0.0,0.0,0.0,0.0,0.0,0.0,0.0,0.0,0.0,0.0,0.0,0.0,0.0,0.0,0.0,0.0,0.0,0.0,0.0,0.0,0.0,0.0,0.0,0.0,0.0,0.0,0.0,0.0,0.0,0.0,0.0,0.0,0.0,0.0,0.0,0.0,0.0,0.0,0.0,0.0,0.0,0.0,0.0,0.0,0.0,0.0,0.0,0.0,0.0,0.0,0.0,0.0,0.0,0.0,0.0,0.0,0.0,-0.0283,0.0,0.0,0.0,0.0,0.0,0.0,0.0,0.0,0.0,0.0,0.0,0.0,0.0,0.0,0.0,0.0,0.0,0.0,0.0,0.0,0.0,0.0,0.0,0.0,0.0,0.0,0.0,0.0,0.0,0.0,0.0,0.0,0.0,0.0,0.0,0.0,0.0,0.0,0.0,0.0,0.0,0.0,0.0,0.0,0.0,0.0,0.0,0.0,0.0,0.0,0.0,0.0,0.0,0.4673,0.3521,0.1493,0.1493,0.0946,0.0,0.0,0.0,0.0,0.0,0.0,0.0,0.0,0.0,0.0,0.0,0.0,0.0,0.0,0.0,0.0,0.0,0.0,0.0,0.0,0.0,0.0,0.0,0.0,0.0,0.0,0.0,0.0,0.0,0.0,0.0,0.0,0.0,0.0,0.0,0.0,0.0,0.0,0.0,0.0,0.0,0.0,0.0,0.0,0.0,0.0,0.0,0.0,0.0,0.0,0.0,0.0,0.0,0.0,0.0,0.0,0.0,0.0,0.0,0.0,0.0,0.0,0.0,0.0,0.0,0.0,0.0,0.0,0.0,0.0,0.0,0.0,0.0,0.0,0.0,0.0,0.0,0.0,0.0,0.0,0.0,0.0,0.0,0.0,0.0,0.0,0.0,0.6378,0.6419,0.0,0.0,0.0,0.0,0.0,0.0,0.0,0.0,0.0,0.0,0.0,0.0,0.0,0.5835,0.5982,0.3712,0.2469,0.2253,0.121,0.058,0.0211,0.0211,0.0158,0.0,0.0,0.0,0.0,0.0,0.0,0.0,0.0,0.0,0.0,0.0,0.0,0.0,0.0,0.0,0.0,0.0,0.0,0.0,0.0,0.0,0.0,0.0,0.0,0.0,0.0,0.0,0.0,0.0,0.0,0.0,0.0,0.0,0.0,0.0,0.0,0.0,0.0,0.0,0.0,0.0,0.0,0.0,0.0,0.0,0.0,0.0,0.0,0.0,0.0,0.0,0.0,0.0,0.0,0.0,0.0,0.0,0.0,0.0,0.0,0.0,0.0,0.0,0.0,0.0,0.0,0.0,0.0,0.0,0.0,0.0,0.0,0.0,0.0,0.0,0.0,0.0,0.0,0.0,0.0,0.0,0.0,0.0,0.0,0.0,0.0,0.6247,0.6661,0.6827,0.6848,0.6793,0.0,0.0,0.0,0.0,0.0,0.0,0.0,0.0,0.0,0.8085,0.762,0.7421,0.7559,0.5556,0.4123,0.3325,0.1905,0.0789,0.0,0.0,0.0,0.0,0.0,0.0,0.0,0.0,0.0,0.0,0.0,0.0,0.0,0.0,0.0,0.0,0.0,0.0,0.0,0.0,0.0,0.0,0.0,0.0,0.0,0.0,0.0,0.0,0.0,0.0,0.0,0.0,0.0,0.0,0.0,0.0,0.0,0.0,0.0,0.0,0.0,0.0,0.0,0.0,0.0,0.0,0.0,0.0,0.0,0.0,0.0,0.0,0.0,0.0,0.0,0.0,0.0,0.0,0.0,0.0,0.0,0.0,0.0,0.0,0.0,0.0,0.0,0.0,0.0,0.0,0.0,0.0,0.0,0.0,0.0,0.0,0.0,0.0,0.0,0.0,0.0,0.0,0.0,0.0,0.0,0.0,0.0,0.0,0.0,0.6695,0.7024,0.7237,0.7301,0.7267,0.0,0.0,0.0,0.0,0.0,0.0,0.7875,0.8163,0.8425,0.8645,0.8416,0.8337,0.8423,0.6992,0.5477,0.3998,0.2807,0.1469,0.0,0.0,0.0,0.0,0.0,0.0,0.0,0.0,0.0,0.0,0.0,0.0,0.0,0.0,0.0,0.0,0.0,0.0,0.0,0.0,0.0,0.0,0.0,0.0,0.0,0.0,0.0,0.0,0.0,0.0,0.0,0.0,0.0,0.0,0.0,0.0,0.0,0.0,0.0,0.0,0.0,0.0,0.0,0.0,0.0,0.0,0.0,0.0,0.0,0.0,0.0,0.0,0.0,0.0,0.0,0.0,0.0,0.0,0.0,0.0,0.0,0.0,0.0,0.0,0.0,0.0,0.0,0.0,0.0,0.0,0.0,0.0,0.0,0.0,0.0,0.0,0.0,0.0,0.0,0.0,0.0,0.0,0.0,0.0,0.0,0.0,0.0,0.0,0.0,0.0,0.0,0.776,0.7857,0.0,0.0,0.0,0.0,0.7924,0.8258,0.8492,0.8648,0.8937,0.9159,0.9176,0.7873,0.7179,0.7174,0.572,0.4192,0.258,0.2543,0.1587,0.0,0.0,0.0,0.0,0.0,0.0,0.0,0.0,0.0,0.0,0.0,0.0,0.0,0.0,0.0,0.0,0.0,0.0,0.0,0.0,0.0,0.0,0.0,0.0,0.0,0.0,0.0,0.0,0.0,0.0,0.0,0.0,0.0,0.0,0.0,0.0,0.0,0.0,0.0,0.0,0.0,0.0,0.0,0.0,0.0,0.0,0.0,0.0,0.0,0.0,0.0,0.0,0.0,0.0,0.0,0.0,0.0,0.0,0.0,0.0,0.0,0.0,0.0,0.0,0.0,0.0,0.0,0.0,0.0,0.0,0.0,0.0,0.0,0.0,0.0,0.0,0.0,0.0,0.0,0.0,0.0,0.0,0.0,0.0,0.0,0.0,0.0,0.0,0.0,0.0,0.0,0.835,0.847,0.0,0.849,0.8484,0.8507,0.8561,0.8801,0.9036,0.9133,0.9422,0.9629,0.9727,0.9381,0.9171,0.9156,0.7472,0.5839,0.4142,0.3048,0.1636,0.0,0.0,0.0,0.0,0.0,0.0,0.0,0.0,0.0,0.0,0.0,0.0,0.0,0.0,0.0,0.0,0.0,0.0,0.0,0.0,0.0,0.0,0.0,0.0,0.0,0.0,0.0,0.0,0.0,0.0,0.0,0.0,0.0,0.0,0.0,0.0,0.0,0.0,0.0,0.0,0.0,0.0,0.0,0.0,0.0,0.0,0.0,0.0,0.0,0.0,0.0,0.0,0.0,0.0,0.0,0.0,0.0,0.0,0.0,0.0,0.0,0.0,0.0,0.0,0.0,0.0,0.0,0.0,0.0,0.0,0.0,0.0,0.0,0.0,0.0,0.0,0.0,0.0,0.0,0.0,0.0,0.0,0.0,0.0,0.0,0.0,0.0,0.0,0.0,0.0,0.8377,0.8676,0.8981,0.9144,0.9093,0.9178,0.9202,0.9252,0.9401,0.9582,0.9676,0.9869,1.0022,1.0124,1.0226,1.028,1.028,0.9094,0.7632,0.59,0.4169,0.2474,0.0802,0.0244,0.0,0.0,0.0,0.0,0.0,0.0,0.0,0.0,0.0,0.0,0.0,0.0,0.0,0.0,0.0,0.0,0.0,0.0,0.0,0.0,0.0,0.0,0.0,0.0,0.0,0.0,0.0,0.0,0.0,0.0,0.0,0.0,0.0,0.0,0.0,0.0,0.0,0.0,0.0,0.0,0.0,0.0,0.0,0.0,0.0,0.0,0.0,0.0,0.0,0.0,0.0,0.0,0.0,0.0,0.0,0.0,0.0,0.0,0.0,0.0,0.0,0.0,0.0,0.0,0.0,0.0,0.0,0.0,0.0,0.0,0.0,0.0,0.0,0.0,0.0,0.0,0.0,0.0,0.0,0.0,0.0,0.0,0.0,0.0,0.0,0.0,0.7821,0.835,0.873,0.8743,0.9262,0.9568,0.9422,0.9669,0.9897,0.9984,1.0059,1.019,1.028,1.0287,1.029,1.0293,1.0293,1.0293,1.0293,1.029,0.9377,0.7598,0.5964,0.424,0.2524,0.0863,0.0061,0.006,0.006,0.0059,0.0,0.0058,0.0057,0.0,0.0,0.0,0.0,0.0,0.0,0.0,0.0,0.0,0.0,0.0,0.0,0.0,0.0,0.0,0.0,0.0,0.0,0.0,0.0,0.0,0.0,0.0,0.0,0.0,0.0,0.0,0.0,0.0,0.0,0.0,0.0,0.0,0.0,0.0,0.0,0.0,0.0,0.0,0.0,0.0,0.0,0.0,0.0,0.0,0.0,0.0,0.0,0.0,0.0,0.0,0.0,0.0,0.0,0.0,0.0,0.0,0.0,0.0,0.0,0.0,0.0,0.0,0.0,0.0,0.0,0.0,0.0,0.0,0.0,0.0,0.0,0.0,0.0,0.0,0.0,0.0,0.0,0.8418,0.8459,0.8791,0.915,0.9476,0.9701,0.9958,1.0025,1.0107,1.0171,1.0212,1.0215,1.028,1.0426,1.0432,1.0483,1.0595,1.0599,1.0599,1.0599,1.049,0.9514,0.7719,0.7193,0.598,0.418,0.2585,0.1844,0.1835,0.1815,0.1131,0.0117,0.1326,0.108,0.0,0.0,0.0,0.0,0.0,0.0,0.0,0.0,0.0,0.0,0.0,0.0,0.0,0.0,0.0,0.0,0.0,0.0,0.0,0.0,0.0,0.0,0.0,0.0,0.0,0.0,0.0,0.0,0.0,0.0,0.0,0.0,0.0,0.0,0.0,0.0,0.0,0.0,0.0,0.0,0.0,0.0,0.0,0.0,0.0,0.0,0.0,0.0,0.0,0.0,0.0,0.0,0.0,0.0,0.0,0.0,0.0,0.0,0.0,0.0,0.0,0.0,0.0,0.0,0.0,0.0,0.0,0.0,0.0,0.0,0.0,0.0,0.0,0.0,0.0,0.0,0.0,0.8543,0.894,0.9069,0.9235,0.9462,0.9781,1.0012,1.0205,1.0354,1.0426,1.0466,1.0466,1.0466,1.05,1.0582,1.0585,1.0629,1.0717,1.0721,1.0721,1.0721,1.0633,1.0052,0.8936,0.8102,0.7106,0.5951,0.4253,0.3506,0.0,0.3534,0.2937,0.1996,0.2326,0.1886,0.0,0.0,0.0,0.0,0.0,0.0,0.0,0.0,0.0,0.0,0.0,0.0,0.0,0.0,0.0,0.0,0.0,0.0,0.0,0.0,0.0,0.0,0.0,0.0,0.0,0.0,0.0,0.0,0.0,0.0,0.0,0.0,0.0,0.0,0.0,0.0,0.0,0.0,0.0,0.0,0.0,0.0,0.0,0.0,0.0,0.0,0.0,0.0,0.0,0.0,0.0,0.0,0.0,0.0,0.0,0.0,0.0,0.0,0.0,0.0,-0.0276,0.0,0.0,0.0,0.0,0.0,0.0,0.0,0.0,0.0,0.0,0.0,0.0,0.0,0.0,0.0,0.0,0.9002,0.933,0.9618,0.9676,0.973,0.9859,1.0127,1.0361,1.0504,1.0639,1.0721,1.0721,1.0721,1.0721,1.0721,0.0,0.0,0.0,0.0,1.0721,1.0721,1.0721,1.0643,1.049,0.8855,0.8025,0.7778,0.5998,0.5161,0.5161,0.5161,0.501,0.4631,0.3462,0.2706,0.2068,0.056,0.0,0.0,0.0,0.0,0.0,0.0,0.0,0.0,0.0,0.0,0.0,0.0,0.0,0.0,0.0,0.0,0.0,0.0,0.0,0.0,0.0,0.0,0.0,0.0,0.0,0.0,0.0,0.0,0.0,0.0,0.0,0.0,0.0,0.0,0.0,0.0,0.0,0.0,0.0,0.0,0.0,0.0,0.0,0.0,0.0,0.0,0.0,0.0,0.0,0.0,0.0,0.0,0.0,0.0,0.0,0.0,0.0,0.0,-0.0066,0.0,0.0,0.0,0.0,0.0,0.0,0.0,0.0,0.0,0.0,0.0,0.0,0.0,0.0,0.0,0.9133,0.9479,0.9754,0.9876,1.0073,1.0161,1.0188,1.0344,1.051,1.0663,1.0704,1.0721,1.0721,1.0721,1.0721,1.0721,1.0721,0.0,1.0721,1.0721,1.0721,1.0721,1.0721,1.0643,1.049,0.0,0.0,0.9476,0.7723,0.6933,0.6933,0.6933,0.609,0.4807,0.5802,0.4599,0.2068,0.056,0.0,0.0,0.0,0.0,0.0,0.0,0.0,0.0,0.0,0.0,0.0,0.0,0.0,0.0,0.0,0.0,0.0,0.0,0.0,0.0,0.0,0.0,0.0,0.0,0.0,0.0,0.0,0.0,0.0,0.0,0.0,0.0,0.0,0.0,0.0,0.0,0.0,0.0,0.0,0.0,0.0,0.0,0.0,0.0,0.0,0.0,0.0,0.0,0.0,0.0,0.0,0.0,0.0,0.0,0.0,0.0,0.0,0.0,-0.0392,0.0,0.0,0.0,0.0,0.0,0.0,0.0,0.0,0.0,0.0,0.0,0.8065,0.0,0.0,0.9256,0.9554,0.9856,1.0076,1.0154,1.0293,1.0385,1.0385,1.0449,1.0551,1.0707,1.0721,1.0721,1.0721,1.0721,1.0721,1.0721,1.0721,1.0721,1.0721,1.0721,1.0721,1.0721,1.0721,1.068,1.0605,1.0385,1.0239,1.0095,0.9054,0.859,0.859,0.859,0.8056,0.7166,0.7051,0.5536,0.3297,0.2517,0.1324,0.0,0.0,0.0,0.0,0.0,0.0,0.0,0.0,0.0,0.0,0.0,0.0,0.0,0.0,0.0,0.0,0.0,0.0,0.0,0.0,0.0,0.0,0.0,0.0,0.0,0.0,0.0,0.0,0.0,0.0,0.0,0.0,0.0,0.0,0.0,0.0,0.0,0.0,0.0,0.0,0.0,0.0,0.0,0.0,0.0,0.0,0.0,0.0,0.0,0.0,0.0,0.0,0.0,0.0,0.0,0.0,0.0,-0.0227,0.0,0.0,0.0,0.0,0.0,0.0,0.0,0.0,0.7699,0.8039,0.8404,0.8787,0.918,0.9445,0.9696,0.9842,1.012,1.0321,1.0321,1.0446,1.0534,1.0534,1.0534,1.0585,1.0707,1.0721,1.0721,1.0721,1.0721,1.0721,1.0721,1.0721,1.0721,1.0721,1.0721,1.0721,1.0721,1.0721,1.0721,1.0717,1.0422,1.028,1.027,0.9961,0.9822,0.9819,0.9761,0.9673,0.9422,0.7617,0.6102,0.4916,0.4637,0.2996,0.0822,0.0537,0.0422,0.0362,0.0102,0.0,0.0,0.0,0.0,0.0,0.0,0.0,0.0,0.0,0.0,0.0,0.0,0.0,0.0,0.0,0.0,0.0,0.0,0.0,0.0,0.0,0.0,0.0,0.0,0.0,0.0,0.0,0.0,0.0,0.0,0.0,0.0,0.0,0.0,0.0,0.0,0.0,0.0,0.0,0.0,0.0,0.0,0.0,0.0,0.0,0.0,0.0,0.0,0.0,0.0,0.0,0.0,0.0,0.6675,0.6791,0.6997,0.7054,0.7295,0.7607,0.0,0.0,0.8411,0.8598,0.8872,0.919,0.932,0.9598,0.9846,0.9936,1.0273,1.047,1.047,1.0599,1.0694,1.0694,1.0694,1.07,1.0717,1.0721,1.0721,1.0721,1.0721,1.0721,1.0721,1.0721,1.0721,1.0721,1.0721,1.0721,1.0721,1.0721,1.0721,1.0717,1.0422,1.028,1.027,0.9961,0.9822,0.9805,0.9544,0.9422,0.9268,0.7491,0.6601,0.6311,0.5027,0.43,0.3832,0.2476,0.1945,0.1755,0.0457,0.0,0.0,0.0,0.0,0.0,0.0,0.0,0.0,0.0,0.0,0.0,0.0,0.0,0.0,0.0,0.0,0.0,0.0,0.0,0.0,0.0,0.0,0.0,0.0,0.0,0.0,0.0,0.0,0.0,0.0,0.0,0.0,0.0,0.0,0.0,0.0,0.0,0.0,0.0,0.0,0.0,0.0,0.0,0.0,0.0,0.0,0.0,0.0,0.0,0.0,0.0,0.0,0.0,0.7275,0.7333,0.7397,0.7719,0.7896,0.8085,0.8445,0.8642,0.8815,0.9052,0.9269,0.9462,0.9608,0.9886,1.011,0.0,1.0432,1.0626,1.0626,1.0602,1.0585,1.0585,1.0514,1.0531,1.0704,1.0721,1.0721,1.0721,1.0721,1.0721,1.0721,1.0721,1.0721,1.0721,1.0721,1.0721,1.0721,1.0721,1.0721,1.0717,1.0422,1.028,1.027,0.9961,0.9822,0.9815,0.969,0.954,0.9313,0.8609,0.8182,0.7931,0.7315,0.7038,0.6793,0.4405,0.2987,0.2097,0.1494,0.0713,0.0,0.0,0.0,0.0,0.0,0.0,0.0,0.0,0.0,0.0,0.0,0.0,0.0,0.0,0.0,0.0,0.0,0.0,0.0,0.0,0.0,0.0,0.0,0.0,0.0,0.0,0.0,0.0,0.0,0.0,0.0,0.0,0.0,0.0,0.0,0.0,0.0,0.0,0.0,0.0,0.0,0.0,0.0,0.0,0.0,0.0,0.0,0.0,0.0,0.0,0.0,0.0,0.7723,0.7797,0.7862,0.8241,0.8333,0.8448,0.8662,0.8859,0.9059,0.9273,0.9439,0.9591,0.9737,0.9978,1.0181,1.0266,1.049,1.0673,1.0714,1.0588,1.049,1.049,1.0368,1.0378,1.0633,1.0656,1.0673,1.0717,1.0721,1.0721,1.0721,1.0721,1.0721,1.0721,1.0721,1.0721,1.0721,1.0721,1.0721,1.0717,1.0422,1.028,1.027,0.9961,0.9822,0.9819,0.9781,0.9618,0.9378,0.9337,0.9167,0.8885,0.8885,0.8885,0.8647,0.6498,0.4774,0.3358,0.2919,0.2052,0.1167,0.1111,0.0857,0.0555,0.0555,0.0303,0.0,0.0,0.0,0.0,0.0,0.0,0.0,0.0,0.0,0.0,0.0,0.0,0.0,0.0,0.0,0.0,0.0,0.0,0.0,0.0,0.0,0.0,0.0,0.0,0.0,0.0,0.0,0.0,0.0,0.0,0.0,0.0,0.0,0.0,0.0,0.0,0.0,0.0,0.0,0.0,0.0,0.0,0.0,0.0,0.0,0.0,0.7807,0.8028,0.8303,0.832,0.8486,0.8699,0.871,0.8937,0.9207,0.9214,0.934,0.9435,0.9588,0.9737,0.993,1.0232,1.0405,1.0551,1.07,1.0588,1.049,1.049,1.0368,1.0337,0.0,1.05,1.0561,1.0711,1.0721,1.0721,1.0721,1.0721,1.0721,1.0721,1.0721,1.0721,1.0721,1.0721,1.0721,1.0717,1.0422,1.028,1.027,0.9961,0.9822,0.9815,0.9676,0.9527,0.9367,0.9279,0.9072,0.8885,0.8885,0.8885,0.8881,0.8823,0.7841,0.6332,0.4704,0.4128,0.4063,0.3939,0.3015,0.1963,0.1963,0.1008,0.0,0.0,0.0,0.0,0.0,0.0,0.0,0.0,0.0,0.0,0.0,0.0,0.0,0.0,0.0,0.0,0.0,0.0,0.0,0.0,0.0,0.0,0.0,0.0,0.0,0.0,0.0,0.0,0.0,0.0,0.0,0.0,0.0,0.0,0.0,0.0,0.0,0.0,0.0,0.0,0.0,0.0,0.0,0.0,0.0,0.0,0.8035,0.8191,0.8319,0.8513,0.8635,0.876,0.896,0.9139,0.9238,0.934,0.9323,0.9333,0.9432,0.9581,0.9778,1.0076,1.0334,1.0544,1.07,1.0588,1.0456,1.0365,1.031,0.0,0.0,0.0,0.0,1.07,1.0626,1.0612,1.0714,1.0721,1.0721,1.0721,1.0721,1.0721,1.0721,1.0721,1.0721,1.0717,1.0422,1.0171,0.9971,0.9869,0.9822,0.9819,0.9771,0.9608,0.9378,0.9323,0.9161,0.8885,0.8885,0.8885,0.8885,0.8885,0.851,0.7813,0.625,0.5056,0.4169,0.4039,0.3715,0.3316,0.3316,0.3015,0.2665,0.2665,0.2013,0.131,0.131,0.0656,0.0,0.0,0.0,0.0,0.0,0.0,0.0,0.0,0.0,0.0,0.0,0.0,0.0,0.0,0.0,0.0,0.0,0.0,0.0,0.0,0.0,0.0,0.0,0.0,0.0,0.0,0.0,0.0,0.0,0.0,0.0,0.0,0.0,0.0,0.0,0.0,0.0,0.0,0.0,0.0,0.8255,0.8425,0.8567,0.8808,0.8869,0.892,0.9166,0.9129,0.9025,0.9123,0.9018,0.9016,0.9113,0.9222,0.9435,0.9832,1.0127,1.0361,1.0677,1.0588,1.046,1.0368,1.0314,1.03,0.0,0.0,0.0,1.0697,1.0629,1.0616,1.0714,1.0721,1.0721,1.0721,1.0721,1.0721,1.0721,1.0721,1.0666,1.0561,1.0371,1.012,0.9822,0.9822,0.9822,0.9822,0.9822,0.9686,0.9459,0.9405,0.9235,0.9011,0.8902,0.8885,0.8885,0.8885,0.8842,0.8578,0.7572,0.655,0.566,0.5505,0.512,0.4718,0.4718,0.4368,0.4016,0.4016,0.3366,0.2715,0.2715,0.1711,0.0706,0.0706,0.0353,0.0,0.0,0.0,0.0,0.0,0.0,0.0,0.0,0.0,0.0,0.0,0.0,0.0,0.0,0.0,0.0,0.0,0.0,0.0,0.0,0.0,0.0,0.0,0.0,0.0,0.0,0.0,0.0,0.0,0.0,0.0,0.0,0.0,0.0,0.0,0.0,0.0,0.8462,0.8723,0.8984,0.9183,0.9214,0.9207,0.92,0.8916,0.871,0.8699,0.8577,0.8516,0.0,0.0,0.895,0.969,0.9822,1.0039,1.0636,1.0595,1.05,0.0,0.0,0.0,0.0,0.0,0.0,1.07,0.0,1.0711,1.0721,1.0721,1.0721,1.0721,1.0721,1.0721,1.0721,1.0721,1.0571,1.028,1.028,1.012,0.9822,0.9822,0.9822,0.9822,0.9822,0.9737,0.9588,0.9442,0.9286,0.9183,0.8991,0.8885,0.8881,0.8875,0.8828,0.8676,0.8523,0.8384,0.8245,0.8089,0.7135,0.6079,0.6079,0.5222,0.4216,0.4216,0.4166,0.4116,0.4116,0.3115,0.2113,0.2113,0.1109,0.0202,0.0202,0.0151,0.0101,0.0101,0.0051,0.0,0.0,0.0,0.0,0.0,0.0,0.0,0.0,0.0,0.0,0.0,0.0,0.0,0.0,0.0,0.0,0.0,0.0,0.0,0.0,0.0,0.0,0.0,0.0,0.0,0.0,0.0,0.0,0.0,0.0,0.0,0.8723,0.8957,0.9133,0.9286,0.9296,0.918,0.9018,0.8845,0.8679,0.8564,0.8425,0.837,0.0,0.0,0.0,0.9561,0.9846,0.0,1.0653,1.0687,0.0,1.0507,0.0,1.0578,1.05,1.0561,0.0,0.0,1.0616,1.0599,1.0714,1.0721,1.0721,1.0721,1.0721,1.0721,1.0721,1.0721,1.0571,1.028,1.028,1.012,0.9822,0.9822,0.9822,0.9822,0.9822,0.9676,0.9435,0.9398,0.9228,0.8991,0.8898,0.8885,0.8868,0.8811,0.8672,0.852,0.8374,0.835,0.8245,0.8089,0.7786,0.7487,0.7487,0.7232,0.698,0.698,0.6276,0.5475,0.5475,0.452,0.3465,0.3465,0.3215,0.2964,0.2964,0.2213,0.1511,0.1511,0.0706,0.0,0.0,0.0,0.0,0.0,0.0,0.0,0.0,0.0,0.0,0.0,0.0,0.0,0.0,0.0,0.0,0.0,0.0,0.0,0.0,0.0,0.0,0.0,0.0,0.0,0.0,0.0,0.0,0.0,0.0,0.0,0.8814,0.9144,0.9357,0.9374,0.9317,0.9198,0.8988,0.8767,0.8547,0.8333,0.8225,0.8153,0.8106,0.8326,0.0,0.0,0.0,0.0,1.0548,1.0677,1.0687,0.0,1.0666,0.0,1.0602,1.067,1.0721,0.0,1.0639,1.0629,1.0714,1.0721,1.0721,1.0721,1.0721,1.0721,1.0721,1.0653,1.0507,1.028,1.0212,1.0053,0.9822,0.9822,0.9822,0.9822,0.0,0.9693,0.9476,0.9408,0.9242,0.9025,0.8908,0.8885,0.8871,0.8842,0.8672,0.8472,0.8391,0.8279,0.8153,0.8019,0.7988,0.7988,0.7988,0.7988,0.7988,0.7988,0.7434,0.6883,0.6883,0.5874,0.487,0.487,0.4418,0.4016,0.4016,0.3416,0.2864,0.2864,0.1812,0.0857,0.0857,0.0404,0.0,0.0,0.0,0.0,0.0,0.0,0.0,0.0,0.0,0.0,0.0,0.0,0.0,0.0,0.0,0.0,0.0,0.0,0.0,0.0,0.0,0.0,0.0,0.0,0.0,0.0,0.0,0.0,0.8925,0.9283,0.9551,0.9439,0.9381,0.9273,0.8977,0.8659,0.8343,0.8015,0.7944,0.7853,0.7648,0.795,0.8394,0.8807,0.0,0.9791,1.0405,1.0605,1.0697,1.0717,1.0721,1.0721,1.0721,1.0721,1.0721,1.0721,1.0721,1.0721,1.0721,1.0721,1.0721,1.0721,1.0721,1.0721,1.0721,1.0568,1.0422,1.028,1.0124,0.9906,0.9822,0.9822,0.9822,0.9822,0.0,0.0,0.9568,0.9435,0.9279,0.9169,0.8988,0.8885,0.8881,0.8861,0.8726,0.8479,0.8462,0.8272,0.7988,0.7988,0.7988,0.7988,0.7988,0.7988,0.7988,0.7988,0.7988,0.7988,0.7988,0.7135,0.6279,0.6279,0.5372,0.4516,0.4516,0.4366,0.4216,0.4016,0.3065,0.2213,0.2013,0.1058,0.0202,0.0051,0.0149,0.0244,0.0239,0.0092,0.0,0.0,0.0,0.0,0.0,0.0,0.0,0.0,0.0,0.0,0.0,0.0,0.0,0.0,0.0,0.0,0.0,0.0,0.0,0.0,0.0,0.0,0.9201,0.9361,0.9445,0.9544,0.9381,0.9173,0.8818,0.8421,0.0,0.7885,0.7756,0.7658,0.7607,0.7862,0.8217,0.879,0.9208,0.9673,1.0392,1.0514,1.0578,0.0,1.0721,1.0721,0.0,0.0,0.0,0.0,0.0,1.0721,1.0721,1.0721,1.0721,1.0721,1.0721,1.0721,1.0721,1.0568,1.0422,1.028,1.0124,0.9906,0.9822,0.9822,0.9822,0.9822,0.0,0.0,0.9418,0.9391,0.9222,0.8974,0.8892,0.8885,0.8868,0.8798,0.8635,0.8465,0.8347,0.8191,0.7988,0.7988,0.7988,0.7988,0.7988,0.7988,0.7988,0.7988,0.7988,0.7988,0.7988,0.7839,0.7637,0.7637,0.7484,0.7282,0.7282,0.6429,0.5322,0.4216,0.3815,0.3316,0.2213,0.1812,0.126,0.0151,0.0942,0.1604,0.1479,0.0607,0.0,0.0,0.0,0.0,0.0,0.0,0.0,0.0,0.0,0.0,0.0,0.0,0.0,0.0,0.0,0.0,0.0,0.0,0.0,0.0,0.0,0.0,0.9279,0.9439,0.95,0.9493,0.932,0.9091,0.8584,0.0,0.0,0.7645,0.759,0.755,0.739,0.7685,0.8083,0.8373,0.8852,0.9384,1.0049,1.0212,0.0,1.0683,1.0721,0.0,0.0,0.0,0.0,0.0,0.0,1.0721,1.0721,1.0721,1.0721,1.0721,1.0721,1.0721,1.0721,1.0493,1.0348,1.0276,1.0042,0.989,0.9822,0.9822,0.9822,0.9822,0.9822,0.0,0.9381,0.9381,0.9205,0.8885,0.8885,0.8885,0.8875,0.8801,0.8682,0.8472,0.8404,0.8231,0.7988,0.7988,0.7988,0.7988,0.7988,0.7988,0.7988,0.7988,0.7988,0.7988,0.7988,0.7988,0.7988,0.7988,0.7988,0.7988,0.7988,0.7487,0.683,0.6224,0.5522,0.4822,0.4169,0.3516,0.2815,0.2163,0.2644,0.3004,0.2951,0.2371,0.1714,0.099,0.0942,0.0673,0.0045,0.0,0.0,0.0,0.0,0.0,0.0,0.0,0.0,0.0,0.0,0.0,0.0,0.0,0.0,0.0,0.0,0.0,0.9215,0.9398,0.9483,0.9361,0.9251,0.8975,0.8443,0.8102,0.0,0.7451,0.7441,0.7428,0.7139,0.7506,0.7877,0.0,0.8413,0.9025,0.9683,0.9842,1.0105,0.0,0.0,0.0,0.0,0.0,0.0,0.0,0.0,0.0,1.0721,1.0721,1.0721,1.0721,1.0721,1.0721,1.0721,1.0429,1.028,1.0276,0.9968,0.9822,0.9822,0.9822,0.9822,0.9822,0.9822,0.0,0.0,0.9381,0.9205,0.8885,0.8885,0.8885,0.8885,0.8885,0.8747,0.8482,0.8482,0.8286,0.7988,0.7988,0.7988,0.7988,0.7988,0.7988,0.7988,0.7988,0.7988,0.7988,0.7988,0.7988,0.7988,0.7988,0.7988,0.7988,0.7988,0.7988,0.7988,0.7988,0.7135,0.6331,0.6029,0.5122,0.4316,0.4066,0.4268,0.444,0.4409,0.4516,0.412,0.2757,0.2109,0.1299,0.009,0.0,0.0,0.0,0.0,0.0,0.0,0.0,0.0,0.0,0.0,0.0,0.0,0.0,0.0,0.0,0.0,0.0,0.8878,0.9086,0.9248,0.9234,0.896,0.8665,0.8343,0.0,0.759,0.7453,0.7268,0.7129,0.7102,0.7299,0.7567,0.7924,0.8204,0.8635,0.9507,0.9751,1.0008,0.0,0.0,0.0,0.0,0.0,0.0,0.0,0.0,0.0,0.0,1.0721,1.0721,1.0721,1.0721,1.0721,1.0721,1.0429,1.028,1.0276,0.9968,0.9822,0.9822,0.9822,0.9822,0.9822,0.0,0.0,0.0,0.9381,0.9205,0.8885,0.8885,0.8885,0.8885,0.8885,0.8747,0.8482,0.8482,0.8286,0.7988,0.7988,0.7988,0.7988,0.7988,0.7988,0.7988,0.7988,0.7988,0.7988,0.7988,0.7988,0.7988,0.7988,0.7988,0.7988,0.7988,0.7988,0.7988,0.7988,0.7889,0.7437,0.6229,0.5879,0.5425,0.4166,0.5022,0.5787,0.5628,0.6581,0.6733,0.539,0.3165,0.1299,0.009,0.0,0.0,0.0,0.0,0.0,0.0,0.0,0.0,0.0,0.0,0.0,0.0,0.0,0.0,0.0,0.0,0.0,0.8794,0.9045,0.9187,0.9045,0.8866,0.8584,0.8102,0.779,0.7529,0.7285,0.7139,0.7095,0.7095,0.7265,0.7458,0.7733,0.7899,0.8245,0.8967,0.9198,0.0,0.0,0.0,0.0,0.0,0.0,0.0,0.0,0.0,0.0,0.0,1.0721,1.0721,1.0721,1.0721,1.0721,1.0721,1.0429,1.028,1.0276,0.9968,0.9822,0.9822,0.9822,0.9822,0.9822,0.0,0.0,0.0,0.9381,0.9205,0.8885,0.8885,0.8885,0.8885,0.8885,0.8747,0.8482,0.8482,0.8286,0.7988,0.7988,0.7988,0.7988,0.7988,0.7988,0.7988,0.7988,0.7988,0.7988,0.7988,0.7988,0.7988,0.7988,0.7988,0.7988,0.7988,0.7988,0.7988,0.7988,0.7988,0.7839,0.7285,0.7185,0.7033,0.6476,0.688,0.7164,0.7109,0.7404,0.7101,0.5865,0.4645,0.3173,0.1254,0.1076,0.0762,0.0045,0.0,0.0,0.0,0.0,0.0,0.0,0.0,0.0,0.0,0.0,0.0,0.0,0.0,0.0,0.8642,0.8845,0.8985,0.8828,0.8689,0.8445,0.7929,0.7702,0.7512,0.7159,0.7095,0.7095,0.7095,0.7227,0.737,0.7567,0.7685,0.7974,0.8621,0.8842,0.0,0.0,0.0,0.0,0.0,0.0,0.0,0.0,0.0,0.0,0.0,1.0721,1.0721,1.0721,1.0721,1.07,1.0653,1.0405,1.0256,1.0209,0.9947,0.9822,0.9822,0.9822,0.9822,0.9819,0.0,0.0,0.0,0.9334,0.9164,0.8885,0.8885,0.8885,0.8885,0.8885,0.8747,0.8482,0.8482,0.8286,0.7988,0.7988,0.7988,0.7988,0.7988,0.7988,0.7988,0.7988,0.7988,0.7988,0.7988,0.7988,0.7988,0.7988,0.7988,0.7988,0.7988,0.7988,0.7988,0.7988,0.7988,0.7988,0.7988,0.7988,0.7988,0.7988,0.7988,0.7988,0.7988,0.7784,0.7265,0.6405,0.6085,0.4954,0.2547,0.2325,0.1969,0.1121,0.0718,0.0539,0.0539,0.018,0.0,0.0,0.0,0.0,0.0,0.0,0.0,0.0,0.0,0.0,0.8235,0.8381,0.8489,0.8486,0.8381,0.8194,0.7882,0.7702,0.7512,0.7159,0.7095,0.7095,0.7095,0.7098,0.7196,0.755,0.76,0.7862,0.8608,0.8842,0.0,0.0,0.0,0.0,0.0,0.0,0.0,0.0,0.0,0.0,0.0,1.0721,1.0721,1.0721,1.0721,1.0649,1.0493,1.0351,1.0205,0.9987,0.9893,0.9822,0.9822,0.9822,0.9822,0.0,0.0,0.0,0.0,0.9275,0.9069,0.8885,0.8885,0.8885,0.8885,0.8885,0.8747,0.8482,0.8482,0.8286,0.7988,0.7988,0.7988,0.7988,0.7988,0.7988,0.7988,0.7988,0.7988,0.7988,0.7988,0.7988,0.7988,0.7988,0.7988,0.7988,0.7988,0.7988,0.7988,0.7988,0.7988,0.7988,0.7988,0.7988,0.7988,0.7988,0.7988,0.7988,0.7988,0.7784,0.76,0.76,0.7277,0.611,0.3792,0.357,0.357,0.357,0.2458,0.179,0.179,0.0628,0.0,0.0,0.0,0.0,0.0,0.0,0.0,0.0,0.0,0.0,0.7916,0.8143,0.8286,0.8075,0.7991,0.7879,0.758,0.7475,0.7387,0.7139,0.7095,0.7095,0.7095,0.7095,0.7227,0.7678,0.7743,0.7936,0.0,0.0,0.0,0.0,0.0,0.0,0.0,0.0,0.0,0.0,0.0,0.0,0.0,1.0622,1.0612,1.0717,1.0619,1.0541,1.049,1.0246,1.0034,0.9984,0.9893,0.9822,0.9822,0.9822,0.0,0.0,0.0,0.0,0.0,0.9228,0.9069,0.8885,0.8885,0.8885,0.8885,0.8885,0.8811,0.8621,0.852,0.8357,0.818,0.8022,0.7988,0.7988,0.7988,0.7988,0.7988,0.7988,0.7988,0.7988,0.7988,0.7988,0.7988,0.7988,0.7988,0.7988,0.7988,0.7988,0.7988,0.7988,0.7988,0.7988,0.7988,0.7988,0.7988,0.7988,0.7988,0.7988,0.7988,0.7868,0.7706,0.7611,0.7417,0.6619,0.4961,0.4821,0.4463,0.3659,0.326,0.2681,0.1835,0.1433,0.0852,0.0,0.0,0.0,0.0,0.0,0.0,0.0,0.0,0.0,0.7577,0.7828,0.7974,0.778,0.7733,0.7668,0.7473,0.7415,0.7326,0.7129,0.7095,0.7095,0.7095,0.7095,0.7223,0.7665,0.7733,0.0,0.0,0.0,0.0,0.0,0.0,0.0,0.0,0.0,0.0,0.0,0.0,0.0,0.0,0.0,1.0456,1.0551,1.0463,1.0385,1.0324,1.0078,0.9957,0.9899,0.9866,0.9822,0.9819,0.9768,0.0,0.0,0.0,0.0,0.0,0.9093,0.9018,0.8885,0.8885,0.8885,0.8885,0.8885,0.8842,0.8689,0.8533,0.8387,0.8245,0.8089,0.7988,0.7988,0.7988,0.7988,0.7988,0.7988,0.7988,0.7988,0.7988,0.7988,0.7988,0.7988,0.7988,0.7988,0.7988,0.7988,0.7988,0.7988,0.7988,0.7988,0.7988,0.7988,0.7988,0.7988,0.7988,0.7988,0.7988,0.7906,0.7756,0.7614,0.7461,0.7034,0.6127,0.6027,0.5711,0.4949,0.4505,0.3929,0.3172,0.2726,0.1924,0.0718,0.0673,0.0449,0.0,0.0,0.0,0.0,0.0,0.0,0.0,0.7428,0.755,0.7539,0.7536,0.7499,0.7402,0.7368,0.0,0.7109,0.7082,0.7088,0.7109,0.7112,0.7216,0.758,0.7631,0.0,0.0,0.0,0.0,0.0,0.0,0.0,0.0,0.0,0.0,0.0,0.0,0.0,0.0,0.0,1.0263,1.0263,1.0253,1.0185,0.9987,0.9977,0.9899,0.9822,0.9822,0.9815,0.9802,0.9669,0.0,0.0,0.0,0.0,0.0,0.8994,0.8885,0.8885,0.8885,0.8885,0.8885,0.8885,0.8794,0.8703,0.8537,0.8394,0.8258,0.8092,0.7988,0.7988,0.7988,0.7988,0.7988,0.7988,0.7988,0.7988,0.7988,0.7988,0.7988,0.7988,0.7988,0.7988,0.7988,0.7988,0.7988,0.7988,0.7988,0.7988,0.7988,0.7988,0.7988,0.7988,0.7988,0.7988,0.7988,0.7906,0.7756,0.7614,0.7461,0.7309,0.7109,0.7095,0.7095,0.7095,0.6115,0.5492,0.5403,0.433,0.317,0.1969,0.1924,0.1344,0.0135,0.0135,0.009,0.0,0.0,0.0,0.6695,0.0,0.7058,0.6943,0.6912,0.6902,0.0,0.6858,0.6881,0.692,0.6933,0.7004,0.7275,0.7316,0.7455,0.782,0.0,0.0,0.0,0.0,0.0,0.0,0.0,0.0,0.0,0.0,0.0,0.0,0.0,0.0,0.0,0.0,1.0041,1.0041,0.9992,0.9968,0.9987,0.9872,0.9856,0.9822,0.9822,0.9764,0.9659,0.9625,0.0,0.0,0.0,0.0,0.8988,0.8898,0.8885,0.8885,0.8885,0.8885,0.8885,0.8885,0.8861,0.8845,0.8574,0.8462,0.8387,0.8073,0.7988,0.7988,0.7988,0.7988,0.7988,0.7988,0.7988,0.7988,0.7988,0.7988,0.7988,0.7988,0.7988,0.7988,0.7988,0.7988,0.7988,0.7988,0.7988,0.7988,0.7988,0.7988,0.7988,0.7988,0.7988,0.7988,0.7988,0.7906,0.7756,0.7614,0.7461,0.7309,0.7109,0.7095,0.7095,0.7095,0.683,0.6293,0.5447,0.5134,0.4419,0.3215,0.317,0.2592,0.1389,0.1389,0.0897,0.0,0.0,0.0,0.6416,0.6695,0.6964,0.6922,0.6902,0.6902,0.6902,0.6797,0.6722,0.6807,0.6836,0.6953,0.7224,0.7322,0.7495,0.0,0.7944,0.0,0.0,0.0,0.0,0.0,0.0,0.0,0.0,0.0,0.0,0.0,0.0,0.0,0.0,0.0,0.9883,0.9883,0.9866,0.9863,0.9883,0.9863,0.9822,0.9822,0.9754,0.9683,0.9605,0.9462,0.0,0.0,0.0,0.0,0.8885,0.8885,0.8885,0.8885,0.8885,0.8885,0.8885,0.8885,0.8841,0.8801,0.8564,0.8394,0.8252,0.8042,0.7988,0.7988,0.7988,0.7988,0.7988,0.7988,0.7988,0.7988,0.7988,0.7988,0.7988,0.7988,0.7988,0.7988,0.7988,0.7988,0.7988,0.7988,0.7988,0.7988,0.7988,0.7988,0.7988,0.7988,0.7988,0.7988,0.7988,0.7917,0.7862,0.7712,0.7624,0.7512,0.7363,0.735,0.7247,0.7105,0.7207,0.6975,0.634,0.6296,0.5726,0.4463,0.3881,0.326,0.2637,0.2057,0.1478,0.0807,0.0269,0.0,0.6354,0.6725,0.7082,0.7011,0.7031,0.7058,0.7034,0.6878,0.6709,0.6729,0.6841,0.6943,0.7132,0.7319,0.0,0.0,0.0,0.0,0.0,0.0,0.0,0.0,0.0,0.0,0.0,0.0,0.0,0.0,0.0,0.0,0.0,0.0,0.0,0.9822,0.9822,0.9822,0.9822,0.9822,0.9822,0.9819,0.9676,0.9598,0.9564,0.934,0.9197,0.0,0.0,0.0,0.8885,0.8885,0.8885,0.8885,0.8885,0.8885,0.8881,0.8858,0.8821,0.8686,0.8509,0.8269,0.7988,0.7988,0.7988,0.7988,0.7988,0.7988,0.7988,0.7988,0.7988,0.7988,0.7988,0.7988,0.7988,0.7988,0.7988,0.7988,0.7988,0.7988,0.7988,0.7988,0.7988,0.7988,0.7988,0.7988,0.7988,0.7988,0.7988,0.7988,0.7988,0.7968,0.7907,0.7824,0.779,0.7729,0.7611,0.76,0.7489,0.7183,0.7333,0.7453,0.7453,0.7453,0.6885,0.5773,0.4717,0.408,0.3901,0.2864,0.2236,0.2057,0.0852,0.0269,0.6566,0.6881,0.7004,0.6668,0.677,0.6883,0.6797,0.6732,0.6736,0.6825,0.6869,0.7007,0.7455,0.755,0.7706,0.0,0.0,0.0,0.0,0.0,0.0,0.0,0.0,0.0,0.0,0.0,0.0,0.0,0.0,0.0,0.0,0.0,0.0,0.9822,0.9822,0.9822,0.9822,0.9822,0.9822,0.9819,0.9676,0.954,0.9412,0.9292,0.9086,0.0,0.0,0.8885,0.8885,0.8885,0.8885,0.8885,0.8885,0.8885,0.8868,0.8794,0.873,0.8672,0.8397,0.8187,0.7988,0.7988,0.7988,0.7988,0.7988,0.7988,0.7988,0.7988,0.7988,0.7988,0.7988,0.7988,0.7988,0.7988,0.7988,0.7988,0.7988,0.7988,0.7988,0.7988,0.7988,0.7988,0.7988,0.7988,0.7988,0.7988,0.7988,0.7988,0.7988,0.7877,0.7838,0.7814,0.7702,0.7624,0.76,0.76,0.758,0.7533,0.7553,0.7563,0.7563,0.7563,0.746,0.7246,0.6985,0.6324,0.5273,0.5001,0.4332,0.3303,0.2102,0.1522,0.6467,0.6739,0.6933,0.677,0.7007,0.7272,0.7204,0.7058,0.6913,0.6987,0.7109,0.7255,0.0,0.0,0.7889,0.8421,0.0,0.0,0.0,0.0,0.0,0.0,0.0,0.0,0.0,0.0,0.0,0.0,0.0,0.0,0.0,0.0,0.0,0.0,0.9822,0.9822,0.9822,1.0516,1.0475,0.9703,0.9557,0.9405,0.9309,0.9103,0.9001,0.8885,0.0,0.8885,0.8885,0.8885,0.8885,0.8885,0.8885,0.8834,0.8788,0.8557,0.8472,0.8442,0.8221,0.8099,0.7988,0.7988,0.7988,0.7988,0.7988,0.7988,0.7988,0.7988,0.7988,0.7988,0.7988,0.7988,0.7988,0.7988,0.7988,0.7988,0.7988,0.7988,0.7988,0.7988,0.7988,0.7988,0.7988,0.7988,0.7988,0.7988,0.7988,0.7988,0.7988,0.7928,0.7884,0.7884,0.7875,0.7838,0.7838,0.7838,0.7801,0.7719,0.7712,0.7712,0.7712,0.7641,0.76,0.76,0.7448,0.7178,0.6697,0.5874,0.5251,0.4748,0.3384,0.2831,0.6375,0.6586,0.6848,0.691,0.7238,0.7512,0.7584,0.739,0.7159,0.7196,0.737,0.7509,0.0,0.7824,0.0,0.0,0.0,0.0,0.0,0.0,0.0,0.0,0.0,0.0,0.0,0.0,0.0,0.0,0.0,0.0,0.0,0.0,0.0,0.0,1.001,1.019,1.019,1.1531,1.1548,1.0136,1.028,1.0284,1.0209,1.0046,0.9754,0.9427,0.9427,0.921,0.8881,0.8844,0.8831,0.8828,0.8845,0.874,0.8581,0.8353,0.8248,0.8201,0.8029,0.7988,0.7988,0.7988,0.7988,0.7988,0.7988,0.7988,0.7988,0.7988,0.7988,0.7988,0.7988,0.7988,0.7988,0.7988,0.7988,0.7988,0.7988,0.7988,0.7988,0.7988,0.7988,0.7988,0.7988,0.7988,0.7988,0.7988,0.7988,0.7988,0.7988,0.7988,0.7988,0.7988,0.7988,0.7988,0.7988,0.7988,0.7941,0.7872,0.7865,0.7865,0.7865,0.776,0.7702,0.7702,0.7553,0.7533,0.7648,0.6607,0.6125,0.6206,0.4756,0.4127,0.6556,0.6586,0.6603,0.6977,0.7105,0.7203,0.7533,0.7472,0.7397,0.7539,0.7682,0.7784,0.0,0.8143,0.0,0.0,0.0,0.0,0.0,0.0,0.0,0.0,0.0,0.0,0.0,0.0,0.0,0.0,0.0,0.0,0.0,0.0,0.0,0.0,0.0,1.1405,1.1405,1.2817,1.2906,1.1644,1.2706,1.3174,1.321,1.3044,1.224,1.0945,1.0945,1.0131,0.8871,0.8784,0.8726,0.8713,0.857,0.8428,0.8299,0.833,0.818,0.8005,0.7992,0.7988,0.7988,0.7988,0.7988,0.7988,0.7988,0.7988,0.7988,0.7988,0.7988,0.7988,0.7988,0.7988,0.7988,0.7988,0.7988,0.7988,0.7988,0.7988,0.7988,0.7988,0.7988,0.7988,0.7988,0.7988,0.7988,0.7988,0.7988,0.7988,0.7988,0.7988,0.7988,0.7988,0.7988,0.7988,0.7988,0.7988,0.7985,0.7975,0.7975,0.7975,0.7975,0.7965,0.7958,0.7958,0.7858,0.7784,0.7794,0.7557,0.7446,0.7453,0.6086,0.5476,0.6198,0.6444,0.6654,0.6824,0.7078,0.7339,0.7553,0.7695,0.7831,0.7984,0.813,0.8201,0.8113,0.0,0.0,0.0,0.0,0.0,0.0,0.0,0.0,0.0,0.0,0.0,0.0,0.0,0.0,0.0,0.0,0.0,0.0,0.0,0.0,0.0,0.0,1.1483,1.1483,1.379,1.4715,1.4245,1.374,1.3477,1.3391,1.3305,1.2994,1.2394,1.141,1.0663,1.0066,0.8998,0.8567,0.8554,0.8408,0.8371,0.831,0.8163,0.8089,0.7988,0.7988,0.7988,0.7988,0.7988,0.7988,0.7988,0.7988,0.7988,0.7988,0.7988,0.7988,0.7988,0.7988,0.7988,0.7988,0.7988,0.7988,0.7988,0.7988,0.7988,0.7988,0.7988,0.7988,0.7988,0.7988,0.7988,0.7988,0.7988,0.7988,0.7988,0.7988,0.7988,0.7988,0.7988,0.7988,0.7988,0.7988,0.7988,0.7988,0.7988,0.7988,0.7988,0.7988,0.7897,0.7894,0.7988,0.7889,0.7858,0.7904,0.7804,0.778,0.7816,0.7057,0.6774,0.6101,0.6325,0.6597,0.6736,0.7004,0.7295,0.7543,0.7828,0.8032,0.8238,0.8347,0.8397,0.8347,0.0,0.0,0.0,0.0,0.0,0.0,0.0,0.0,0.0,0.0,0.0,0.0,0.0,0.0,0.0,0.0,0.0,0.0,0.0,0.0,0.0,0.0,1.2262,1.2707,1.5108,1.6295,1.6295,1.5307,1.4722,1.4669,1.4669,1.4356,1.3741,1.2201,1.1261,1.0615,0.9097,0.8643,0.8944,0.8384,0.8447,0.8783,0.8225,0.7988,0.7988,0.7988,0.7988,0.7988,0.7988,0.7988,0.7988,0.7988,0.7988,0.7988,0.7988,0.7988,0.7988,0.7988,0.7988,0.7988,0.7988,0.7988,0.7988,0.7988,0.7988,0.7988,0.7988,0.7988,0.7988,0.7988,0.7988,0.7988,0.7988,0.7988,0.7988,0.7988,0.7988,0.7988,0.7988,0.7988,0.7988,0.7988,0.7988,0.7988,0.7988,0.7988,0.7988,0.7988,0.7891,0.7884,0.7988,0.7887,0.7884,0.7988,0.7884,0.7887,0.7982,0.7675,0.7543,0.6296,0.6296,0.6409,0.6817,0.6889,0.7011,0.7502,0.7831,0.8035,0.8245,0.8327,0.8371,0.8459,0.8482,0.0,0.0,0.0,0.0,0.0,0.0,0.0,0.0,0.0,0.0,0.0,0.0,0.0,0.0,0.0,0.0,0.0,0.0,0.0,0.0,0.0,0.0,1.5417,1.6876,1.7582,1.7582,1.7582,1.7582,1.7582,1.7582,1.6669,1.4931,1.3603,1.2011,1.0323,0.8885,0.8978,0.985,0.8528,0.8825,0.985,0.8528,0.7988,0.7988,0.7988,0.7988,0.7988,0.7988,0.7988,0.7988,0.7988,0.7988,0.7988,0.7988,0.7988,0.7988,0.7988,0.7988,0.7988,0.7988,0.7988,0.7988,0.7988,0.7988,0.7988,0.7988,0.7988,0.7988,0.7988,0.7988,0.7988,0.7988,0.7988,0.7988,0.7988,0.7988,0.7988,0.7988,0.7988,0.7988,0.7988,0.7988,0.7988,0.7988,0.7988,0.7988,0.7988,0.7988,0.7988,0.7988,0.7988,0.7988,0.7988,0.7988,0.7988,0.7985,0.7882,0.7736,0.5966,0.6207,0.6508,0.6709,0.7163,0.7584,0.7719,0.7984,0.8306,0.8665,0.8655,0.8591,0.8635,0.0,0.0,0.0,0.0,0.0,0.0,0.0,0.0,0.0,0.0,0.0,0.0,0.0,0.0,0.0,0.0,0.0,0.0,0.0,0.0,0.0,0.0,0.0,1.5417,1.6876,1.7582,1.7582,1.7427,1.7434,1.7575,1.742,1.7015,1.6439,1.4698,1.3132,1.1704,1.0108,0.9706,1.0047,1.0534,1.0435,0.9948,0.9558,0.8825,0.7988,0.7988,0.7988,0.7988,0.7988,0.7988,0.7988,0.7988,0.7988,0.7988,0.7988,0.7988,0.7988,0.7988,0.7988,0.7988,0.7988,0.7988,0.7988,0.7988,0.7988,0.7988,0.7988,0.7988,0.7988,0.7988,0.7988,0.7988,0.7988,0.7988,0.7988,0.7988,0.7988,0.7988,0.7988,0.7988,0.7988,0.7988,0.7988,0.7988,0.7988,0.7988,0.7988,0.7988,0.7988,0.7988,0.7988,0.7988,0.7988,0.7988,0.7988,0.7988,0.7985,0.7882,0.7736,0.6166,0.6441,0.679,0.7004,0.7394,0.7773,0.7953,0.8136,0.8364,0.0,0.8682,0.8638,0.8699,0.0,0.0,0.0,0.0,0.0,0.0,0.0,0.0,0.0,0.0,0.0,0.0,0.0,0.0,0.0,0.0,0.0,0.0,0.0,0.0,0.0,0.0,0.0,1.628,1.7147,1.7522,1.746,1.7286,1.7233,1.7228,1.7105,1.6958,1.6723,1.4937,1.3422,1.2137,1.1173,1.1068,1.1551,1.1799,1.175,1.1404,1.0386,0.9509,0.8726,0.8187,0.7988,0.7988,0.7988,0.7988,0.7988,0.7988,0.7988,0.8088,0.8627,0.8775,0.8775,0.8775,0.9164,0.9262,0.8237,0.7988,0.7988,0.7988,0.7988,0.7988,0.7988,0.7988,0.7988,0.7988,0.7988,0.7988,0.7988,0.7988,0.7988,0.7988,0.7988,0.7988,0.7988,0.7988,0.7988,0.7988,0.7988,0.7988,0.7988,0.7988,0.7988,0.7988,0.7988,0.7988,0.7988,0.7988,0.7988,0.7988,0.7988,0.7958,0.7897,0.7851,0.7702,0.662,0.6875,0.7136,0.7516,0.7617,0.7746,0.8157,0.8248,0.8292,0.8452,0.0,0.8523,0.0,0.0,0.0,0.0,0.0,0.0,0.0,0.0,0.0,0.0,0.0,0.0,0.0,0.0,0.0,0.0,0.0,0.0,0.0,0.0,0.0,0.0,0.0,0.0,1.7502,1.7502,1.742,0.0,1.7132,1.6978,1.6667,1.6667,1.6506,1.6171,1.4569,1.3199,1.2091,1.2091,1.2813,1.3776,1.2673,1.2915,1.3632,1.1209,1.019,0.985,0.8726,0.8187,0.8038,0.8137,0.8088,0.7988,0.7988,0.8088,0.8432,0.9657,1.0096,1.0194,1.0194,1.1023,1.1312,0.892,0.8283,0.8184,0.8184,0.8088,0.7988,0.7988,0.7988,0.7988,0.7988,0.7988,0.7988,0.7988,0.7988,0.7988,0.7988,0.7988,0.7988,0.7988,0.7988,0.7988,0.7988,0.7988,0.7988,0.7988,0.7988,0.7988,0.7988,0.7988,0.7988,0.7988,0.7988,0.7988,0.7988,0.7988,0.7917,0.7831,0.7818,0.7658,0.6351,0.6569,0.6926,0.7465,0.7773,0.7921,0.8065,0.8089,0.8163,0.8428,0.8482,0.0,0.0,0.0,0.0,0.0,0.0,0.0,0.0,0.0,0.0,0.0,0.0,0.0,0.0,0.0,0.0,0.0,0.0,0.0,0.0,0.0,0.0,0.0,0.0,1.5652,1.6894,1.6894,1.686,0.0,1.6573,1.6482,1.6366,1.6366,1.6206,1.5823,1.4484,1.3734,1.3488,1.3488,1.3632,1.3974,1.4663,1.4513,1.3824,1.3247,1.1745,1.0096,1.0828,0.9702,0.8187,0.9213,0.8874,0.7988,0.7988,0.8726,0.9608,0.9899,1.073,1.1512,1.1512,1.1702,1.1755,1.1165,1.0293,0.9558,0.9558,0.8726,0.7988,0.7988,0.7988,0.7988,0.7988,0.7988,0.7988,0.7988,0.7988,0.7988,0.7988,0.7988,0.7988,0.7988,0.7988,0.7988,0.7988,0.7988,0.7988,0.7988,0.7988,0.7988,0.7988,0.7988,0.7988,0.7988,0.7988,0.7988,0.7988,0.7988,0.7971,0.7938,0.7868,0.7719,0.632,0.663,0.7054,0.7658,0.0,0.7988,0.7988,0.7988,0.8032,0.8238,0.0,0.0,0.0,0.0,0.0,0.0,0.0,0.0,0.0,0.0,0.0,0.0,0.0,0.0,0.0,0.0,0.0,0.0,0.0,0.0,0.0,0.0,0.0,0.0,1.6202,1.6081,1.6707,1.6707,1.664,1.65,1.6346,1.6199,1.6059,1.6059,1.5979,1.5778,1.5092,1.48,1.48,1.48,1.48,1.4902,1.5534,1.5391,1.4752,1.4118,1.3049,1.1891,1.1896,1.1023,0.9998,1.0681,1.0435,0.985,0.985,1.0337,1.1019,1.1697,1.2328,1.2861,1.2861,1.3301,1.359,1.3006,1.1843,1.0925,1.0925,0.9899,0.897,0.897,0.897,0.897,0.897,0.897,0.8726,0.8088,0.7988,0.7988,0.7988,0.7988,0.7988,0.7988,0.7988,0.7988,0.7988,0.7988,0.7988,0.7988,0.7988,0.7988,0.7988,0.7988,0.7988,0.7988,0.7988,0.7988,0.7988,0.7917,0.7896,0.7824,0.7672,0.7519,0.6242,0.6722,0.7233,0.7806,0.7971,0.0,0.7988,0.7988,0.7988,0.0,0.0,0.0,0.0,0.0,0.0,0.0,0.0,0.0,0.0,0.0,0.0,0.0,0.0,0.0,0.0,0.0,0.0,0.0,0.0,0.0,0.0,0.0,1.6687,1.6633,1.6627,1.6607,1.6553,1.6553,1.6433,1.6192,1.6192,1.6066,1.5784,1.5784,1.5784,1.5784,1.5784,1.5784,1.5784,1.5784,1.5784,1.5784,1.5784,1.5784,1.5683,1.4609,1.407,1.3776,1.2866,1.2285,1.1945,1.2188,1.2091,1.1896,1.1896,1.2042,1.2479,1.3584,1.407,1.4214,1.4214,1.4997,1.5534,1.4459,1.3397,1.2528,1.2285,1.1214,1.0337,1.0337,1.0337,1.0337,1.0337,1.0337,0.9899,0.8528,0.8333,0.8283,0.8038,0.7988,0.7988,0.7988,0.7988,0.7988,0.7988,0.7988,0.7988,0.7988,0.7988,0.7988,0.7988,0.7988,0.7988,0.7988,0.7988,0.7988,0.7988,0.7913,0.7777,0.7634,0.7482,0.7329,0.5616,0.0,0.721,0.0,0.7891,0.7988,0.0,0.0,0.0,0.0,0.0,0.0,0.0,0.0,0.0,0.0,0.0,0.0,0.0,0.0,0.0,0.0,0.0,0.0,0.0,0.0,0.0,0.0,0.0,0.0,0.0,1.5884,1.6587,1.6339,1.6333,1.6206,1.5904,1.5898,1.5878,1.5885,1.5885,1.5818,1.5784,1.5784,1.5784,1.5784,1.5784,1.5784,1.5784,1.5784,1.5784,1.5784,1.5784,1.5784,1.5784,1.5635,1.4854,1.4022,1.4949,1.3788,1.2091,1.3247,1.2866,1.1896,1.1896,1.2721,1.368,1.383,1.4704,1.554,1.554,1.5683,1.5778,1.5588,1.5391,1.5003,1.3878,1.2571,1.1658,1.1658,1.1658,1.1658,1.1658,1.1658,1.1214,0.9948,0.9756,0.9312,0.8137,0.7988,0.7988,0.7988,0.7988,0.7988,0.7988,0.7988,0.7988,0.7988,0.7988,0.7988,0.7988,0.7988,0.7988,0.7988,0.7988,0.7988,0.7988,0.7968,0.788,0.778,0.7638,0.7489,0.5793,0.642,0.7041,0.0,0.7862,0.7884,0.7971,0.0,0.0,0.0,0.0,0.0,0.0,0.0,0.0,0.0,0.0,0.0,0.0,0.0,0.0,0.0,0.0,0.0,0.0,0.0,0.0,0.0,0.0,0.0,1.5114,1.5865,1.6152,1.6025,1.6025,1.5965,1.5784,1.5784,1.5784,1.5784,1.5784,1.5784,1.5784,1.5784,1.5784,1.5784,1.5784,1.5784,1.5784,1.5784,1.5784,1.5784,1.5784,1.5784,1.5784,1.5784,1.5439,1.5045,1.5635,1.5051,1.4172,1.4758,1.4561,1.4082,1.4082,1.4513,1.4949,1.4949,1.5384,1.5784,1.5784,1.5784,1.5784,1.5784,1.5784,1.5635,1.5099,1.3932,1.3006,1.3006,1.3006,1.3006,1.3006,1.3006,1.2571,1.1263,1.1072,1.0583,0.9266,0.9118,0.8825,0.8088,0.7988,0.7988,0.7988,0.7988,0.7988,0.7988,0.7988,0.7988,0.7988,0.7988,0.7988,0.7988,0.7988,0.7988,0.7988,0.7826,0.7756,0.7689,0.7451,0.7353,0.0,0.0,0.6586,0.7295,0.7556,0.7692,0.0,0.0,0.0,0.0,0.0,0.0,0.0,0.0,0.0,0.0,0.0,0.0,0.0,0.0,0.0,0.0,0.0,0.0,0.0,0.0,0.0,0.0,0.0,0.0,1.5683,1.5784,1.5784,1.5784,1.5784,1.5784,1.5784,1.5784,1.5784,1.5784,1.5784,1.5784,1.5784,1.5784,1.5784,1.5784,1.5784,1.5784,1.5784,1.5784,1.5784,1.5784,1.5784,1.5784,1.5784,1.5784,1.5784,1.5784,1.5784,1.5784,1.5784,1.5784,1.5784,1.5784,1.5784,1.5784,1.5784,1.5784,1.5784,1.5784,1.5784,1.5784,1.5784,1.5784,1.5784,1.5784,1.5784,1.5045,1.4364,1.4364,1.4364,1.4364,1.4364,1.4364,1.3926,1.2624,1.2431,1.194,1.0632,1.0485,0.9998,0.8627,0.8528,0.8528,0.8528,0.8528,0.8627,0.897,0.897,0.897,0.897,0.8676,0.8528,0.8528,0.8187,0.7971,0.7931,0.776,0.7614,0.7536,0.7346,0.7299,0.0,0.5413,0.0,0.6433,0.6861,0.0,0.0,0.0,0.0,0.0,0.0,0.0,0.0,0.0,0.0,0.0,0.0,0.0,0.0,0.0,0.0,0.0,0.0,0.0,0.0,0.0,0.0,0.0,0.0,0.0,1.5683,1.5784,1.5784,1.5784,1.5784,1.5784,1.5784,1.5784,1.5784,1.5784,1.5784,1.5784,1.5784,1.5784,1.5784,1.5784,1.5784,1.5784,1.5784,1.5784,1.5784,1.5784,1.5784,1.5784,1.5784,1.5784,1.5784,1.5784,1.5784,1.5784,1.5784,1.5784,1.5784,1.5784,1.5784,1.5784,1.5784,1.5784,1.5784,1.5784,1.5784,1.5784,1.5784,1.5784,1.5784,1.5784,1.5784,1.573,1.5683,1.5683,1.5683,1.5683,1.5683,1.5683,1.5289,1.3974,1.3776,1.3295,1.1994,1.1804,1.1312,1.0047,0.9903,0.9903,0.9903,0.9903,1.0386,1.1604,1.1702,1.1702,1.1702,1.0534,0.9903,0.9903,0.8627,0.7917,0.7824,0.7807,0.7655,0.7433,0.7516,0.7502,0.0,0.0,0.0,0.6224,0.66,0.6936,0.0,0.0,0.0,0.0,0.0,0.0,0.0,0.0,0.0,0.0,0.0,0.0,0.0,0.0,0.0,0.0,0.0,0.0,0.0,0.0,0.0,0.0,0.0,0.0,1.573,1.5784,1.5784,1.5784,1.5784,1.5784,1.5784,1.5784,1.5784,1.5784,1.5784,1.5784,1.5784,1.5784,1.5784,1.5784,1.5784,1.5784,1.5784,1.5784,1.5784,1.5784,1.5784,1.5784,1.5784,1.5784,1.5784,1.5784,1.5784,1.5784,1.5784,1.5784,1.5784,1.5784,1.5784,1.5784,1.5784,1.5784,1.5784,1.5784,1.5784,1.5784,1.5784,1.5784,1.5784,1.5784,1.5784,1.5784,1.5784,1.5784,1.5784,1.5784,1.5784,1.5784,1.5635,1.5194,1.5099,1.4657,1.3349,1.3199,1.2668,1.1361,1.1219,1.1219,1.1219,1.1219,1.1414,1.1853,1.1896,1.1896,1.1896,1.1463,1.1219,1.1219,1.073,0.9669,0.7907,0.7767,0.7621,0.7516,0.7472,0.7926,0.4853,0.0,0.0,0.0,0.0,0.0,0.0,0.0,0.0,0.0,0.0,0.0,0.0,0.0,0.0,0.0,0.0,0.0,0.0,0.0,0.0,0.0,0.0,0.0,0.0,0.0,0.0,0.0,0.0,0.0,1.573,1.5784,1.5784,1.5784,1.5784,1.5784,1.5784,1.5784,1.5784,1.5784,1.5784,1.5784,1.5784,1.5784,1.5784,1.5784,1.5784,1.5784,1.5784,1.5784,1.5784,1.5784,1.5784,1.5784,1.5784,1.5784,1.5784,1.5784,1.5784,1.5784,1.5784,1.5784,1.5784,1.5784,1.5784,1.5784,1.5784,1.5784,1.5784,1.5784,1.5784,1.5784,1.5784,1.5784,1.5784,1.5784,1.5784,1.5784,1.5784,1.5784,1.5784,1.5784,1.5784,1.5784,1.5784,1.5784,1.5784,1.5486,1.4657,1.4555,1.4028,1.2721,1.2576,1.2576,1.2576,1.2576,1.277,1.3156,1.3204,1.3204,1.3204,1.2818,1.2576,1.2576,1.2139,1.1068,0.9312,0.8645,0.8066,0.7597,0.7543,0.829,0.0,0.0,0.0,0.0,0.0,0.0,0.0,0.0,0.0,0.0,0.0,0.0,0.0,0.0,0.0,0.0,0.0,0.0,0.0,0.0,0.0,0.0,0.0,0.0,0.0,0.0,0.0,0.0,0.0,1.4507,1.573,1.5784,1.5784,1.5784,1.5784,1.5784,1.5784,1.5784,1.5784,1.5784,1.5784,1.5784,1.5784,1.5784,1.5784,1.5784,1.5784,1.5784,1.5784,1.5784,1.5784,1.5784,1.5784,1.5784,1.5784,1.5784,1.5784,1.5784,1.5784,1.5784,1.5784,1.5784,1.5784,1.5784,1.5784,1.5784,1.5784,1.5784,1.5784,1.5784,1.5784,1.5784,1.5784,1.5784,1.5784,1.5784,1.5784,1.5784,1.5784,1.5784,1.5784,1.5784,1.5784,1.5784,1.5784,1.5784,1.5784,1.5784,1.5784,1.5784,1.5337,1.407,1.3974,1.3974,1.3974,1.3974,1.4459,1.573,1.5784,1.5784,1.5784,1.4609,1.3974,1.3974,1.2673,1.1994,1.1945,1.0525,0.9108,0.7748,0.789,0.871,0.529,0.0,0.0,0.0,0.0,0.0,0.0,0.0,0.0,0.0,0.0,0.0,0.0,0.0,0.0,0.0,0.0,0.0,0.0,0.0,0.0,0.0,0.0,0.0,0.0,0.0,0.0,0.0,1.398,1.5439,1.5778,1.5784,1.5784,1.5784,1.5784,1.5784,1.5784,1.5784,1.5784,1.5784,1.5784,1.5784,1.5784,1.5784,1.5784,1.5784,1.5784,1.5784,1.5784,1.5784,1.5784,1.5784,1.5784,1.5784,1.5784,1.5784,1.5784,1.5784,1.5784,1.5784,1.5784,1.5784,1.5784,1.5784,1.5784,1.5784,1.5784,1.5784,1.5784,1.5784,1.5784,1.5784,1.5784,1.5784,1.5784,1.5784,1.5784,1.5784,1.5784,1.5784,1.5784,1.5784,1.5784,1.5784,1.5784,1.5784,1.5784,1.5784,1.5784,1.5784,1.5683,1.5289,1.5289,1.5289,1.5289,1.5289,1.5439,1.5784,1.5784,1.5784,1.5784,1.5439,1.5289,1.5289,1.4908,1.4268,1.3343,1.1861,1.0962,1.058,1.1581,1.1828,0.643,0.6173,0.6021,0.0,0.0,0.0,0.0,0.0,0.0,0.0,0.0,0.0,0.0,0.0,0.0,0.0,0.0,0.0,0.0,0.0,0.0,0.0,0.0,0.0,0.0,0.0,0.0,0.0,1.4657,1.5784,1.5784,1.5784,1.5784,1.5784,1.5784,1.5784,1.5784,1.5784,1.5784,1.5784,1.5784,1.5784,1.5784,1.5784,1.5784,1.5784,1.5784,1.5784,1.5784,1.5784,1.5784,1.5784,1.5784,1.5784,1.5784,1.5784,1.5784,1.5784,1.5784,1.5784,1.5784,1.5784,1.5784,1.5784,1.5784,1.5784,1.5784,1.5784,1.5784,1.5784,1.5784,1.5784,1.5784,1.5784,1.5784,1.5784,1.5784,1.5784,1.5784,1.5784,1.5784,1.5784,1.5784,1.5784,1.5784,1.5784,1.5784,1.5784,1.5784,1.5784,1.5784,1.5784,1.5784,1.5784,1.5784,1.5784,1.5784,1.5784,1.5784,1.5784,1.5784,1.5784,1.5784,1.5784,1.5784,1.5439,1.4704,1.3298,1.2321,1.1796,1.3134,1.3404,0.7779,0.7666,0.7696,0.0,0.0,0.0,0.7192,0.6561,0.0,0.0,0.0,0.0,0.0,0.0,0.0,0.0,0.0,0.0,0.0,0.0,0.0,0.0,0.0,0.0,0.0,0.0,1.2479,1.3776,1.5092,1.5784,1.5784,1.5784,1.5784,1.5784,1.5784,1.5784,1.5784,1.5784,1.5784,1.5784,1.5784,1.5784,1.5784,1.5784,1.5784,1.5784,1.5784,1.5784,1.5784,1.5784,1.5784,1.5784,1.5784,1.5784,1.5784,1.5784,1.5784,1.5784,1.5784,1.5784,1.5784,1.5784,1.5784,1.5784,1.5784,1.5784,1.5784,1.5784,1.5784,1.5784,1.5784,1.5784,1.5784,1.5784,1.5784,1.5784,1.5784,1.5784,1.5784,1.5784,1.5784,1.5784,1.5784,1.5784,1.5784,1.5784,1.5784,1.5784,1.5784,1.5784,1.5784,1.5784,1.5784,1.5784,1.5784,1.5784,1.5784,1.5784,1.5784,1.5784,1.5784,1.5784,1.5784,1.5784,1.5784,1.5784,1.5784,1.4657,1.3494,1.2382,1.3513,1.4076,0.8977,0.8742,0.0,0.0,0.0,0.0,0.0,0.7506,0.0,0.0,0.0,0.0,0.0,0.0,0.0,0.0,0.0,0.0,0.0,0.0,0.0,0.0,0.0,0.0,0.0,0.0,1.2479,1.3776,1.5092,1.5784,1.5784,1.5784,1.5784,1.5784,1.5784,1.5784,1.5784,1.5784,1.5784,1.5784,1.5784,1.5784,1.5784,1.5784,1.5784,1.5784,1.5784,1.5784,1.5784,1.5784,1.5784,1.5784,1.5784,1.5784,1.5784,1.5784,1.5784,1.5784,1.5784,1.5784,1.5784,1.5784,1.5784,1.5784,1.5784,1.5784,1.5784,1.5784,1.5784,1.5784,1.5784,1.5784,1.5784,1.5784,1.5784,1.5784,1.5784,1.5784,1.5784,1.5784,1.5784,1.5784,1.5784,1.5784,1.5784,1.5784,1.5784,1.5784,1.5784,1.5784,1.5784,1.5784,1.5784,1.5784,1.5784,1.5784,1.5784,1.5784,1.5784,1.5784,1.5784,1.5784,1.5784,1.5784,1.5784,1.5784,1.5784,1.554,1.5296,1.5045,1.511,1.51,1.0426,0.0,0.0,0.9946,0.0,0.0,0.0,0.0,0.0,0.0,0.0,0.0,0.0,0.0,0.0,0.0,0.0,0.0,0.0,0.0,0.0,0.0,0.0,0.0,0.0,0.0,1.3261,1.4746,1.5439,1.5784,1.5784,1.5784,1.5784,1.5784,1.5784,1.5784,1.5784,1.5784,1.5711,1.5611,1.5611,1.5538,1.5404,1.5545,1.5611,1.5618,1.5718,1.5784,1.5784,1.5784,1.5784,1.5784,1.5784,1.5784,1.5784,1.5784,1.5784,1.5784,1.5784,1.5784,1.5784,1.5784,1.5784,1.5784,1.5784,1.5784,1.5784,1.5784,1.5784,1.5784,1.5784,1.5784,1.5784,1.5784,1.5784,1.5784,1.5784,1.5784,1.5784,1.5784,1.5784,1.5784,1.5784,1.5784,1.5784,1.5784,1.5784,1.5784,1.5784,1.5784,1.5784,1.5784,1.5784,1.5784,1.5784,1.5784,1.5784,1.5784,1.5784,1.5784,1.5784,1.5784,1.5784,1.5784,1.5784,1.5784,1.5784,1.5784,1.5784,1.5771,1.5531,1.5398,0.0,0.0,0.0,0.0,0.0,1.0134,0.0,0.0,0.0,0.8815,0.0,0.0,0.0,0.0,0.0,0.0,0.0,0.0,0.0,0.0,0.0,0.0,0.0,0.0,0.0,0.0,1.4102,1.5538,1.5558,1.5571,1.5684,1.5698,1.5772,1.5784,1.5784,1.5758,1.5698,1.5698,1.5605,1.5311,1.5311,1.519,1.5015,1.5204,1.5311,1.5331,1.5565,1.5698,1.5698,1.5698,1.5731,1.5784,1.5784,1.5784,1.5784,1.5784,1.5784,1.5784,1.5784,1.5784,1.5784,1.5784,1.5784,1.5784,1.5784,1.5784,1.5784,1.5784,1.5784,1.5784,1.5784,1.5784,1.5784,1.5784,1.5784,1.5784,1.5784,1.5784,1.5784,1.5784,1.5784,1.5784,1.5784,1.5784,1.5784,1.5784,1.5784,1.5784,1.5784,1.5784,1.5784,1.5784,1.5784,1.5784,1.5784,1.5784,1.5784,1.5784,1.5784,1.5784,1.5784,1.5784,1.5784,1.5784,1.5784,1.5784,1.5784,1.5784,1.5784,1.5771,1.5478,1.5311,0.0,0.0,0.0,0.0,1.2148,0.0,0.0,0.0,1.0503,1.003,0.0,0.0,0.0,0.0,0.0,0.0,0.0,0.0,0.0,0.0,0.0,0.0,0.0,0.0,0.0,0.0,0.0,1.5017,1.4583,1.4623,1.5404,1.5444,1.5565,1.5771,1.5784,1.5705,1.5444,1.5444,1.5297,1.5062,1.5062,1.5042,1.5008,1.5042,1.5062,1.5062,1.5095,1.5211,1.5444,1.5444,1.5598,1.5784,1.5784,1.5784,1.5784,1.5784,1.5784,1.5784,1.5784,1.5784,1.5784,1.5784,1.5784,1.5784,1.5784,1.5784,1.5784,1.5784,1.5784,1.5784,1.5784,1.5784,1.5784,1.5784,1.5784,1.5784,1.5784,1.5784,1.5784,1.5784,1.5784,1.5784,1.5784,1.5784,1.5784,1.5784,1.5784,1.5784,1.5784,1.5784,1.5784,1.5784,1.5784,1.5784,1.5784,1.5784,1.5784,1.5784,1.5784,1.5784,1.5784,1.5784,1.5784,1.5784,1.5784,1.5784,1.5784,1.5784,1.5784,1.5764,1.5264,1.5062,0.0,0.0,0.0,0.0,0.0,0.0,1.1082,0.0,1.0747,0.0,0.0,0.0,0.0,0.0,0.0,0.0,0.0,0.0,0.0,0.0,0.0,0.0,0.0,0.0,0.0,0.0,0.0,0.0,0.0,1.4322,1.4856,1.505,1.5204,1.5324,1.5331,1.5271,1.515,1.5189,1.4997,1.4703,1.4703,1.4616,1.4462,1.4629,1.4703,1.4716,1.4934,1.5075,1.5157,1.5331,1.5471,1.5591,1.5718,1.5784,1.5784,1.5784,1.5784,1.5784,1.5784,1.5784,1.5784,1.5784,1.5784,1.5784,1.5784,1.5784,1.5784,1.5784,1.5784,1.5784,1.5784,1.5784,1.5784,1.5784,1.5784,1.5784,1.5784,1.5784,1.5784,1.5784,1.5784,1.5784,1.5784,1.5784,1.5784,1.5784,1.5784,1.5784,1.5784,1.5784,1.5784,1.5784,1.5784,1.5784,1.5784,1.5784,1.5784,1.5784,1.5784,1.5784,1.5784,1.5784,1.5784,1.5784,1.5784,1.5784,1.5784,1.5784,1.5784,1.5764,1.5237,1.5008,1.3507,0.0,0.0,0.0,0.0,0.0,0.0,0.0,0.0,0.0,0.0,0.0,0.0,0.0,0.0,0.0,0.0,0.0,0.0,0.0,0.0,0.0,0.0,0.0,0.0,0.0,0.0,0.0,0.0,0.0,1.4369,1.4603,1.4841,1.5001,1.5008,1.4968,1.4843,1.4843,1.4696,1.4402,1.4402,1.4295,1.4095,1.4302,1.4402,1.4409,1.4629,1.4814,1.4863,1.507,1.5204,1.5297,1.5504,1.5591,1.5611,1.5772,1.5784,1.5784,1.5784,1.5784,1.5784,1.5784,1.5784,1.5784,1.5784,1.5784,1.5784,1.5784,1.5784,1.5784,1.5784,1.5784,1.5784,1.5784,1.5784,1.5784,1.5784,1.5784,1.5784,1.5784,1.5784,1.5784,1.5784,1.5784,1.5784,1.5784,1.5784,1.5784,1.5784,1.5784,1.5784,1.5784,1.5784,1.5784,1.5784,1.5784,1.5784,1.5784,1.5784,1.5784,1.5784,1.5784,1.5784,1.5784,1.5784,1.5784,1.5784,1.5784,1.5784,1.5771,1.5317,1.5082,0.0,0.0,0.0,1.2605,0.0,0.0,0.0,0.0,1.1289,0.0,0.0,0.0,0.0,0.0,0.0,1.0962,0.0,0.0,0.0,0.0,0.0,0.0,0.0,0.0,0.0,0.0,0.0,0.0,0.0,0.0,1.4028,1.4108,1.4419,1.4988,1.5008,1.4823,1.4536,1.4536,1.4389,1.4102,1.4102,1.4095,1.4088,1.4095,1.4102,1.4102,1.4115,1.4275,1.4536,1.4543,1.4716,1.5022,1.5035,1.5035,1.5109,1.5625,1.5784,1.5784,1.5784,1.5784,1.5784,1.5784,1.5784,1.5784,1.5784,1.5784,1.5784,1.5784,1.5784,1.5784,1.5784,1.5784,1.5784,1.5784,1.5784,1.5784,1.5784,1.5784,1.5784,1.5784,1.5784,1.5784,1.5784,1.5784,1.5784,1.5784,1.5784,1.5784,1.5784,1.5784,1.5784,1.5784,1.5784,1.5784,1.5784,1.5784,1.5784,1.5784,1.5784,1.5784,1.5784,1.5784,1.5784,1.5784,1.5784,1.5784,1.5784,1.5784,1.5784,1.5771,1.5524,1.5231,0.0,0.0,1.3901,1.31,0.0,0.0,0.0,0.0,0.0,0.0,0.0,0.0,0.0,0.0,1.1216,1.1022,1.0909,0.0,0.0,0.0,0.0,0.0,0.0,0.0,0.0,0.0,0.0,0.0,0.0,0.0,0.0,1.3574,1.3846,1.4082,1.4282,1.4335,1.4235,1.4235,1.4182,1.4088,1.4088,1.4088,1.4088,1.4088,1.4088,1.4088,1.4088,1.4142,1.4249,1.4442,1.4583,1.4689,1.4928,1.5008,1.5055,1.5398,1.5545,1.5571,1.5718,1.5784,1.5784,1.5784,1.5784,1.5784,1.5784,1.5784,1.5784,1.5784,1.5784,1.5784,1.5784,1.5784,1.5784,1.5784,1.5784,1.5784,1.5784,1.5784,1.5784,1.5784,1.5784,1.5784,1.5784,1.5784,1.5784,1.5784,1.5784,1.5784,1.5784,1.5784,1.5784,1.5784,1.5784,1.5784,1.5784,1.5784,1.5784,1.5784,1.5784,1.5784,1.5784,1.5784,1.5784,1.5784,1.5784,1.5784,1.5784,1.5784,1.5784,1.5778,1.5732,1.5424,1.4088,1.4088,0.0,1.3353,1.2919,0.0,1.1744,0.0,0.0,0.0,0.0,0.0,0.0,0.0,0.0,1.1336,1.1129,0.0,0.0,0.0,0.0,0.0,0.0,0.0,0.0,0.0,1.0922,1.1516,0.0,0.0,0.0,0.0,1.3493,1.36,1.3935,1.4088,1.4088,1.4088,1.4088,1.4088,1.4088,1.4088,1.4088,1.4088,1.4088,1.4088,1.4088,1.4088,1.4102,1.4289,1.4362,1.4382,1.462,1.476,1.4856,1.5251,1.5464,1.5578,1.5718,1.5784,1.5784,1.5784,1.5784,1.5784,1.5784,1.5784,1.5784,1.5784,1.5784,1.5784,1.5784,1.5784,1.5784,1.5784,1.5784,1.5784,1.5784,1.5784,1.5784,1.5784,1.5784,1.5784,1.5784,1.5784,1.5784,1.5784,1.5784,1.5784,1.5784,1.5784,1.5784,1.5784,1.5784,1.5784,1.5784,1.5784,1.5784,1.5784,1.5784,1.5784,1.5784,1.5784,1.5784,1.5784,1.5784,1.5784,1.5784,1.5784,1.5784,1.5784,1.5784,1.5571]}]]